     2              OBSERVATION DATA    GPS                 RINEX VERSION / TYPE
ASRINEXO V2.4.4 UX USGS 23-APR-96 11:18                     PGM / RUN BY / DATE
                                                            COMMENT
Original Marker Name: lgo7 LGO_70_1977                      COMMENT
Campaign Name: usgs.cuyama.monit                            COMMENT
4-Character Station Name: LGO7                              COMMENT
6-Character Antenna Code: ASHGD3                            COMMENT
Vertical Measurement Point: EGP                             COMMENT
Vertical Offset to Rinex Ref. Point: 0.0594                 COMMENT
Radial Measurement Point: EGP                               COMMENT
Radial Offset to Rinex Ref. Point: 0.1837                   COMMENT
Antenna Height from Field Measurement: 1.2890 m             COMMENT
Additional Antenna Identification Info.:                    COMMENT
The Whopper                                                 COMMENT
Original XYZ: -2595624.8300 -4539574.7600 3642109.7500      COMMENT
New XYZ position is based on association with SCEC monument COMMENT
E1E9P8X1+0011. Position of that monument is believed to be  COMMENT
valid to within 1 m horizontally; vertical accuracy         COMMENT
should be no worse than 3-times this value.                 COMMENT
                                                            COMMENT
Revised Rinex header created by UCSD GPS archive for        COMMENT
GSAC on 17-Mar-2000 (2000:077) 21:56:21 GMT                 COMMENT
For assistance contact dagnew@ucsd.edu or hjohnson@ucsd.edu COMMENT
                                                            COMMENT
LGO7 LGO_70_1977                                            MARKER NAME
CHS US GEOLOGICAL SURVEY                                    OBSERVER / AGENCY
143 ASHTECH Z-XII3 1F00                                     REC # / TYPE / VERS
401 ASHTECH GEODETIC III                                    ANT # / TYPE
 -2595719.6248 -4539654.5273  3642039.5864                  APPROX POSITION XYZ
        1.2164        0.0000        0.0000                  ANTENNA: DELTA H/E/N
     1     1     0                                          WAVELENGTH FACT L1/2
     5    C1    L1    L2    P1    P2                        # / TYPES OF OBSERV
    30                                                      INTERVAL
  1996     4    20    15    24   30.000000                  TIME OF FIRST OBS
  1996     4    20    22    25    0.000000                  TIME OF LAST OBS
                                                            END OF HEADER
 96  4 20 15 24 30.0000000  0  9 19  2  3 16 31 29 28 27 18
  15343885.981       -1399.12119      -743.62559                  15343892.0044
  18258326.113      -60328.67319    -36720.44959                  18258333.7184
  18247480.030       41878.44419     22143.99059                  18247485.9794
  19087432.341       -9718.12019
  16743292.691      -12249.60719     -6414.86159                  16743298.1544
  17527290.941       73398.45419     37689.32859                  17527298.6204
  18937540.168       44926.11219     22610.01059                  18937545.9574
  16966061.290      -35318.24919
  15147566.754       34454.90619
 96  4 20 15 25  0.0000000  0  9 19  2  3 16 31 29 28 27 18
  15343517.216       -3338.14259     -2254.56249  15343517.4824   15343523.0804
  18245135.143     -129644.49859    -90732.76149  18245135.7554   18245142.9464
  18255508.155       84070.93159     55021.24549  18255508.3694   18255513.8524
  19079035.802      -53840.599 9    -36995.16859                  19079041.8794
  16740070.545      -29180.83159    -19608.00449  16740070.2914   16740076.4564
  17546600.125      174863.56259    116753.01249  17546600.2084   17546606.9634
  18949167.960      106030.17859     70223.54949  18949168.0674   18949173.5674
  16956798.308      -83998.948 9
  15157138.020       84751.431 9
 96  4 20 15 25 30.0000000  0  9 19  2  3 16 31 29 28 27 18
  20739424.131       -5213.29849     -3715.72949  20739424.6554   20739430.3924
  23628236.606     -198816.63149   -144633.10349  23628236.7184   23628244.3934
  23659877.759      126664.72649     88211.22349  23659878.3974   23659883.9964
  24466972.763      -97593.60359    -71088.41349  24466972.9634   24466980.8294
  22133199.848      -45657.24349    -32446.74849  22133199.0894   22133205.1654
  22962189.453      276414.16649    195883.33249  22962188.8844   22962195.7914
  24357125.368      167472.658 9    118100.788 9  24357124.103    24357129.944
  22343806.539     -132648.560 9
  20563039.702      135400.786 9
 96  4 20 15 26  0.0000000  0  9 19  2  3 16 31 29 28 27 18
  20739076.279       -7043.47959     -5141.84259  20739076.5144   20739082.2314
  23615082.233     -267956.23859   -198508.09359  23615080.5454   23615087.1324
  23668067.064      169704.11159    121748.42559  23668068.6804   23668073.9754
  24458705.020     -141042.31359   -104944.54459  24458704.7654   24458712.9404
  22130145.832      -61708.75159    -44954.38459  22130144.8574   22130150.8394
  22981557.194      378171.53559    275174.77459  22981553.0954   22981559.1104
  24368890.332      229314.00619    166288.83719  24368892.291    24368897.989
  22334536.129     -181349.031 9    -15531.81759                  22334542.9594
  20572750.715      186427.598 9     16300.73759                  20572755.9464
 96  4 20 15 26 30.0000000  0  9 19  2  3 16 31 29 28 27 18
  20738736.084       -8831.96049     -6535.46749  20738736.0964   20738741.7424
  23601936.194     -337029.21649   -252331.16849  23601937.0074   23601943.1144
  23676332.992      213134.18549    155590.04649  23676332.9054   23676338.5964
  24450492.600     -184189.95749   -138566.08449  24450494.1694   24450502.0914
  22127170.835      -77341.33849    -57135.60549  22127170.1404   22127176.1164
  23000940.237      480058.58749    354567.24149  23000940.9644   23000946.6804
  24380725.557      291499.275 9    214744.867 9  24380725.911    24380731.315
  22325260.152     -230100.19259    -53519.74049  22325260.1824   22325265.8894
  20582522.178      237777.48259     56313.61549  20582522.2374   20582527.6964
 96  4 20 15 27  0.0000000  0  9 19  2  3 16 31 29 28 27 18
  20738410.771      -10542.51249     -7868.36049  20738411.0094   20738416.4294
  23588812.459     -405996.72149   -306072.05649  23588813.2184   23588819.1744
  23684675.823      256977.65549    189753.78849  23684676.6554   23684681.7664
  24442344.954     -227017.82149   -171938.45149  24442344.2804   24442351.2504
  22124279.836      -92533.98149    -68974.00649  22124279.3694   22124285.0494
  23020358.830      582104.38249    434083.40949  23020359.8804   23020365.9124
  24392629.633      354054.027 9    263488.812 9  24392629.611    24392634.973
  22315979.024     -278872.25949    -91523.94449  22315978.9384   22315985.2914
  20592360.700      289479.61349     96600.98549  20592361.0244   20592366.2394
 96  4 20 15 27 30.0000000  0  9 19  2  3 16 31 29 28 27 18
  20738099.276      -12176.87149     -9141.88249  20738099.6224   20738105.2324
  23575711.183     -474844.90649   -359719.96949  23575711.1354   23575717.8244
  23693097.641      301237.32949    224241.84649  23693098.0914   23693104.0844
  24434258.987     -269508.59749   -205048.14749  24434258.4054   24434265.4064
  22121473.363     -107281.09449    -80465.25149  22121473.0484   22121479.0574
  23039809.179      684313.37349    513726.73849  23039810.2134   23039815.5214
  24404603.765      416981.359 9    312523.069 9  24404604.085    24404609.763
  22306696.569     -327652.96849   -129534.87849  22306696.5314   22306702.8424
  20602266.553      341535.01549    137163.62649  20602266.7534   20602272.1344
 96  4 20 15 28  0.0000000  0  9 19  2  3 16 31 29 28 27 18
  20737805.341      -13721.99849    -10345.87749  20737805.6474   20737811.7404
  23562635.121     -543560.84549   -413264.84249  23562635.2934   23562641.6624
  23701598.240      345909.92349    259051.66949  23701599.4094   23701604.0714
  24426241.635     -311643.31849   -237880.39449  24426241.0474   24426247.6554
  22118752.299     -121580.36849    -91607.53149  22118751.8134   22118757.7514
  23059290.077      786686.55749    593498.00749  23059290.9684   23059297.0414
  24416649.465      480283.803 9    361849.621 9  24416650.176    24416656.237
  22297409.899     -376451.38049   -167559.59849  22297410.2414   22297416.6624
  20612239.850      393944.21949    178001.95549  20612239.7414   20612245.2234
 96  4 20 15 28 30.0000000  0  9 19  2  3 16 31 29 28 27 18
  20737529.171      -15174.63149    -11477.79549  20737529.4204   20737535.2404
  23549585.779     -612133.85849   -466698.34749  23549585.8384   23549592.8544
  23710179.210      390999.17449    294186.14349  23710179.1654   23710184.1094
  24418290.422     -353425.75149   -270438.13449  24418290.5184   24418297.9864
  22116116.813     -135429.07249   -102398.72349  22116116.8844   22116122.2014
  23078800.523      889209.40949    673385.90449  23078800.7224   23078806.3254
  24428768.538      543959.697 9    411467.172 9  24428767.727    24428773.172
  22288121.957     -425263.10149   -205594.69249  22288122.1194   22288127.9564
  20622284.241      446729.57649    219133.39749  20622284.5764   20622290.1334
 96  4 20 15 29  0.0000000  0  9 19  2  3 16 31 29 28 27 18
  20737269.994      -16534.16149    -12537.16349  20737270.5924   20737276.6274
  23536563.438     -680564.20249   -520020.67749  23536564.8844   23536571.3594
  23718845.124      436537.89949    329670.86749  23718845.6044   23718851.4604
  24410410.816     -394835.03449   -302705.11449  24410410.7634   24410417.0844
  22113571.551     -148803.70849   -112820.50449  22113571.6164   22113577.3704
  23098340.374      991894.29249    753400.06449  23098341.7684   23098345.7284
  24440958.407      608023.111 9    461386.689 9  24440958.305    24440963.784
  22278833.691     -474073.75149   -243628.95649  22278833.8824   22278839.4054
  20632405.164      499914.11649    260575.87849  20632405.4094   20632411.0894
 96  4 20 15 29 30.0000000  0  9 19  2  3 16 31 29 28 27 18
  20737026.838      -17811.95649    -13532.84449  20737027.3364   20737033.4684
  23523564.079     -748883.57349   -573256.54149  23523563.9634   23523570.2944
  23727592.463      482509.91649    365493.21549  23727593.0954   23727598.2874
  24402601.597     -435867.85049   -334678.74449  24402601.8444   24402607.7444
  22111118.102     -161698.80149   -122868.63649  22111117.9134   22111123.2044
  23117912.131     1094743.68549    833542.41449  23117912.5824   23117917.7934
  24453220.618      672461.595 9    511598.466 9  24453220.697    24453225.806
  22269541.935     -522899.77949   -281675.20549  22269542.4904   22269547.7784
  20642599.495      553486.91149    302320.90049  20642599.9654   20642605.5264
 96  4 20 15 30  0.0000000  0  9 19  2  3 16 31 29 28 27 18
  20736803.316      -18988.39649    -14449.55249  20736803.7274   20736809.9624
  23510583.727     -817097.98149   -626410.60349  23510583.3074   23510590.1004
  23736421.932      528908.19249    401647.71349  23736423.0194   23736427.8194
  24394862.630     -476537.92849   -366369.72749  24394862.5344   24394870.0974
  22108755.263     -174118.56749   -132546.37749  22108754.4534   22108759.9034
  23137516.894     1197768.12649    913821.16449  23137517.3664   23137522.7224
  24465553.553      737271.164 9    562099.407 9  24465553.549    24465559.095
  22260247.056     -571746.49749   -319737.57549  22260247.1524   22260252.8634
  20652869.103      607455.23849    344374.13349  20652869.7254   20652875.3654
 96  4 20 15 30 30.0000000  0  9 19  2  3 16 31 29 28 27 18
  20736597.586      -20069.40249    -15291.89649  20736598.0394   20736603.5894
  23497621.825     -885210.78749   -679485.50649  23497621.2854   23497627.9364
  23745334.955      575743.93249    438143.08349  23745335.4534   23745340.8194
  24387193.826     -516840.66149   -397774.46549  24387193.2364   24387201.3084
  22106483.097     -186057.77949   -141849.66649  22106482.4774   22106487.7104
  23157155.059     1300967.98649    994236.59849  23157155.7974   23157160.8544
  24477957.092      802453.378 9    612890.713 9  24477957.469    24477963.012
  22250949.860     -620602.87749   -357807.48249  22250950.3634   22250955.7294
  20663217.147      661830.55249    386744.49649  20663217.0324   20663222.5394
 96  4 20 15 31  0.0000000  0  9 19  2  3 16 31 29 28 27 18
  20736412.401      -21041.04749    -16049.02349  20736413.2694   20736418.9534
  23484678.256     -953225.85849   -732484.25049  23484678.5804   23484684.8794
  23754330.934      623017.59149    474979.69449  23754331.7124   23754337.1284
  24379599.010     -556750.12549   -428872.75849  24379599.5164   24379606.6894
  22104302.919     -197509.01749   -150772.71149  22104303.0144   22104308.6184
  23176830.134     1404361.61849   1074803.02149  23176831.2314   23176835.8534
  24490432.480      868012.214 9    663975.490 9  24490432.931    24490438.503
  22241652.650     -669459.95349   -395877.93049  22241653.0294   22241658.8004
  20673638.097      716593.94449    429417.25749  20673638.4174   20673643.9314
 96  4 20 15 31 30.0000000  0  9 19  2  3 16 31 29 28 27 18
  20736254.904      -21870.42449    -16695.29049  20736255.3644   20736261.1574
  23471759.997    -1021112.16949   -785382.65949  23471760.2064   23471766.1394
  23763411.345      670735.92149    512162.79849  23763412.4444   23763417.8454
  24372085.321     -596239.72849   -459643.87249  24372083.9904   24372091.3034
  22102216.849     -208472.12649   -159315.39749  22102217.0844   22102222.4804
  23196542.843     1507951.23849   1155522.16649  23196543.2644   23196548.5384
  24502981.288      933959.577 9    715363.017 9  24502982.150    24502987.756
  22232357.739     -718304.81349   -433938.85849  22232357.7394   22232364.0614
  20684133.290      771747.68949    472394.19249  20684133.8064   20684139.3794
 96  4 20 15 32  0.0000000  0  9 19  2  3 16 31 29 28 27 18
  20736121.584      -22571.03449    -17241.21949  20736122.0424   20736127.8014
  23458869.489    -1088854.02949   -838168.50549  23458869.7314   23458875.2994
  23772580.294      718916.20949    549705.86649  23772580.2324   23772586.5174
  24364648.607     -635313.38949   -490090.88249  24364649.4544   24364655.7944
  22100221.891     -218954.14949   -167483.20349  22100222.3124   22100227.7394
  23216288.280     1611713.98349   1236376.21549  23216289.8414   23216294.8294
  24515604.697     1000293.370 9    767051.659 9  24515605.057    24515610.795
  22223063.941     -767139.80449   -471992.09549  22223064.8104   22223070.6974
  20694704.339      827299.56849    515681.35449  20694704.7664   20694710.3984
 96  4 20 15 32 30.0000000  0  9 19  2  3 16 31 29 28 27 18
  20736008.736      -23162.35949    -17701.99549  20736009.3274   20736015.0394
  23446006.891    -1156446.21249   -890837.71849  23446006.8304   23446013.5354
  23781839.460      767573.52749    587620.64449  23781840.2784   23781845.2734
  24357294.862     -673964.75149   -520208.83649  24357294.6664   24357299.8694
  22098319.451     -228949.76449   -175271.98749  22098320.2494   22098325.6814
  23236065.580     1715640.17549   1317357.62349  23236066.1434   23236071.2384
  24528300.991     1067011.634 9    819039.892 9  24528301.334    24528307.190
  22213774.237     -815960.60249   -510034.27549  22213774.4674   22213780.2904
  20705350.189      883243.32949    559273.88049  20705350.6454   20705356.3414
 96  4 20 15 33  0.0000000  0  9 19  2  3 16 31 29 28 27 18
  20735917.549      -23640.52249    -18074.59549  20735918.2744   20735924.2224
  23433173.606    -1223886.80949   -943388.81449  23433173.2134   23433180.0524
  23791185.494      816687.03449    625890.89549  23791185.3004   23791191.5784
  24350018.473     -712202.56049   -550004.55349  24350018.3434   24350024.9224
  22096510.113     -238463.41449   -182685.21049  22096509.9564   22096515.4784
  23255874.868     1819735.83249   1398471.08049  23255875.2204   23255880.4034
  24541070.037     1134111.565 9    871325.524 9  24541070.072    24541076.255
  22204484.842     -864775.89349   -548072.16249  22204485.3174   22204491.7624
  20716069.777      939573.43249    603167.45649  20716070.1144   20716075.6184
 96  4 20 15 33 30.0000000  0  9 19  2  3 16 31 29 28 27 18
  20735846.186      -24014.36549    -18365.90949  20735847.2494   20735853.3994
  23420373.233    -1291150.31049   -995801.91249  23420373.2604   23420380.1834
  23800615.987      866244.27949    664506.91449  23800616.8724   23800622.2014
  24342815.009     -750043.48149   -579490.99349  24342816.7384   24342823.6704
  22094792.020     -247490.58249   -189719.35949  22094792.3904   22094797.4074
  23275714.670     1923997.90649   1479714.22549  23275715.4554   23275720.6974
  24553911.941     1201595.042 9    923910.020 9  24553911.666    24553917.643
  22195197.387     -913582.84749   -586103.55449  22195197.8004   22195203.8674
  20726866.011      996305.79249    647374.47649  20726866.0904   20726871.5064
 96  4 20 15 34  0.0000000  0  9 19  2  3 16 31 29 28 27 18
  20735795.341      -24285.10549    -18576.88049  20735795.9074   20735801.3654
  23407605.534    -1358244.51649  -1048083.09149  23407605.7274   23407613.0844
  23810126.485      916228.77449    703455.85049  23810127.4884   23810134.0674
  24335686.046     -787505.42949   -608682.14949  24335687.6464   24335694.0204
  22093168.508     -256024.69849   -196369.31549  22093168.2204   22093173.0954
  23295587.469     2028434.79649   1561093.58849  23295588.7994   23295594.8064
  24566825.411     1269458.481 9    976790.590 9  24566825.841    24566831.334
  22185913.965     -962367.44049   -624117.52049  22185913.9474   22185920.2854
  20737739.148     1053449.78549    691902.25749  20737739.6324   20737745.1984
 96  4 20 15 34 30.0000000  0  9 19  2  3 16 31 29 28 27 18
  20735767.357      -24430.37249    -18690.07649  20735768.0324   20735773.6864
  23394868.933    -1425174.64749  -1100236.41749  23394869.5134   23394876.2554
  23819714.194      966607.42849    742711.92449  23819715.0924   23819720.7604
  24328628.822     -824595.62049   -637583.59649  24328629.3904   24328637.1854
  22091637.114     -264068.73649   -202637.38949  22091637.2444   22091642.2884
  23315495.468     2133052.07049   1642613.51349  23315496.1264   23315502.5204
  24579812.655     1337701.112 9   1029966.639 9  24579812.166    24579817.759
  22176637.324    -1011116.18149   -662103.54949  22176637.6884   22176643.5974
  20748690.479     1110999.06649    736745.83849  20748691.0524   20748696.3894
 96  4 20 15 35  0.0000000  0  9 19  2  3 16 31 29 28 27 18
  20735765.267      -24438.42749    -18696.35749  20735766.5134   20735772.0214
  23382162.497    -1491949.08749  -1152268.43449  23382162.5324   23382169.2414
  23829370.525     1017347.60349    782249.70649  23829370.7824   23829376.8514
  24321640.391     -861320.27449   -666200.22649  24321641.7084   24321649.1014
  22090198.921     -271625.03849   -208525.40449  22090199.4364   22090204.8304
  23335436.047     2237840.26649   1724266.62049  23335436.8194   23335443.9834
  24592869.672     1406321.047 9   1083436.677 9  24592870.102    24592875.775
  22167368.006    -1059824.63749   -700058.18249  22167368.7014   22167374.3154
  20759719.886     1168956.59149    781907.52849  20759720.3174   20759725.6084
 96  4 20 15 35 30.0000000  0  9 19  2  3 16 31 29 28 27 18
  20735793.040      -24294.80849    -18584.45049  20735793.8854   20735799.5204
  23369487.375    -1558557.01049  -1204170.69749  23369487.8554   23369494.1334
  23839099.343     1068480.39749    822093.40849  23839100.1474   23839106.7104
  24314723.770     -897669.16949   -694524.04249  24314724.0224   24314732.1394
  22088854.999     -278687.71749   -214028.77849  22088855.6134   22088861.3274
  23355407.692     2342794.13449   1806048.81949  23355408.1474   23355415.5114
  24606000.266     1475325.410 9   1137206.276 9  24606001.184    24606006.607
  22158112.608    -1108460.77049   -737956.46149  22158113.6194   22158119.3504
  20770828.868     1227335.82949    827397.82849  20770829.4454   20770834.6224
 96  4 20 15 36  0.0000000  0  9 19  2  3 16 31 29 28 27 18
  20735850.222      -23994.50749    -18350.45549  20735851.2074   20735857.0164
  23356841.038    -1625016.35649  -1255957.17749  23356841.1074   23356847.8214
  23848909.873     1120032.54949    862263.89449  23848910.1054   23848916.1594
  24307881.560     -933627.98949   -722543.90749  24307881.7304   24307889.2834
  22087604.720     -285256.52949   -219147.31749  22087605.4204   22087611.6244
  23375410.129     2447909.52749   1887956.88449  23375411.7364   23375417.8304
  24619204.819     1544710.728 9   1191272.731 9  24619204.902    24619210.392
  22148870.261    -1157029.94749   -775802.56149  22148870.8624   22148877.3444
  20782018.374     1286134.68749    873215.10749  20782018.6174   20782023.8024
 96  4 20 15 36 30.0000000  0  9 19  2  3 16 31 29 28 27 18
  20735931.544      -23567.44949    -18017.68749  20735932.3554   20735938.1424
  23344220.393    -1691333.18849  -1307632.62049  23344220.7944   23344227.6664
  23858800.005     1172008.56149    902764.66749  23858800.9934   23858806.8724
  24301111.358     -969199.97649   -750262.35149  24301112.3284   24301118.6724
  22086448.814     -291333.88849   -223882.90549  22086449.0184   22086455.0354
  23395440.685     2553174.21549   1969981.27549  23395442.6674   23395449.6724
  24632477.640     1614465.678 9   1245627.214 9  24632478.463    24632484.566
  22139636.502    -1205557.59349   -813616.30849  22139636.8474   22139643.0914
  20793283.097     1345333.28949    919343.87649  20793283.6564   20793288.9574
 96  4 20 15 37  0.0000000  0  9 19  2  3 16 31 29 28 27 18
  20736038.135      -23007.60149    -17581.44649  20736039.1254   20736044.5734
  23331633.392    -1757478.82849  -1359174.66749  23331634.4844   23331641.5034
  23868784.721     1224475.88049    943648.27249  23868785.0244   23868791.5104
  24294423.865    -1004341.97249   -777645.72549  24294424.7644   24294432.0594
  22085391.437     -296889.34949   -228211.81549  22085391.4234   22085397.4244
  23415506.303     2658614.45849   2052142.45549  23415508.5294   23415514.5674
  24645826.673     1684613.310 9   1300287.676 9  24645827.303    24645833.197
  22130412.846    -1254027.17949   -851384.81249  22130413.7114   22130419.4584
  20804628.604     1404954.18849    965801.70349  20804628.8544   20804634.3864
 96  4 20 15 37 30.0000000  0  9 19  2  3 16 31 29 28 27 18
  20736164.103      -22345.23349    -17065.31849  20736164.9794   20736170.5864
  23319079.047    -1823459.00249  -1410587.78149  23319078.9024   23319086.0314
  23878863.080     1277436.03249    984915.90049  23878862.9554   23878869.3234
  24287816.922    -1039060.83349   -804699.39749  24287817.1544   24287824.3834
  22084431.615     -301931.08149   -232140.43149  22084432.0734   22084437.9374
  23435602.898     2764219.55249   2134432.09549  23435603.6164   23435609.6204
  24659247.079     1755132.422 9   1355237.607 9  24659246.832    24659252.555
  22121194.337    -1302471.32349   -889133.48949  22121194.9454   22121200.5834
  20816048.300     1464964.52149   1012562.98649  20816048.5574   20816053.9494
 96  4 20 15 38  0.0000000  0  9 19  2  3 16 31 29 28 27 18
  20736306.429      -21599.38749    -16484.14649  20736307.3424   20736312.1904
  23306554.585    -1889273.57249  -1461871.85449  23306554.9624   23306561.3324
  23889030.638     1330870.04249   1026552.77249  23889031.5624   23889037.1184
  24281291.887    -1073350.41349   -831418.53949  24281293.1374   24281299.6334
  22083573.307     -306445.41349   -235658.08249  22083573.4514   22083578.4784
  23455731.794     2869993.75049   2216853.50249  23455732.2474   23455737.7574
  24672736.019     1826018.747 9   1410473.676 9  24672736.149    24672741.804
  22111975.770    -1350915.32049   -926882.04949  22111976.3384   22111981.6764
  20827538.267     1525350.35249   1059616.86349  20827539.2544   20827544.9684
 96  4 20 15 38 30.0000000  0  9 19  2  3 16 31 29 28 27 18
  20736471.019      -20732.20849    -15808.42449  20736472.0664   20736477.4904
  23294070.627    -1954878.10449  -1512992.26049  23294070.7074   23294077.4714
  23899291.957     1384794.39749   1068571.72849  23899292.1904   23899299.1544
  24274855.835    -1107173.59449   -857774.27249  24274856.4464   24274863.6574
  22082821.934     -310391.64949   -238733.06549  22082822.3724   22082828.0204
  23475899.055     2975971.91249   2299433.83649  23475899.1564   23475904.3514
  24686301.894     1897310.080 9   1466025.340 9  24686302.365    24686308.430
  22102765.874    -1399315.60149   -964596.53949  22102765.9184   22102771.6544
  20839108.395     1586145.84149   1106989.95349  20839108.4224   20839114.1474
 96  4 20 15 39  0.0000000  0  9 19  2  3 16 31 29 28 27 18
  20736663.159      -19724.37249    -15023.10249  20736663.9314   20736669.1234
  23281625.969    -2020276.00849  -1563951.65749  23281626.1244   23281632.5294
  23909643.115     1439187.63549   1110956.04749  23909643.2654   23909649.6384
  24268508.996    -1140524.75549   -883762.19449  24268510.4324   24268517.2024
  22082178.086     -313775.96049   -241370.18549  22082178.6134   22082183.8874
  23496102.513     3082145.03849   2382166.08149  23496103.2104   23496108.7004
  24699944.866     1969005.049 9   1521891.530 9  24699945.720    24699951.520
  22093563.677    -1447671.46149  -1002276.41249  22093564.2894   22093569.5614
  20850754.197     1647344.40949   1154677.12749  20850754.3404   20850760.1884
 96  4 20 15 39 30.0000000  0  9 19  2  3 16 31 29 28 27 18
  20736881.164      -18575.38749    -14127.79449  20736882.5054   20736887.9354
  23269218.601    -2085474.46349  -1614755.64249  23269218.9324   23269225.3124
  23920071.464     1493991.37549   1153660.23849  23920072.5054   23920078.0914
  24262248.422    -1173429.92449   -909402.57749  24262248.4884   24262256.3024
  22081637.168     -316617.54849   -243584.40549  22081637.5924   22081642.9364
  23516341.889     3188504.64149   2465043.63849  23516343.2274   23516347.2434
  24713661.806     2041085.969 9   1578058.462 9  24713662.295    24713668.420
  22084366.465    -1496001.11349  -1039935.85849  22084367.3264   22084373.7054
  20862473.502     1708931.59349   1202667.13049  20862474.1014   20862479.7984
 96  4 20 15 40  0.0000000  0  9 19  2  3 16 31 29 28 27 18
  20737127.923      -17280.71749    -13118.96949  20737128.8764   20737134.2164
  23256844.661    -2150499.31249  -1665424.35049  23256845.0704   23256851.4084
  23930576.134     1549192.57749   1196674.14149  23930577.2254   23930582.2914
  24256068.251    -1205904.03249   -934707.07449  24256067.9694   24256077.0084
  22081195.679     -318938.56849   -245392.99049  22081196.0484   22081201.3304
  23536612.929     3295030.74249   2548050.93849  23536613.7304   23536619.6694
  24727449.333     2113541.868 9   1634517.575 9  24727450.070    24727456.434
  22075173.680    -1544308.50449  -1077577.97149  22075174.5744   22075181.4294
  20874268.025     1770915.12149   1250965.97149  20874268.9844   20874274.7224
 96  4 20 15 40 30.0000000  0  9 19  2  3 16 31 29 28 27 18
  20737406.023      -15818.59549    -11979.65349  20737407.1714   20737412.6314
  23244502.307    -2215357.33149  -1715963.06549  23244502.9654   23244509.4094
  23941155.028     1604789.76849   1239996.61449  23941156.8514   23941162.4964
  24249969.284    -1237956.99149   -959683.42149  24249969.8464   24249977.5034
  22080850.269     -320753.96949   -246807.58749  22080850.6214   22080855.8414
  23556913.655     3401711.37649   2631178.64749  23556914.0494   23556921.1694
  24741307.725     2186367.714 9   1691264.964 9  24741308.382    24741314.419
  22065986.130    -1592590.96949  -1115200.66449  22065986.9854   22065993.3654
  20886140.279     1833300.39149   1299577.85449  20886140.5944   20886146.2244
 96  4 20 15 41  0.0000000  0  9 19  2  3 16 31 29 28 27 18
  20737718.426      -14179.79849    -10702.67749  20737719.3264   20737724.5634
  23232195.273    -2280032.51849  -1766359.31449  23232195.4934   23232202.0924
  23951812.989     1660797.76449   1283639.18049  23951813.6974   23951820.2164
  24243952.416    -1269575.99749   -984321.63149  24243953.0594   24243959.9574
  22080602.133     -322058.33349   -247823.97249  22080602.2174   22080607.6674
  23577246.995     3508564.41449   2714440.70849  23577247.4514   23577254.0594
  24755238.508     2259571.608 9   1748306.937 9  24755238.565    24755244.624
  22056805.232    -1640838.81349  -1152796.37449  22056805.7354   22056811.7724
  20898092.355     1896110.71649   1348520.94749  20898093.1654   20898098.6994
 96  4 20 15 41 30.0000000  0  9 19  2  3 16 31 29 28 27 18
  20738062.788      -12368.70649     -9291.44349  20738063.7704   20738069.0874
  23219924.083    -2344518.22349  -1816607.91349  23219924.1784   23219930.8664
  23962555.820     1717245.37749   1327624.31949  23962556.2584   23962560.8074
  24238019.636    -1300755.62649  -1008617.46649  24238020.6024   24238026.4324
  22080452.782     -322841.57949   -248434.29249  22080453.1324   22080458.6904
  23597614.885     3615595.79549   2797841.72849  23597615.8044   23597621.7114
  24769240.582     2333154.138 9   1805643.950 9  24769241.087    24769246.805
  22047632.763    -1689040.34849  -1190356.00449  22047632.9404   22047638.4684
  20910128.927     1959364.07949   1397809.26349  20910129.6934   20910135.5684
 96  4 20 15 42  0.0000000  0  9 19  2  3 16 31 29 28 27 18
  20738440.784      -10382.13449     -7743.47449  20738441.8614   20738447.1084
  23207690.052    -2408806.60449  -1866702.75549  23207690.3344   23207696.7844
  23973387.657     1774167.11649   1371978.90749  23973387.8334   23973393.6944
  24232172.053    -1331482.38249  -1032560.41349  24232172.3694   24232179.5584
  22080406.684     -323079.58449   -248619.75349  22080407.5714   22080413.0864
  23618014.097     3722795.45949   2881373.87949  23618015.2394   23618021.0834
  24783317.120     2407125.279 9   1863283.765 9  24783317.185    24783323.215
  22038471.195    -1737179.79349  -1227867.25449  22038472.3214   22038477.8374
  20922250.222     2023059.93349   1447442.37849  20922250.7144   20922256.5994
 96  4 20 15 42 30.0000000  0  9 19  2  3 16 31 29 28 27 18
  20738851.047       -8226.04649     -6063.41249  20738852.2734   20738857.5444
  23195497.974    -2472873.70649  -1916625.17749  23195498.4414   23195505.1004
  23984307.118     1831559.65949   1416700.34749  23984309.6364   23984315.3384
  24226412.561    -1361743.90549  -1056140.81749  24226413.7224   24226421.0944
  22080468.673     -322759.16249   -248370.07949  22080469.0944   22080474.1194
  23638448.736     3830181.32949   2965051.13349  23638449.8934   23638456.2824
  24797468.127     2481491.127 9   1921231.145 9  24797468.819    24797474.388
  22029325.794    -1785240.92249  -1265317.48149  22029326.4134   22029332.4984
  20934453.392     2087188.53949   1497412.70249  20934454.2334   20934459.9474
 96  4 20 15 43  0.0000000  0  9 19  2  3 16 31 29 28 27 18
  20739286.372       -5940.27049     -4282.29449  20739287.0384   20739292.4744
  23183344.519    -2536739.86549  -1966391.01549  23183345.4424   23183351.6174
  23995315.043     1889400.27049   1461770.92949  23995316.1494   23995321.0534
  24220740.473    -1391559.39849  -1079373.67949  24220740.0674   24220747.7174
  22080633.610     -321890.33849   -247693.07249  22080634.1354   22080639.3204
  23658916.098     3937736.66049   3048860.43849  23658916.9644   23658922.9804
  24811690.475     2556229.952 9   1979469.165 9  24811691.531    24811696.295
  22020191.964    -1833240.99549  -1302720.13349  22020192.8324   22020198.5854
  20946733.806     2151720.75049   1547697.52349  20946734.4754   20946740.2714
 96  4 20 15 43 30.0000000  0  9 19  2  3 16 31 29 28 27 18
  20739749.959       -3503.31649     -2383.37249  20739750.9584   20739756.4474
  23171232.000    -2600393.79749  -2015991.48149  23171233.0474   23171238.7014
  24006412.830     1947713.39549   1507209.71249  24006412.2864   24006417.8114
  24215153.027    -1420913.60649  -1102247.09649  24215153.4284   24215161.5454
  22080907.551     -320451.35149   -246571.78749  22080907.9854   22080913.7354
  23679418.475     4045474.39249   3132811.85949  23679418.9334   23679425.0704
  24825987.402     2631358.394 9   2038010.779 9  24825987.847    24825993.114
  22011072.919    -1881163.68749  -1340062.49249  22011073.4944   22011078.9464
  20959090.720     2216655.05249   1598295.66049  20959090.9194   20959096.8724
 96  4 20 15 44  0.0000000  0  9 19  2  3 16 31 29 28 27 18
  20740241.236        -919.32949      -369.87649  20740242.6614   20740248.1854
  23159160.581    -2663833.28649  -2065424.84749  23159161.0214   23159166.9244
  24017596.195     2006485.58249   1553006.19449  24017596.1004   24017602.0344
  24209656.467    -1449805.60349  -1124760.36049  24209655.9294   24209663.4144
  22081289.625     -318449.07049   -245011.57149  22081289.1844   22081294.3634
  23699955.236     4153397.58349   3216907.80449  23699956.5494   23699962.9074
  24840357.143     2706876.290 9   2096855.854 9  24840358.226    24840363.964
  22001968.470    -1929007.48249  -1377343.36749  22001969.0074   22001974.7264
  20971524.395     2281998.80049   1649212.85449  20971525.2024   20971531.2084
 96  4 20 15 44 30.0000000  0  9 19  2  3 16 31 29 28 27 18
  20740759.988        1805.05749      1753.02349  20740760.9944   20740766.7714
  23147126.639    -2727072.43949  -2114702.09949  23147126.7824   23147132.9964
  24028862.459     2065702.12849   1599148.93449  24028864.7094   24028870.9574
  24204244.973    -1478236.17449  -1146914.06349  24204246.2644   24204253.5154
  22081775.146     -315895.54849   -243021.81549  22081775.1754   22081780.3424
  23720529.750     4261519.65349   3301158.71649  23720531.1114   23720537.5894
  24854800.905     2782777.567 9   2155999.675 9  24854802.035    24854807.608
  21992879.148    -1976773.58849  -1414563.70549  21992879.6604   21992885.3754
  20984040.722     2347771.79349   1700464.52249  20984041.7594   20984047.6004
 96  4 20 15 45  0.0000000  0  9 19  2  3 16 31 29 28 27 18
  20741304.364        4667.38949      3983.40749  20741305.6544   20741311.4284
  23135128.547    -2790121.58849  -2163831.29949  23135128.9454   23135135.1864
  24040221.564     2125384.70949   1645654.80949  24040222.5394   24040227.9764
  24198924.083    -1506204.01449  -1168707.19849  24198924.4244   24198931.6324
  22082364.851     -312793.11749   -240604.33749  22082365.4254   22082370.4254
  23741141.405     4369829.96349   3385556.28549  23741142.0864   23741148.5594
  24869318.224     2859060.937 9   2215441.240 9  24869318.394    24869323.767
  21983803.842    -2024461.73149  -1451723.30249  21983804.3964   21983810.4504
  20996640.331     2413983.78349   1752058.26549  20996641.3124   20996646.9094
 96  4 20 15 45 30.0000000  0  9 19  2  3 16 31 29 28 27 18
  20741874.437        7663.36049      6317.92649  20741875.8974   20741881.4874
  23123168.479    -2852969.60049  -2212803.76649  23123169.2044   23123175.4654
  24051666.731     2185524.83349   1692517.22849  24051667.3864   24051672.3454
  24193689.779    -1533709.28649  -1190139.88649  24193689.0574   24193697.2364
  22083059.141     -309143.72049   -237760.64949  22083059.6254   22083065.1254
  23761786.900     4478320.00149   3470093.92749  23761787.0434   23761793.3074
  24883905.478     2935722.356 9   2275177.388 9  24883906.310    24883911.962
  21974744.485    -2072066.62349  -1488818.02349  21974745.2104   21974751.6274
  21009324.947     2480641.83049   1803999.58049  21009325.7244   21009331.6794
 96  4 20 15 46  0.0000000  0  9 19  2  3 16 31 29 28 27 18
  20742470.868       10796.03849      8758.97049  20742472.1854   20742477.6774
  23111248.514    -2915608.33849  -2261613.17249  23111248.8864   23111255.9304
  24063194.169     2246105.49049   1739722.90549  24063194.1794   24063200.3944
  24188543.745    -1560755.48749  -1211214.86349  24188542.8284   24188551.1244
  22083859.394     -304938.75249   -234484.05849  22083859.7084   22083865.2114
  23782464.374     4586987.28849   3554769.68349  23782466.6084   23782471.6884
  24898566.021     3012760.030 9   2335206.720 9  24898566.032    24898572.056
  21965703.189    -2119580.11149  -1525841.52249  21965704.0174   21965709.9604
  21022096.453     2547755.43649   1856295.87649  21022097.0094   21022102.6934
 96  4 20 15 46 30.0000000  0  9 19  2  3 16 31 29 28 27 18
  20743095.130       14077.39049     11315.86949  20743096.3014   20743102.0944
  23099369.670    -2978033.79649  -2310256.37949  23099370.2364   23099377.6254
  24074804.703     2307127.03649   1787272.14449  24074806.7524   24074813.0284
  24183480.954    -1587349.92549  -1231937.78049  24183483.2594   24183490.8344
  22084766.720     -300173.06049   -230770.54149  22084766.8134   22084772.3474
  23803173.507     4695812.87849   3639568.78649  23803174.6074   23803180.4974
  24913295.867     3090169.805 9   2395526.007 9  24913296.538    24913302.647
  21956679.347    -2167002.03949  -1562793.66949  21956680.0244   21956685.5704
  21034949.666     2615299.14949   1908927.31949  21034950.3304   21034955.8584
 96  4 20 15 47  0.0000000  0  9 19  2  3 16 31 29 28 27 18
  20743751.611       17525.09949     14002.38849  20743752.5094   20743758.1154
  23087536.558    -3040219.60749  -2358712.85949  23087537.1224   23087543.6884
  24086502.594     2368594.21149   1835168.61749  24086503.6014   24086508.8994
  24178509.319    -1613486.41449  -1252303.87949  24178509.1144   24178516.2314
  22085781.545     -294838.39349   -226613.66749  22085781.7234   22085787.8194
  23823910.054     4804784.04749   3724481.32949  23823911.7864   23823916.7074
  24928097.190     3167952.747 9   2456136.079 9  24928098.239    24928104.121
  21947670.972    -2214343.32249  -1599682.97249  21947671.5544   21947676.8934
  21047880.483     2683252.62349   1961878.06049  21047881.1004   21047886.8534
 96  4 20 15 47 30.0000000  0  9 19  2  3 16 31 29 28 27 18
  20744446.501       21177.70349     16848.57149  20744447.3294   20744453.0944
  23075752.109    -3102149.56549  -2406969.96549  23075751.9824   23075759.0924
  24098282.909     2430497.01549   1883404.54449  24098283.1914   24098288.9074
  24173622.704    -1639158.19449  -1272307.85549  24173623.5024   24173630.1854
  22086907.451     -288917.60649   -222000.06649  22086908.3304   22086914.1694
  23844677.104     4913915.07749   3809518.43549  23844678.8004   23844683.1774
  24942972.384     3246116.867 9   2517043.186 9  24942972.333    24942978.610
  21938677.111    -2261605.11449  -1636510.33249  21938677.8494   21938683.7254
  21060891.031     2751623.23349   2015153.84149  21060891.8654   21060897.4904
 96  4 20 15 48  0.0000000  0  9 19  2  3 16 31 29 28 27 18
  20745181.284       25040.14349     19858.25349  20745182.3074   20745188.1104
  23064011.599    -3163845.69149  -2455044.86049  23064011.9904   23064019.1034
  24110145.126     2492832.35449   1931977.50849  24110145.6894   24110150.6954
  24168826.540    -1664368.14749  -1291951.98549  24168826.5714   24168833.3824
  22088142.905     -282427.63949   -216942.95349  22088143.4354   22088149.3284
  23865471.669     5023187.60049   3894665.79049  23865472.1594   23865477.9944
  24957915.697     3324649.109 9   2578237.121 9  24957916.219    24957923.037
  21929693.178    -2308816.42649  -1673298.36449  21929693.8354   21929699.9494
  21073976.992     2820390.56949   2068738.76249  21073977.6254   21073983.2094
 96  4 20 15 48 30.0000000  0  9 19  2  3 16 31 29 28 27 18
  20745959.682       29128.79949     23044.21549  20745960.5704   20745966.1674
  23052319.459    -3225287.21749  -2502921.36849  23052319.9624   23052326.7144
  24122094.398     2555633.62549   1980913.52649  24122095.1944   24122102.0034
  24164123.317    -1689080.74749  -1311208.55949  24164124.3874   24164131.0654
  22089489.492     -275352.42949   -211429.80449  22089489.8934   22089496.1264
  23886295.181     5132620.64849   3979938.23849  23886296.6194   23886301.5224
  24972933.433     3403569.203 9   2639733.285 9  24972934.198    24972941.251
  21920720.779    -2355968.31249  -1710040.09149  21920721.2374   21920726.6304
  21087140.871     2889570.33149   2122645.05549  21087142.1074   21087147.6124
 96  4 20 15 49  0.0000000  0  8 19  2  3 16 31 29 27 18
  20746776.900       33425.66249     26392.41449  20746778.3114   20746783.8564
  23040670.426    -3286500.00249  -2550619.63549  23040671.2444   23040678.1734
  24134129.399     2618875.14749   2030192.60649  24134130.2244   24134136.0794
  24159514.095    -1713300.20849  -1330080.88549  24159515.0964   24159521.2344
  22090945.041     -267704.97849   -205470.75649  22090945.2534   22090951.2294
  23907151.643     5242220.05749   4065340.30849  23907152.7254   23907159.2964
  21911756.019    -2403075.71849  -1746747.15649  21911756.7274   21911762.6064
  21100383.058     2959158.42549   2176869.52449  21100384.4414   21100390.1844
 96  4 20 15 49 30.0000000  0  8 19  2  3 16 31 29 27 18
  20747634.018       37928.44249     29901.06749  20747635.0414   20747640.5874
  23029064.150    -3347492.34649  -2598146.12649  23029065.1924   23029071.8774
  24146248.987     2682558.24449   2079815.75949  24146249.1274   24146253.9644
  24155000.535    -1737021.77149  -1348565.23749  24155000.3984   24155007.2644
  22092510.853     -259474.96349   -199057.76149  22092511.3954   22092517.3034
  23928041.009     5351999.73849   4150882.85749  23928042.7664   23928049.6584
  21902806.232    -2450107.75549  -1783395.49549  21902807.1454   21902813.0674
  21113707.527     3029175.20349   2231428.03049  21113708.3804   21113713.9514
 96  4 20 15 50  0.0000000  0  8 19  2  3 16 31 29 27 18
  20748525.309       42612.69949     33551.13149  20748526.3214   20748532.0254
  23017499.493    -3408266.09249  -2645502.27949  23017500.3084   23017506.8464
  24158450.123     2746678.92749   2129779.91349  24158450.3714   24158456.8254
  24150580.908    -1760246.46849  -1366662.41449  24150581.4664   24150589.0184
  22094187.585     -250667.02249   -192194.43749  22094187.3714   22094193.2794
  23948963.823     5461952.72249   4236560.44549  23948966.7124   23948972.2414
  21893873.368    -2497048.66849  -1819972.82749  21893874.1874   21893879.9424
  21127110.920     3099608.47349   2286311.06749  21127111.4054   21127117.1694
 96  4 20 15 50 30.0000000  0  8 19  2  3 16 31 29 27 18
  20749447.659       47461.27249     37329.23049  20749448.9024   20749454.5294
  23005973.966    -3468835.84249  -2692699.47849  23005973.9364   23005980.3054
  24170731.941     2811221.89749   2180073.10649  24170733.2864   24170739.0234
  24146252.548    -1782984.94149  -1384380.72149  24146253.6784   24146261.5804
  22095971.803     -241291.97749   -184889.21749  22095972.0384   22095977.5484
  23969921.729     5572079.28949   4322373.29249  23969922.6294   23969929.5224
  21884960.903    -2543885.15949  -1856468.78949  21884961.4674   21884966.7994
  21140591.035     3170452.20449   2341513.95349  21140592.4744   21140598.4404
 96  4 20 15 51  0.0000000  0  8 19  2  3 16 31 29 27 18
  20750402.475       52477.32849     41237.83849  20750403.6874   20750409.0114
  22994485.757    -3529204.45549  -2739739.94549  22994486.0014   22994492.7894
  24183094.514     2876188.49649   2230696.41149  24183095.9074   24183102.0124
  24142020.078    -1805235.05449  -1401718.47149  24142020.5144   24142028.7704
  22097865.608     -231337.22949   -177132.27449  22097866.4324   22097871.7804
  23990912.128     5682383.43549   4408324.51949  23990913.5644   23990920.0974
  21876071.529    -2590597.81149  -1892868.25749  21876072.4324   21876078.0464
  21154151.926     3241712.75849   2397041.63849  21154152.8204   21154159.3564
 96  4 20 15 51 30.0000000  0  8 19  2  3 16 31 29 27 18
  20751387.533       57653.52949     45271.23349  20751388.9274   20751394.2434
  22983039.557    -3589352.96949  -2786608.91449  22983040.4124   22983046.7534
  24195543.163     2941605.29649   2281670.51649  24195544.6104   24195549.2554
  24137878.822    -1826994.52049  -1418673.91349  24137880.3804   24137887.2764
  22099871.475     -220794.93149   -168917.49549  22099872.4834   22099877.8064
  24011935.009     5792859.53849   4494409.73149  24011936.1704   24011942.6384
  21867209.256    -2637168.20849  -1929156.87649  21867210.2674   21867216.3804
  21167793.246     3313397.41249   2452899.78649  21167794.0954   21167800.1604
 96  4 20 15 52  0.0000000  0  8 19  2  3 16 31 29 27 18
  20752399.111       62969.41049     49413.47149  20752400.2474   20752405.5354
  22971633.277    -3649293.95949  -2833316.16949  22971634.0604   22971640.7894
  24208077.887     3007476.08749   2332998.37749  24208078.7074   24208083.9334
  24133830.603    -1848279.79049  -1435259.83749  24133829.3104   24133836.6234
  22101985.356     -209687.17049   -160262.09249  22101986.2454   22101991.0384
  24032986.750     5903486.45449   4580612.47049  24032988.1364   24032994.4834
  21858368.610    -2683625.66049  -1965357.48049  21858369.7964   21858376.0824
  21181511.159     3385487.24849   2509073.66349  21181512.2604   21181518.2244
 96  4 20 15 52 30.0010000  0  8 19  2  3 16 31 29 27 18
  20753439.404       68436.49249     53673.52849  20753440.5244   20753445.8974
  22960268.316    -3709013.92449  -2879851.20549  22960269.3964   22960276.5734
  24220703.746     3073824.52749   2384698.43449  24220705.2894   24220710.7994
  24129872.169    -1869077.95649  -1451466.20349  24129872.5794   24129878.4934
  22104209.091     -197999.59449   -151154.88949  22104210.0344   22104214.7114
  24054067.971     6014274.97649   4666941.13549  24054070.1734   24054075.8184
  21849547.216    -2729982.41149  -2001479.62349  21849547.9044   21849554.3684
  21195311.367     3458006.92849   2565582.48249  21195312.0364   21195318.2254
 96  4 20 15 53  0.0010000  0  8 19  2  3 16 31 29 27 18
  20754509.223       74060.21149     58055.64249  20754510.9384   20754516.1464
  22948951.623    -3768488.31549  -2926194.87949  22948952.2164   22948958.9824
  24233419.491     3140645.69549   2436766.86049  24233420.9244   24233426.5014
  24126004.581    -1889400.41349  -1467301.88349  24126004.3654   24126011.0774
  22106545.032     -185728.37949   -141592.90749  22106545.5004   22106550.4064
  24075180.245     6125221.02049   4753392.54349  24075182.4304   24075189.4894
  21840743.792    -2776245.49949  -2037528.77949  21840744.7084   21840750.6604
  21209192.078     3530948.64349   2622420.16349  21209192.5034   21209198.7364
 96  4 20 15 53 30.0010000  0  8 19  2  3 16 31 29 27 18
  20755609.537       79840.53349     62559.78249  20755610.7274   20755616.1764
  22937680.807    -3827718.47649  -2972348.25149  22937681.0664   22937687.5554
  24246221.954     3207923.43849   2489191.04649  24246222.4484   24246228.8674
  24122223.168    -1909268.04949  -1482783.17749  24122223.0564   24122231.4094
  22108986.892     -172892.79049   -131591.16049  22108987.7364   22108993.0084
  24096320.528     6236309.42749   4839954.88249  24096321.4294   24096328.9764
  21831954.083    -2822436.72849  -2073521.94849  21831954.7444   21831960.0454
  21223151.472     3604307.80849   2679583.12549  21223152.3274   21223158.6784
 96  4 20 15 54  0.0010000  0  8 19  2  3 16 31 29 27 18
  20756743.972       85803.13149     67205.95649  20756745.3944   20756751.1094
  22926454.417    -3886710.52049  -3018316.07349  22926454.8544   22926461.2704
  24259107.336     3275633.51349   2541952.12649  24259107.4564   24259113.7834
  24118530.610    -1928673.00549  -1497903.92849  24118531.2724   24118538.2344
  22111536.886     -159490.86149   -121148.09949  22111538.3304   22111543.5374
  24117487.523     6347543.37049   4926630.61249  24117488.4644   24117495.6134
  21823174.658    -2868574.77149  -2109473.67349  21823175.0254   21823180.1484
  21237190.675     3678087.37449   2737073.67449  21237191.8354   21237198.8034
 96  4 20 15 54 30.0010000  0  8 19  2  3 16 31 29 27 18
  20757921.532       91990.14349     72027.00049  20757922.7314   20757928.5134
  22915279.102    -3945433.80849  -3064074.47249  22915280.0184   22915286.4164
  24272074.529     3343775.91649   2595050.09549  24272074.2034   24272080.5654
  24114931.792    -1947574.33549  -1512632.25749  24114932.8674   24114940.9494
  22114203.144     -145483.58449   -110233.34349  22114203.6654   22114209.2004
  24138689.658     6458958.39149   5013447.45849  24138690.0924   24138696.5944
  21814412.407    -2914618.92949  -2145352.24349  21814413.1264   21814418.4634
  21251315.199     3752307.48649   2794907.50149  21251316.1404   21251322.4784
 96  4 20 15 55  0.0010000  0  8 19  2  3 16 31 29 27 18
  20759137.368       98379.50249     77005.71749  20759138.7044   20759144.1494
  22904149.054    -4003927.28249  -3109653.79549  22904149.2174   22904156.0324
  24285115.236     3412310.32349   2648453.50549  24285117.6664   24285123.2344
  24111429.269    -1965990.55949  -1526982.56949  24111429.9434   24111437.9754
  22116977.973     -130900.95949    -98870.26749  22116978.3034   22116983.9024
  24159922.811     6570534.70849   5100389.96549  24159923.7604   24159929.2864
  21805666.614    -2960578.21149  -2181164.67149  21805667.7404   21805673.0064
  21265516.690     3826934.25749   2853058.20949  21265517.3674   21265523.2524
 96  4 20 15 55 30.0010000  0  8 19  2  3 16 31 29 27 18
  20760393.403      104981.09349     82149.80949  20760394.8044   20760400.2794
  22893060.955    -4062196.85749  -3155058.65449  22893061.2184   22893067.9264
  24298234.819     3481251.72049   2702174.04549  24298236.0894   24298241.6674
  24108023.871    -1983883.83749  -1540925.39749  24108024.1064   24108032.7034
  22119865.643     -115724.79049    -87044.69349  22119866.3734   22119871.8114
  24181186.255     6682271.91949   5187457.84749  24181186.6754   24181191.1024
  21796938.108    -3006445.00549  -2216905.02949  21796939.0914   21796944.7304
  21279797.821     3901981.93049   2911536.89049  21279798.4594   21279804.3414
 96  4 20 15 56  0.0010000  0  8 19  2  3 16 31 29 27 18
  20761692.316      111805.80249     87467.75849  20761693.5774   20761699.1774
  22882017.141    -4120230.35249  -3200279.54749  22882017.7214   22882024.4184
  24311434.884     3550618.03249   2756225.68649  24311436.4984   24311441.8014
  24104724.215    -2001229.82749  -1554441.76249  24104724.3534   24104732.4494
  22122869.548      -99940.92449    -74745.58349  22122870.0264   22122875.3564
  24202483.728     6794192.96449   5274668.98449  24202484.2074   24202490.5174
  21788232.470    -3052196.22049  -2252555.32549  21788233.1004   21788238.6434
  21294158.564     3977451.58249   2970344.39149  21294159.6914   21294165.6444
 96  4 20 15 56 30.0010000  0  8 19  2  3 16 31 29 27 18
  20763031.508      118843.48849     92951.66249  20763032.7614   20763038.3134
  22871019.968    -4178017.89549  -3245308.80549  22871021.1964   22871028.1384
  24324716.627     3620413.97149   2810612.12149  24324718.0574   24324723.2774
  24101525.407    -2018029.03749  -1567532.06249  24101527.5684   24101534.0834
  22125986.845      -83559.71049    -61981.00649  22125987.1374   22125993.0354
  24223816.016     6906294.49849   5362020.76049  24223816.7274   24223822.6174
  21779550.339    -3097822.07049  -2288107.93049  21779550.9674   21779556.9354
  21308597.889     4053330.22749   3029470.58149  21308598.9184   21308604.8304
 96  4 20 15 57  0.0010000  0  8 19  2  3 16 31 29 27 18
  20764407.443      126076.30249     98587.61449  20764409.0584   20764414.6864
  22860069.266    -4235563.89349  -3290149.84549  22860070.2994   22860077.6824
  24338080.830     3690642.43949   2865335.57349  24338081.3004   24338087.2084
  24098430.109    -2034305.30549  -1580214.89049  24098430.4554   24098436.3084
  22129214.660      -66598.79949    -48764.72549  22129214.9094   22129220.8284
  24245178.317     7018555.97549   5449497.16849  24245178.4924   24245184.1894
  21770888.424    -3143338.38449  -2323575.17249  21770889.3654   21770895.4754
  21323114.152     4129610.93649   3088910.06649  21323114.6514   21323120.5414
 96  4 20 15 57 30.0010000  0  8 19  2  3 16 31 29 27 18
  20765819.814      133494.59249    104368.09249  20765820.9024   20765826.0674
  22849166.187    -4292863.16949  -3334798.63449  22849167.0594   22849173.8174
  24351522.830     3761282.24049   2920379.54249  24351523.2644   24351530.1934
  24095426.112    -2050091.91249  -1592516.15249  24095425.2584   24095432.1234
  22132547.807      -49078.30549    -35112.40449  22132548.8954   22132554.5504
  24266566.606     7130948.59449   5537075.76249  24266567.3044   24266572.8634
  21762244.727    -3188762.23849  -2358970.37049  21762245.5884   21762251.6954
  21337702.251     4206271.76749   3148645.74649  21337703.0684   21337708.7754
 96  4 20 15 58  0.0010000  0  8 19  2  3 16 31 29 27 18
  20767269.588      141113.69749    110305.05249  20767270.6344   20767276.3264
  22838314.907    -4349888.01449  -3379233.57949  22838315.4944   22838322.1624
  24365045.205     3832343.13349   2975751.63249  24365046.0744   24365051.6354
  24092514.070    -2065394.55449  -1604440.28149  24092514.8124   24092521.7174
  22135989.889      -30989.98149    -21017.61849  22135990.8794   22135996.6354
  24287981.146     7243491.29349   5624771.31649  24287982.9334   24287988.2074
  21753623.946    -3234063.77449  -2394270.25749  21753624.9314   21753631.0014
  21352365.518     4283328.16449   3208689.66649  21352366.3594   21352372.3364
 96  4 20 15 58 30.0010000  0  8 19  2  3 16 31 29 27 18
  20768755.325      148921.48649    116389.03949  20768756.5364   20768762.1644
  22827512.212    -4406657.10449  -3423469.22849  22827512.6984   22827519.3214
  24378645.684     3903809.91849   3031440.00049  24378646.2284   24378652.2144
  24089689.360    -2080233.37749  -1616003.00549  24089689.9414   24089696.3914
  22139538.002      -12342.93849     -6487.47149  22139539.4334   22139545.3254
  24309420.236     7356157.82249   5712563.35449  24309422.6124   24309428.6024
  21745023.567    -3279260.36549  -2429488.37749  21745024.2714   21745030.3694
  21367102.890     4360772.54449   3269035.91149  21367103.4744   21367109.3354
 96  4 20 15 59  0.0010000  0  8 19  2  3 16 31 29 27 18
  20770281.558      156940.90749    122637.93449  20770282.4904   20770287.7294
  22816759.804    -4463159.93849  -3467497.40849  22816760.6424   22816767.1814
  24392326.541     3975708.00449   3087464.44749  24392328.5844   24392333.7594
  24086957.307    -2094597.43549  -1627195.79349  24086957.9914   24086963.4044
  22143199.073        6894.23449      8502.51549  22143199.8974   22143206.2484
  24330888.318     7468967.23649   5800466.72449  24330889.4114   24330896.5184
  21736447.107    -3324329.32449  -2464607.04549  21736448.0484   21736453.8724
  21381919.100     4438634.94249   3329707.88549  21381919.8454   21381925.8654
 96  4 20 15 59 30.0010000  0  8 19  2  3 16 31 29 27 18
  20771848.052      165174.54549    129053.75049  20771849.4434   20771854.7054
  22806058.204    -4519397.71149  -3511319.04249  22806058.6434   22806065.4194
  24406090.908     4048035.69849   3143823.64649  24406091.4634   24406096.2994
  24084315.113    -2108477.20849  -1638011.19949  24084316.1304   24084322.3244
  22146972.888       26724.68749     23954.79849  22146973.6394   22146979.6264
  24352381.245     7581912.91049   5888476.25349  24352382.3274   24352389.9944
  21727895.261    -3369269.21049  -2499625.14149  21727896.2344   21727901.9994
  21396815.732     4516918.63449   3390708.14349  21396816.5684   21396822.5164
 96  4 20 16  0  0.0010000  0  8 19  2  3 16 31 29 27 18
  20773453.630      173610.45649    135627.18349  20773454.8464   20773460.2654
  22795402.263    -4575395.47049  -3554953.65249  22795402.6124   22795409.5534
  24419936.884     4120796.75349   3200520.53949  24419937.2064   24419942.2264
  24081766.701    -2121866.30049  -1648444.27049  24081767.7624   24081774.4514
  22150861.308       47156.42049     39875.61549  22150862.1364   22150867.5934
  24373898.856     7694990.65349   5976588.69249  24373901.2884   24373906.5124
  21719366.634    -3414086.06149  -2534547.37049  21719367.8194   21719373.2754
  21411792.606     4595622.14949   3452035.53649  21411793.6224   21411799.6824
 96  4 20 16  0 30.0010000  0  8 19  2  3 16 31 29 27 18
  20775098.981      182257.70949    142365.29949  20775100.3434   20775105.6424
  22784791.339    -4631153.31549  -3598401.31749  22784792.5694   22784799.5444
  24433866.364     4193999.61549   3257561.70049  24433867.4804   24433874.2104
  24079317.694    -2134737.21049  -1658473.54949  24079319.1494   24079325.8594
  22154866.571       68207.05049     56278.68549  22154867.4394   22154872.7764
  24395442.092     7808201.18649   6064804.61549  24395443.8684   24395451.1684
  21710860.603    -3458784.40249  -2569377.24949  21710861.8104   21710867.4694
  21426849.408     4674743.13949   3513688.22649  21426850.0344   21426856.2604
 96  4 20 16  1  0.0010000  0  8 19  2  3 16 31 29 27 18
  20776782.231      191102.30749    149257.18549  20776783.4564   20776788.8974
  22774228.164    -4686664.73649  -3641656.96549  22774229.0524   22774235.5804
  24447880.429     4267645.50449   3314948.06449  24447882.1304   24447888.6504
  24076969.222    -2147076.91749  -1668088.91649  24076970.2514   24076976.6794
  22158990.598       89876.40449     73163.86849  22158991.5544   22158996.5904
  24417011.993     7921548.40449   6153127.03549  24417013.2754   24417018.8734
  21702376.967    -3503367.45449  -2604117.29749  21702378.0814   21702383.4844
  21441984.934     4754280.71749   3575665.53049  21441985.9094   21441991.8504
 96  4 20 16  1 30.0010000  0  8 19  2  3 16 31 29 27 18
  20778503.363      200147.74349    156305.57049  20778504.7564   20778510.3494
  22763713.142    -4741923.75849  -3684715.93849  22763713.7294   22763719.8044
  24461979.750     4341732.60949   3372678.25849  24461980.4284   24461986.4004
  24074724.607    -2158876.53849  -1677283.42349  24074724.6934   24074732.2104
  22163230.818      112161.25849     90528.67249  22163231.9064   22163236.9804
  24438607.535     8035028.95449   6241553.35449  24438608.6784   24438614.9084
  21693914.057    -3547840.66749  -2638771.75149  21693914.9304   21693920.9144
  21457197.694     4834225.50149   3637960.14349  21457198.6524   21457204.7124
 96  4 20 16  2  0.0010000  0  8 19  2  3 16 31 29 27 18
  20780265.473      209408.29549    163521.57949  20780266.8404   20780272.4924
  22753245.008    -4796933.23049  -3727580.45249  22753245.5274   22753251.9734
  24476162.036     4416266.94849   3430756.92849  24476163.1024   24476169.3324
  24072584.773    -2170123.93249  -1686047.63249  24072584.4284   24072592.6064
  22167591.244      135077.28549    108385.29949  22167592.9394   22167598.2154
  24460232.414     8148670.10349   6330104.79649  24460234.1614   24460240.1634
  21685472.076    -3592202.65449  -2673339.53849  21685473.1034   21685479.2054
  21472488.824     4914581.13749   3700574.89949  21472489.8444   21472495.9374
 96  4 20 16  2 30.0010000  0  8 19  2  3 16 31 29 27 18
  20782062.633      218854.55449    170882.29649  20782064.1734   20782069.7484
  22742819.944    -4851713.76449  -3770266.57049  22742820.9744   22742827.6314
  24490424.565     4491214.78649   3489157.81449  24490425.1774   24490431.7744
  24070544.757    -2180841.27949  -1694398.83349  24070544.2904   24070552.8734
  22172065.020      158583.57149    126701.87249  22172065.5154   22172070.9954
  24481882.519     8262445.92549   6418761.19149  24481884.6934   24481891.1284
  21677046.052    -3636481.21949  -2707842.31449  21677047.1334   21677053.0544
  21487855.220     4995332.62549   3763498.11149  21487856.3464   21487862.2464
 96  4 20 16  3  0.0010000  0  8 19  2  3 16 31 29 27 18
  20783896.380      228487.90649    178388.79049  20783897.5914   20783903.0564
  22732439.488    -4906262.10949  -3812771.75749  22732440.7354   22732447.5434
  24504763.719     4566566.61149   3547873.49349  24504765.5004   24504771.2704
  24068600.594    -2191051.81949  -1702355.10349  24068601.9604   24068610.3474
  22176648.775      182669.60249    145470.19049  22176649.2544   22176654.5514
  24503561.901     8376368.10949   6507531.62949  24503562.9844   24503569.3064
  21668637.399    -3680669.97149  -2742275.11249  21668638.4444   21668644.4704
  21503298.702     5076486.77049   3826735.08249  21503299.4964   21503305.3324
 96  4 20 16  3 30.0010000  0  8 19  2  3 16 31 29 27 18
  20785766.849      238319.82849    186050.02249  20785768.6874   20785774.0304
  22722102.156    -4960589.15149  -3855104.51249  22722102.9414   22722109.7434
  24519173.668     4642292.17349   3606880.40049  24519175.4734   24519180.5224
  24066751.250    -2200770.74549  -1709928.30049  24066753.4484   24066760.8234
  22181342.099      207334.52149    164689.59849  22181342.3294   22181348.5094
  24525267.472     8490433.30149   6596413.50549  24525269.6144   24525275.5094
  21660246.718    -3724764.60249  -2776634.56449  21660247.6714   21660253.7544
  21518816.076     5158034.46449   3890278.70849  21518817.4794   21518823.3954
 96  4 20 16  4  0.0010000  0  8 19  2  3 16 31 29 27 18
  20787676.150      248352.01349    193867.30249  20787677.3504   20787683.1164
  22711808.592    -5014680.94049  -3897253.95049  22711809.6264   22711816.3274
  24533657.950     4718403.89849   3666188.20349  24533658.2404   24533664.4944
  24065000.164    -2209978.01149  -1717102.80949  24065001.5534   24065008.9654
  22186149.704      232601.87549    184378.43449  22186150.7284   22186156.2674
  24547002.527     8604648.08249   6685411.94549  24547003.8554   24547010.4484
  21651880.666    -3768727.66249  -2810891.48749  21651881.7144   21651887.7434
  21534414.766     5240003.30449   3954150.49949  21534415.5034   21534421.4484
 96  4 20 16  4 30.0010000  0  8 19  2  3 16 31 29 27 18
  20789622.236      258578.95449    201836.33749  20789623.4424   20789628.9884
  22701565.324    -5068512.39049  -3939200.53249  22701565.9294   22701572.1604
  24548215.463     4794909.74149   3725803.11149  24548217.3624   24548224.4824
  24063343.551    -2218679.21649  -1723882.97949  24063344.8864   24063353.0564
  22191071.841      258465.04349    204531.54749  22191072.4184   22191077.2674
  24568762.135     8718996.99149   6774514.91049  24568764.0304   24568770.0364
  21643545.520    -3812532.58449  -2845025.19249  21643546.1924   21643551.8824
  21550093.600     5322396.73549   4018353.13849  21550094.1854   21550100.1824
 96  4 20 16  5  0.0010000  0  8 19  2  3 16 31 29 27 18
  20791606.968      269010.42149    209964.74449  20791608.4814   20791614.0564
  22691374.409    -5122066.64549  -3980931.12049  22691374.9914   22691381.1754
  24562850.876     4871815.81549   3785729.89749  24562851.7314   24562858.1324
  24061785.626    -2226872.59549  -1730267.43349  24061785.6734   24061793.4594
  22196108.221      284933.81249    225156.55649  22196109.5964   22196114.7044
  24590547.999     8833479.07849   6863721.65049  24590548.4814   24590554.7134
  21635240.628    -3856172.50649  -2879030.31849  21635241.6574   21635247.3624
  21565848.995     5405195.52749   4082871.64949  21565850.1924   21565856.6304
 96  4 20 16  5 30.0010000  0  8 19  2  3 16 31 29 27 18
  20793628.789      279630.92349    218240.45449  20793629.9294   20793635.1484
  22681232.803    -5175357.29249  -4022456.29949  22681234.0604   22681240.1794
  24577562.275     4949124.62949   3845970.49549  24577563.1434   24577569.8964
  24060324.140    -2234552.79949  -1736252.02649  24060324.3744   24060331.0154
  22201258.810      311997.94849    246245.48449  22201259.7044   22201265.2384
  24612351.432     8948054.43149   6953001.06949  24612351.5234   24612357.5154
  21626966.550    -3899652.74749  -2912911.01549  21626967.5754   21626973.2854
  21581679.611     5488387.22849   4147696.32249  21581681.0254   21581687.6014
 96  4 20 16  6  0.0010000  0  8 19  2  3 16 31 29 27 18
  20795687.573      290450.53049    226671.30749  20795688.7904   20795694.1384
  22671147.664    -5228356.55949  -4063754.43849  22671148.3084   22671155.1864
  24592358.017     5026877.87749   3906557.40249  24592359.5314   24592365.2484
  24058964.182    -2241700.03449  -1741821.29349  24058963.9724   24058970.1684
  22206524.070      339664.26749    267803.64449  22206524.7634   22206530.4384
  24634171.976     9062727.65449   7042356.72949  24634173.4504   24634179.8614
  21618725.964    -3942956.05249  -2946653.84349  21618727.3074   21618733.0334
  21597587.625     5571980.38849   4212833.81949  21597588.4784   21597595.2224
 96  4 20 16  6 30.0010000  0  8 19  2  3 16 31 29 27 18
  20797788.874      301491.98849    235275.03149  20797790.0354   20797795.2824
  22661121.384    -5281044.47249  -4104809.94849  22661122.1844   22661128.7234
  24607239.334     5105078.85049   3967493.20449  24607240.1754   24607245.8144
  24057703.849    -2248315.62949  -1746976.31149  24057704.2064   24057710.9374
  22211903.164      367930.05649    289828.93349  22211903.5894   22211909.2154
  24656015.393     9177519.22049   7131804.61549  24656017.5574   24656023.5974
  21610515.263    -3986102.92749  -2980274.77649  21610516.2184   21610522.1644
  21613569.787     5655964.14149   4278275.67249  21613570.3474   21613576.6994
 96  4 20 16  7  0.0010000  0  8 19  2  3 16 31 29 27 18
  20799934.871      312771.81749    244064.50549  20799936.2394   20799941.6074
  22651152.893    -5333431.34149  -4145630.88049  22651153.4364   22651159.8374
  24622200.907     5183705.53349   4028760.72349  24622202.4264   24622208.4374
  24056545.189    -2254404.40649  -1751720.82649  24056547.0244   24056553.8044
  22217396.643      396801.23649    312325.95249  22217396.9724   22217402.9904
  24677883.752     9292437.95749   7221351.60449  24677884.9224   24677890.7164
  21602330.326    -4029114.24349  -3013790.07449  21602331.5614   21602337.3264
  21629624.586     5740334.66349   4344018.90849  21629625.5564   21629631.8534
 96  4 20 16  7 30.0010000  0  8 19  2  3 16 31 29 27 18
  20802126.510      324290.12349    253039.79349  20802128.1444   20802133.4644
  22641237.384    -5385535.01949  -4186231.13849  22641238.2034   22641244.9464
  24637241.297     5262743.26049   4090348.52449  24637243.0104   24637249.0024
  24055486.703    -2259979.12549  -1756064.77449  24055486.1924   24055493.9924
  22223005.536      426279.18649    335295.78049  22223006.5164   22223012.5584
  24699775.331     9407478.84849   7310993.74749  24699777.4604   24699783.0224
  21594170.644    -4071994.62149  -3047203.35749  21594171.4564   21594177.3644
  21645753.018     5825088.90149   4410061.13549  21645753.5704   21645760.1784
 96  4 20 16  8  0.0010000  0  8 19  2  3 16 31 29 27 18
  20804365.686      336054.75749    262207.03549  20804366.9694   20804372.3014
  22631379.736    -5437339.48149  -4226598.24449  22631380.1984   22631386.6984
  24652359.082     5342185.61149   4152251.62949  24652360.1834   24652366.7604
  24054521.381    -2265045.71749  -1760012.77249  24054520.7084   24054528.7214
  22228731.837      456370.53749    358743.58649  22228732.7274   22228738.1904
  24721695.177     9522670.48649   7400753.37749  24721697.0424   24721703.3394
  21586033.448    -4114753.94649  -3080522.30649  21586034.8904   21586039.9814
  21661954.791     5910228.26849   4476403.47249  21661955.6844   21661961.6764
 96  4 20 16  8 30.0010000  0  8 19  2  3 16 31 29 27 18
  20806652.484      348072.60349    271571.58549  20806653.9124   20806659.5844
  22621577.558    -5488850.88049  -4266736.98649  22621578.0474   22621584.3574
  24667551.773     5422024.55549   4214463.75849  24667553.2334   24667559.7194
  24053652.621    -2269604.38449  -1763564.98349  24053653.9974   24053661.7804
  22234575.489      487079.45549    382672.61849  22234576.4024   22234581.7284
  24743648.086     9638032.50249   7490645.78049  24743649.4224   24743656.6714
  21577920.219    -4157393.79549  -3113748.15849  21577920.7144   21577926.0694
  21678234.002     5995778.78349   4543066.18349  21678235.0784   21678241.2874
 96  4 20 16  9  0.0010000  0  8 19  2  3 16 31 29 27 18
  20808976.343      360282.31949    281085.64249  20808977.5154   20808983.0834
  22611815.988    -5540146.92849  -4306707.92149  22611816.7274   22611822.9234
  24682811.539     5502211.51049   4276947.07649  24682811.7024   24682819.0964
  24052873.960    -2273699.59549  -1766756.04549  24052875.2544   24052883.2814
  22240525.532      518348.24149    407037.90549  22240526.6204   22240532.0564
  24765619.002     9753495.31849   7580616.71649  24765620.6684   24765627.5794
  21569822.262    -4199947.91949  -3146907.21449  21569823.2764   21569828.9794
  21694582.092     6081688.70449   4610008.95249  21694583.0674   21694589.6164
 96  4 20 16  9 30.0010000  0  8 19  2  3 16 31 29 27 18
  20811338.609      372699.13249    290761.07249  20811340.1554   20811346.0144
  22602100.555    -5591199.93849  -4346489.48049  22602101.0764   22602107.6364
  24698144.204     5582786.95749   4339733.10649  24698145.0324   24698152.3444
  24052192.310    -2277287.02249  -1769551.45149  24052192.7164   24052200.6034
  22246586.921      550196.21949    431854.50749  22246587.3664   22246592.9364
  24787613.830     9869081.95549   7670684.12849  24787617.3194   24787624.3374
  21561748.454    -4242376.96649  -3179968.81249  21561749.4144   21561755.3244
  21711004.589     6167990.07049   4677256.73649  21711005.6004   21711012.2234
 96  4 20 16 10  0.0010000  0  8 19  2  3 16 31 29 27 18
  20813740.725      385322.51249    300597.46549  20813742.2764   20813748.0094
  22592432.860    -5642002.84549  -4386076.15449  22592433.9224   22592440.4074
  24713551.997     5663757.23849   4402826.79649  24713553.4314   24713560.1654
  24051608.833    -2280352.42649  -1771940.10649  24051609.0244   24051615.4704
  22252756.059      582613.72149    457114.88749  22252756.2904   22252761.6484
  24809636.796     9984800.81849   7760854.55649  24809637.7434   24809645.2404
  21553698.514    -4284679.85949  -3212932.10849  21553699.3824   21553705.5454
  21727502.501     6254686.65649   4744812.49049  21727503.5634   21727509.9984
 96  4 20 16 10 30.0010000  0  8 19  2  3 16 31 29 27 18
  20816184.118      398160.75149    310601.28649  20816185.3074   20816190.9544
  22582810.058    -5692570.78549  -4425479.73449  22582811.1364   22582817.6104
  24729032.156     5745102.70449   4466212.85949  24729033.3974   24729039.9154
  24051126.400    -2282882.13349  -1773911.32849  24051128.2394   24051133.4244
  22259032.767      615601.74249    482819.83349  22259033.7284   22259038.4704
  24831678.773    10100638.42149   7851117.52149  24831681.9854   24831688.8154
  21545676.134    -4326836.08849  -3245781.12049  21545677.3624   21545683.4224
  21744072.925     6341764.92649   4812665.65749  21744074.2114   21744080.4134
 96  4 20 16 11  0.0010000  0  8 19  2  3 16 31 29 27 18
  20818669.988      411224.58049    320780.89049  20818671.3154   20818677.2284
  22573232.873    -5742900.03349  -4464697.31749  22573233.7654   22573240.6154
  24744582.304     5826817.30849   4529886.54849  24744583.3124   24744589.9534
  24050748.590    -2284869.95049  -1775460.28949  24050749.2364   24050756.4094
  22265420.103      649167.42249    508974.90949  22265420.9724   22265426.5374
  24853744.125    10216581.79349   7941462.91149  24853745.1924   24853752.5414
  21537683.780    -4368835.49649  -3278507.93349  21537684.8514   21537691.1754
  21760711.614     6429201.72849   4880798.20749  21760712.8634   21760719.1474
 96  4 20 16 11 30.0010000  0  8 19  2  3 16 31 29 27 18
  20821199.643      424518.99049    331140.16649  20821201.0324   20821206.8564
  22563705.690    -5792966.56849  -4503710.19049  22563706.4984   22563713.3044
  24760199.233     5908888.27249   4593837.91749  24760200.6084   24760208.0464
  24050471.049    -2286328.23749  -1776596.64349  24050471.9714   24050478.7844
  22271919.457      683322.86649    535589.53749  22271920.3594   22271926.1114
  24875829.244    10332643.94649   8031900.83849  24875831.7044   24875838.7874
  21529719.654    -4410687.79549  -3311120.11249  21529720.7744   21529726.7144
  21777420.179     6517006.86149   4949217.76349  21777421.0134   21777427.4654
 96  4 20 16 12  0.0010000  0  8 19  2  3 16 31 29 27 18
  20823776.863      438064.94949    341695.44949  20823778.5454   20823784.7294
  22554231.357    -5842755.07149  -4542506.41849  22554232.1224   22554238.7694
  24775887.328     5991327.55349   4658076.29649  24775887.5734   24775894.8794
  24050294.575    -2287258.92749  -1777321.85949  24050294.7184   24050302.6014
  22278536.774      718095.70249    562685.24849  22278537.4694   22278542.9624
  24897938.389    10448824.89149   8122431.34449  24897940.7264   24897947.0274
  21521786.617    -4452375.98449  -3343604.41949  21521787.8534   21521793.7484
  21794201.662     6605193.61049   5017934.67349  21794202.5714   21794208.9054
 96  4 20 16 12 30.0010000  0  8 19  2  3 16 31 29 27 18
  20826398.738      451839.66349    352428.98249  20826400.0264   20826405.8344
  22544807.082    -5892280.81449  -4581097.90349  22544808.0384   22544813.9954
  24791642.759     6074124.29549   4722593.20349  24791643.9744   24791650.9084
  24050210.304    -2287700.60349  -1777666.04249  24050210.6734   24050218.9174
  22285269.921      753476.77549    590254.91249  22285270.2994   22285275.5804
  24920063.291    10565090.33149   8213027.67549  24920065.0234   24920071.5614
  21513883.130    -4493909.25749  -3375968.00749  21513884.3504   21513890.0504
  21811053.194     6693748.26749   5086938.27149  21811054.2034   21811060.0804
 96  4 20 16 13  0.0010000  0  8 19  2  3 16 31 29 27 18
  20829061.819      465835.42349    363334.76449  20829063.4874   20829069.2334
  22535437.691    -5941518.25249  -4619464.73049  22535438.1024   22535444.3744
  24807474.174     6157316.10649   4787417.96949  24807475.4484   24807481.7744
  24050219.033    -2287655.47049  -1777630.85749  24050219.6454   24050227.8684
  22292119.011      789471.99049    618303.12749  22292119.9464   22292125.0044
  24942205.757    10681447.73149   8303695.66849  24942206.5784   24942213.4674
  21506007.608    -4535295.54349  -3408217.06149  21506008.5294   21506014.4264
  21827978.903     6782694.32349   5156246.85649  21827980.3874   21827985.9384
 96  4 20 16 13 30.0010000  0  8 19  2  3 16 31 29 27 18
  20831762.919      480028.01949    374393.92249  20831764.3004   20831769.6894
  22526122.079    -5990470.61149  -4657609.42349  22526122.8334   22526129.0974
  24823380.138     6240903.85649   4852551.25949  24823381.0934   24823387.1534
  24050316.894    -2287132.41949  -1777223.28849  24050319.6824   24050327.2544
  22299084.606      826077.89949    646827.19949  22299085.5174   22299090.9604
  24964363.891    10797891.80449   8394431.19649  24964365.3044   24964372.6014
  21498158.729    -4576541.43649  -3440356.72449  21498159.6834   21498165.3924
  21844979.256     6872027.73549   5225857.27449  21844980.0834   21844985.9484
 96  4 20 16 14  0.0010000  0  7 19  2  3 16 31 27 18
  20834504.262      494435.31049    385620.38449  20834505.7674   20834511.3864
  22516862.196    -6039129.44049  -4695525.39549  22516863.0414   22516869.7414
  24839366.446     6324912.47349   4918012.47649  24839367.7924   24839374.4104
  24050517.312    -2286096.26549  -1776415.92549  24050517.1224   24050522.7264
  22306168.817      863306.52749    675836.50749  22306169.7124   22306175.6914
  21490342.491    -4617617.04849  -3472363.69749  21490343.6454   21490349.4184
  21862053.312     6961751.96749   5295772.23049  21862054.2234   21862060.0034
 96  4 20 16 14 30.0010000  0  7 19  2  3 16 31 27 18
  20837281.443      509028.27749    396991.51949  20837282.7374   20837288.6074
  22507652.689    -6087527.94449  -4733238.51549  22507653.4214   22507659.8914
  24855426.094     6409301.72549   4983770.32949  24855427.2464   24855433.5074
  24050807.658    -2284557.23949  -1775216.70149  24050809.0414   24050815.1484
  22313362.015      901106.62149    705291.11549  22313363.4564   22313368.7434
  21482551.561    -4658557.19949  -3504265.12049  21482552.4274   21482558.2504
  21879192.930     7051822.35149   5365956.91349  21879193.9524   21879199.7594
 96  4 20 16 15  0.0010000  0  7 19  2  3 16 31 27 18
  20840098.127      523831.56749    408526.54749  20840099.5714   20840105.5114
  22498493.437    -6135659.56049  -4770743.67049  22498494.4154   22498500.6894
  24871553.605     6494055.07349   5049811.86549  24871555.2114   24871560.5754
  24051202.027    -2282482.31049  -1773599.88749  24051202.9934   24051209.0214
  22320664.224      939476.40049    735189.63549  22320665.0854   22320670.7114
  21474788.382    -4699351.81049  -3536053.13349  21474789.6474   21474795.5014
  21896399.295     7142244.04049   5436415.33949  21896400.4784   21896406.6774
 96  4 20 16 15 30.0010000  0  7 19  2  3 16 31 27 18
  20842960.564      538871.89849    420246.27649  20842961.9134   20842967.6544
  22489382.869    -6183537.04149  -4808050.79449  22489383.5454   22489389.7514
  24887748.267     6579160.05649   5116127.41149  24887749.2634   24887755.7464
  24051698.700    -2279863.93749  -1771559.59249  24051701.0694   24051708.3794
  22328074.523      978415.88549    765532.07849  22328074.7684   22328080.7174
  21467056.402    -4739983.95149  -3567714.54249  21467057.5764   21467062.9714
  21913671.698     7233012.95249   5507144.33149  21913672.8614   21913679.0694
 96  4 20 16 16  0.0010000  0  7 19  2  3 16 31 27 18
  20845870.975      554167.89749    432165.23049  20845872.6024   20845878.5104
  22480319.677    -6231163.85149  -4845162.58449  22480320.3374   22480326.5514
  24904009.148     6664608.32949   5182710.44549  24904009.1094   24904015.3264
  24052302.526    -2276695.85149  -1769090.96549  24052304.7164   24052312.6524
  22335589.421     1017910.04649    796306.73349  22335590.1074   22335596.2364
  21459354.944    -4780454.76449  -3599250.24549  21459356.3784   21459362.0014
  21931013.322     7324142.42649   5578154.28149  21931014.6204   21931020.7814
 96  4 20 16 16 30.0010000  0  7 19  2  3 16 31 27 18
  20848831.442      569723.30249    444286.31849  20848832.7744   20848838.8014
  22471305.486    -6278532.99749  -4882073.59649  22471306.5774   22471312.7254
  24920333.634     6750396.98749   5249558.73049  24920334.2484   24920341.2654
  24053011.253    -2272982.51949  -1766197.46549  24053011.8424   24053020.1234
  22343210.569     1057966.51249    827519.54449  22343212.4304   22343218.5314
  21451683.605    -4820770.65049  -3630665.21749  21451684.6134   21451690.3524
  21948425.100     7415641.38249   5649452.14449  21948426.3434   21948432.5544
 96  4 20 16 17  0.0010000  0  7 19  2  3 16 31 27 18
  20851837.256      585520.28249    456595.64149  20851838.7284   20851844.5974
  22462340.440    -6325645.92349  -4918784.95849  22462341.1774   22462347.3054
  24936723.704     6836528.23849   5316673.97049  24936724.6814   24936730.6984
  24053816.136    -2268755.21049  -1762903.46949  24053817.1384   24053824.8874
  22350942.458     1098592.73649    859176.33449  22350943.9904   22350949.0254
  21444039.068    -4860940.42049  -3661966.33749  21444040.2964   21444046.2774
  21965908.879     7507517.46749   5721043.87849  21965910.0864   21965916.0264
 96  4 20 16 17 30.0010000  0  7 19  2  3 16 31 27 18
  20854889.189      601557.71349    469092.33449  20854890.7584   20854896.3874
  22453427.294    -6372485.95749  -4955283.67549  22453427.8734   22453433.9764
  24953184.278     6923027.59249   5384076.05049  24953185.4384   24953192.0074
  24054719.705    -2264012.35149  -1759207.73949  24054719.5514   24054728.1774
  22358787.062     1139814.43549    891297.12549  22358787.7914   22358793.2874
  21436423.389    -4900962.22049  -3693152.16049  21436424.5464   21436430.1134
  21983466.277     7599782.06549   5792938.34549  21983467.3994   21983473.6294
 96  4 20 16 18  0.0010000  0  7 19  2  3 16 31 27 18
  20857981.897      617811.08349    481757.29549  20857983.5494   20857988.9664
  22444566.590    -6419047.28649  -4991565.21749  22444567.3474   22444573.4824
  24969713.729     7009888.31649   5451759.71749  24969713.4304   24969721.1094
  24055720.417    -2258756.06849  -1755111.94749  24055719.6354   24055727.5824
  22366746.777     1181638.63449    923887.39749  22366746.8374   22366752.0914
  21428834.021    -4940842.35349  -3724227.58749  21428835.3074   21428841.2404
  22001094.272     7692420.98349   5865124.48649  22001095.4674   22001102.2704
 96  4 20 16 18 30.0010000  0  7 19  2  3 16 31 27 18
  20861116.882      634283.43849    494592.89449  20861118.3854   20861123.7534
  22435762.827    -6465310.04249  -5027614.11149  22435763.6954   22435770.1844
  24986313.610     7097126.18349   5519737.25449  24986315.9974   24986320.3874
  24056815.177    -2252984.97149  -1750614.99249  24056817.2314   24056825.3134
  22374823.459     1224082.89049    956960.82949  22374823.7624   22374829.3444
  21421273.974    -4980574.80949  -3755187.93649  21421274.9324   21421280.4814
  22018791.845     7785421.74849   5937592.58249  22018792.7564   22018799.6434
 96  4 20 16 19  0.0010000  0  7 19  2  3 16 31 27 18
  20864288.581      650952.02449    507581.39949  20864289.9444   20864295.6064
  22427009.823    -6511308.23949  -5063456.85649  22427010.6994   22427017.3434
  25002981.895     7184719.07349   5587991.42949  25002982.2304   25002988.6074
  24058005.568    -2246724.44349  -1745736.65649  24058007.0434   24058016.2994
  22383010.017     1267111.28549    990489.41949  22383011.4924   22383017.4644
  21413740.124    -5020166.73849  -3786038.78149  21413740.7444   21413746.5924
  22036552.889     7878756.56449   6010320.97449  22036554.0214   22036560.4454
 96  4 20 16 19 30.0010000  0  7 19  2  3 16 31 27 18
  20867499.738      667827.34349    520730.99149  20867501.0834   20867506.9164
  22418306.931    -6557042.44549  -5099093.88649  22418307.7604   22418314.4674
  25019717.717     7272661.40249   5656517.91249  25019718.3404   25019724.0154
  24059292.474    -2239951.09849  -1740458.76249  24059296.1864   24059303.9794
  22391310.168     1310723.26449   1024472.75749  22391311.0644   22391316.2914
  21406233.150    -5059612.44149  -3816775.67749  21406234.6674   21406240.2204
  22054375.538     7972416.59649   6083302.78749  22054376.7354   22054383.3304
 96  4 20 16 20  0.0010000  0  7 19  2  3 16 31 27 18
  20870757.506      684944.49549    534069.02049  20870758.6574   20870764.4884
  22409658.724    -6602490.08749  -5134507.61749  22409659.4244   22409665.8494
  25036522.752     7360974.39349   5725333.20649  25036523.7044   25036530.8394
  24060684.060    -2232648.20849  -1734768.20849  24060686.5944   24060692.9174
  22399720.824     1354919.14249   1058911.08949  22399721.8134   22399727.1494
  21398759.844    -5098886.49049  -3847378.82449  21398760.7024   21398766.8234
  22072263.977     8066419.46449   6156551.75149  22072265.4304   22072271.4324
 96  4 20 16 20 30.0010000  0  6 19  2 16 31 27 18
  20874061.993      702311.11849    547601.44049  20874063.5004   20874069.1854
  22401063.010    -6647659.85149  -5169704.81749  22401063.7244   22401070.0874
  24062174.875    -2224837.16149  -1728681.70749  24062174.1914   24062180.3804
  22408234.482     1399664.71349   1093777.76249  22408235.8574   22408241.6924
  21391318.774    -5137988.49349  -3877847.90849  21391319.9024   21391325.8794
  22090217.380     8160764.29249   6230067.16649  22090218.7544   22090224.9534
 96  4 20 16 21  0.0010000  0  6 19  2 16 31 27 18
  20877415.037      719930.91049    561331.13549  20877416.4634   20877421.9454
  22392520.135    -6692552.15549  -5204685.81749  22392521.1904   22392527.2964
  24063757.522    -2216514.34049  -1722196.41749  24063757.9814   24063764.4154
  22416854.790     1444961.95449   1129074.31149  22416856.0154   22416862.0114
  21383912.225    -5176909.33849  -3908175.83449  21383913.2974   21383919.6534
  22108239.224     8255469.84549   6303863.66249  22108240.3214   22108246.5944
 96  4 20 16 21 30.0010000  0  6 19  2 16 31 27 18
  20880815.359      737799.91649    575255.02949  20880817.1194   20880822.4294
  22384031.998    -6737158.51049  -5239444.00849  22384032.4784   22384039.3324
  24065434.878    -2207695.23549  -1715324.41349  24065436.4874   24065443.6364
  22425578.697     1490807.53349   1164798.13349  22425579.7834   22425585.5334
  21376537.110    -5215667.90249  -3938377.30249  21376538.0144   21376544.2244
  22126328.028     8350523.03249   6377931.04249  22126328.6464   22126334.2254
 96  4 20 16 22  0.0010000  0  6 19  2 16 31 27 18
  20884265.619      755930.62049    589382.84849  20884267.0224   20884272.4294
  22375600.783    -6781462.83649  -5273966.85349  22375601.7454   22375609.0054
  24067209.070    -2198376.88649  -1708063.37349  24067209.1534   24067216.9414
  22434408.477     1537206.66649   1200953.30249  22434409.3364   22434414.5824
  21369197.983    -5254235.72349  -3968430.14549  21369198.9614   21369204.8284
  22144483.325     8445930.46049   6452274.45049  22144484.2584   22144490.1434
 96  4 20 16 22 30.0010000  0  6 19  2 16 31 27 18
  20887759.131      774288.92549    603688.01749  20887760.6304   20887765.8484
  22367222.496    -6825490.82649  -5308274.37249  22367223.5754   22367230.6684
  24069074.755    -2188570.69049  -1700422.17649  24069075.3864   24069084.1214
  22443343.889     1584163.86949   1237543.32249  22443345.1144   22443350.6614
  21361892.366    -5292625.46749  -3998344.22349  21361893.7744   21361899.3004
  22162702.900     8541676.70249   6526881.87649  22162703.7184   22162709.9604
 96  4 20 16 23  0.0010000  0  6 19  2 16 31 27 18
  20891295.377      792872.31349    618168.58149  20891296.8454   20891302.6364
  22358897.808    -6869240.24349  -5342364.81749  22358898.6074   22358905.0954
  24071035.728    -2178262.32949  -1692389.69649  24071036.9944   24071046.0074
  22452391.182     1631707.82049   1274590.54349  22452392.2144   22452397.7154
  21354620.090    -5330842.03249  -4028123.35949  21354621.2134   21354626.9654
  22180986.330     8637758.38749   6601750.68949  22180987.4324   22180993.8054
 96  4 20 16 23 30.0010000  0  6 19  2 16 31 27 18
  20894872.346      811670.92949    632816.84349  20894874.0054   20894879.7394
  22350623.111    -6912725.55649  -5376249.46949  22350623.7254   22350630.0004
  24073091.794    -2167452.51049  -1683966.47749  24073092.8704   24073102.7354
  22461548.139     1679826.53749   1312085.63849  22461548.8524   22461554.3454
  21347379.553    -5368890.57549  -4057771.57149  21347380.7484   21347386.5304
  22199330.840     8734159.37149   6676868.30449  22199331.9474   22199338.7334
 96  4 20 16 24  0.0010000  0  6 19  2 16 31 27 18
  20898490.393      830681.49549    647630.26349  20898491.7504   20898497.3774
  22342395.488    -6955961.02249  -5409939.43549  22342396.0724   22342402.6994
  24075246.926    -2156128.70649  -1675142.75649  24075247.7264   24075256.7534
  22470815.312     1728524.15749   1350031.82649  22470815.7484   22470820.9324
  21340170.919    -5406772.36149  -4087289.84249  21340172.0614   21340177.9334
  22217738.372     8830888.44849   6752241.58249  22217739.3894   22217745.8284
 96  4 20 16 24 30.0010000  0  6 19  2 16 31 27 18
  20902147.040      849898.89049    662604.85049  20902148.4344   20902154.3224
  22334212.180    -6998960.76949  -5443445.72249  22334213.4434   22334220.0004
  24077498.839    -2144294.65749  -1665921.44949  24077499.4624   24077508.2414
  22480191.917     1777803.06249   1388430.97049  22480193.1284   22480198.3094
  21332989.360    -5444512.31749  -4116697.59749  21332990.2934   21332996.3644
  22236206.525     8927942.00449   6827867.69949  22236207.5924   22236214.0684
 96  4 20 16 25  0.0010000  0  6 19  2 16 31 27 18
  20905847.481      869343.54749    677756.52449  20905848.7684   20905854.5074
  22326077.967    -7041705.63649  -5476753.40049  22326079.2564   22326085.7454
  24079849.940    -2131943.58649  -1656297.26149  24079851.1334   24079858.4134
  22489679.895     1827662.21249   1427282.25149  22489680.9204   22489686.3534
  21325836.605    -5482098.99749  -4145985.92549  21325837.7874   21325843.8244
  22254738.178     9025327.07549   6903752.13249  22254739.7614   22254746.2404
 96  4 20 16 25 30.0010000  0  6 19  2 16 31 27 18
  20909590.665      889014.72249    693084.70349  20909592.1394   20909597.9794
  22317993.528    -7084192.68649  -5509860.17749  22317994.4724   22318000.9644
  24082300.516    -2119070.96449  -1646266.67049  24082300.9194   24082307.4754
  22499275.896     1878090.28949   1466576.85849  22499276.9184   22499282.2014
  21318714.728    -5519526.24049  -4175150.00849  21318715.8924   21318721.8004
  22273335.488     9123055.10649   6979903.81649  22273336.7794   22273342.9474
 96  4 20 16 26  0.0010000  0  6 19  2 16 31 27 18
  20913377.037      908912.17149    708589.19949  20913378.3474   20913384.4214
  22309956.442    -7126426.95949  -5542769.99049  22309957.5144   22309964.3074
  24084845.988    -2105698.83649  -1635846.87149  24084846.1514   24084851.1634
  22508979.271     1929080.95249   1506309.83949  22508980.2484   22508985.4564
  21311621.108    -5556802.26649  -4204196.26349  21311622.4284   21311628.2054
  22291996.040     9221112.75749   7056312.34849  22291996.9524   22292002.8594
 96  4 20 16 26 30.0010000  0  6 19  2 16 31 27 18
  20917210.324      929054.91249    724284.83649  20917211.7874   20917217.4664
  22301971.383    -7168390.65249  -5575468.96049  22301972.0004   22301978.4894
  24087484.886    -2091831.27349  -1625041.01149  24087485.4874   24087490.1594
  22518790.784     1980639.55749   1546485.36749  22518791.6474   22518797.0244
  21304559.984    -5593909.21449  -4233110.77249  21304561.0144   21304567.0084
  22310718.623     9319502.55349   7132979.69049  22310719.8304   22310725.8794
 96  4 20 16 27  0.0010000  0  6 19  2 16 31 27 18
  20921090.600      949445.69949    740173.75749  20921091.6734   20921097.4034
  22294038.016    -7210077.38949  -5607952.12249  22294039.2614   22294045.6354
  24090214.220    -2077479.63149  -1613857.92149  24090215.3044   24090221.9184
  22528707.158     2032748.60449   1587089.81949  22528707.9434   22528713.4414
  21297533.088    -5630835.90549  -4261884.81749  21297534.3704   21297540.2764
  22329503.486     9418220.00449   7209902.34949  22329504.8204   22329511.1834
 96  4 20 16 27 30.0010000  0  6 19  2 16 31 27 18
  20925019.048      970091.15549    756261.11949  20925020.6034   20925026.1704
  22286157.814    -7251488.52549  -5640220.52549  22286158.8354   22286165.0134
  24093038.493    -2062636.99349  -1602292.24549  24093038.7694   24093046.6284
  22538728.275     2085413.59749   1628127.46749  22538729.1784   22538734.7894
  21290541.631    -5667577.79249  -4290514.86049  21290542.3204   21290548.4504
  22348349.496     9517257.66649   7287074.51949  22348350.7094   22348356.9564
 96  4 20 16 28  0.0010000  0  6 19  2 16 31 27 18
  20928994.892      990985.29749    772542.26549  20928996.7584   20929002.4184
  22278329.905    -7292626.89049  -5672276.37949  22278330.8724   22278336.9264
  24095949.368    -2047326.34149  -1590361.87849  24095951.8854   24095960.3004
  22548854.484     2138624.27649   1669590.33449  22548855.5764   22548860.7064
  21283581.642    -5704151.91449  -4319014.17849  21283582.4944   21283588.8014
  22367251.179     9616584.88949   7364472.32249  22367252.0814   22367258.2454
 96  4 20 16 28 30.0010000  0  6 19  2 16 31 27 18
  20933017.828     1012124.96549    789014.72849  20933019.4704   20933025.1014
  22270555.164    -7333482.14649  -5704111.63049  22270556.3084   22270562.7384
  24098957.719    -2031532.74349  -1578055.19549  24098957.2554   24098965.8764
  22559084.287     2192381.81749   1711479.32649  22559085.2194   22559090.5914
  21276654.215    -5740554.81549  -4347380.08649  21276655.1374   21276661.6094
  22386208.827     9716205.75949   7442098.94349  22386209.9764   22386215.7414
 96  4 20 16 29  0.0010000  0  6 19  2 16 31 27 18
  20937087.087     1033507.92949    805676.77649  20937088.4184   20937093.9164
  22262834.330    -7374056.84349  -5735728.26149  22262835.0754   22262841.4264
  24102056.089    -2015239.89849  -1565359.48849  24102058.3034   24102066.5804
  22569419.021     2246689.97549   1753797.37149  22569420.0174   22569425.0754
  21269759.432    -5776784.90149  -4375611.32849  21269760.4344   21269766.8374
  22405223.840     9816129.00249   7519961.17749  22405224.6084   22405231.0164
 96  4 20 16 29 30.0010000  0  6 19  2 16 31 27 18
  20941200.390     1055124.90749    822521.16749  20941202.1444   20941207.5714
  22255163.933    -7414363.69749  -5767136.18649  22255164.9874   22255171.1914
  24105256.441    -1998438.03949  -1552267.14749  24105255.4844   24105263.9174
  22579858.997     2301552.39349   1796547.30949  22579859.0264   22579864.6934
  21262898.127    -5812842.25949  -4403707.97049  21262899.2034   21262905.0264
  22424296.103     9916355.15249   7598059.44249  22424296.9134   22424303.1774
 96  4 20 16 30  0.0010000  0  6 19  2 16 31 27 18
  20945360.138     1076982.26949    839552.87749  20945361.4394   20945366.9954
  22247544.418    -7454404.43349  -5798336.74649  22247545.2564   22247551.7174
  24108549.530    -1981130.32949  -1538780.62749  24108549.5994   24108558.9854
  22590402.637     2356962.85249   1839724.28949  22590403.5424   22590409.1644
  21256072.267    -5848712.52649  -4431658.83249  21256073.5694   21256078.9674
  22443430.028    10016904.25649   7676409.36349  22443431.1014   22443437.0134
 96  4 20 16 30 30.0010000  0  6 19  2 16 31 27 18
  20949568.636     1099099.44149    856787.02949  20949570.1904   20949575.8144
  22239975.192    -7494181.74149  -5829332.04349  22239976.1874   22239982.5044
  24111943.754    -1963297.61449  -1524885.03449  24111944.0814   24111951.0804
  22601053.249     2412934.65049   1883338.67449  22601054.6904   22601060.2094
  21249286.157    -5884373.83349  -4459446.86549  21249287.2264   21249292.6364
  22462630.015    10117800.57049   7755029.82849  22462631.1174   22462637.4934
 96  4 20 16 31  0.0010000  0  6 19  2 16 31 27 18
  20953822.273     1121449.58949    874202.72149  20953823.2534   20953828.6724
  22232449.331    -7533732.72349  -5860150.98449  22232449.7174   22232455.9054
  24115429.138    -1944984.14749  -1510614.82349  24115429.1124   24115436.6414
  22611804.318     2469429.73849   1927360.81249  22611805.6954   22611811.0774
  21242536.796    -5919842.44349  -4487084.74049  21242538.0344   21242543.1494
  22481887.894    10219002.18149   7833888.19049  22481889.1274   22481895.4424
 96  4 20 16 31 30.0010000  0  6 19  2 16 31 27 18
  20958124.030     1144058.75549    891820.24849  20958125.5914   20958130.8564
  22224970.359    -7573031.63649  -5890773.50549  22224971.4264   22224977.4394
  24119004.894    -1926193.64249  -1495972.88849  24119005.2184   24119011.8934
  22622656.633     2526456.85149   1971797.51949  22622657.6364   22622662.4854
  21235826.870    -5955102.58049  -4514560.16249  21235827.9594   21235833.1514
  22501202.993    10320502.50749   7912979.31149  22501203.6724   22501209.6784
 96  4 20 16 32  0.0010000  0  6 19  2 16 31 27 18
  20962474.385     1166919.62149    909633.90449  20962475.7384   20962481.0814
  22217540.367    -7612077.34049  -5921198.72049  22217541.2234   22217547.7554
  24122663.954    -1906953.80449  -1480980.84449  24122666.0264   24122672.1494
  22633607.813     2584006.04649   2016641.04949  22633608.7444   22633613.9164
  21229153.287    -5990173.41749  -4541888.08149  21229154.4344   21229159.7634
  22520569.205    10422273.52349   7992281.36049  22520570.1094   22520575.9214
 96  4 20 16 32 30.0010000  0  6 19  2 16 31 27 18
  20966876.028     1190051.66449    927658.87049  20966877.7054   20966883.1084
  22210164.927    -7650832.72349  -5951397.71149  22210166.0214   22210172.6254
  24126417.048    -1887236.14449  -1465616.45249  24126417.0994   24126424.2644
  22644664.209     2642109.39949   2061916.38849  22644665.6074   22644671.0994
  21222518.746    -6025039.12149  -4569056.15649  21222519.8514   21222525.4214
  22539987.139    10524316.71949   8071795.49849  22539988.3264   22539993.9634
 96  4 20 16 33  0.0010000  0  6 19  2 16 31 27 18
  20971329.693     1213454.89649    945895.15449  20971330.8434   20971336.4114
  22202847.695    -7689286.28949  -5981361.52449  22202848.7694   22202855.2874
  24130255.736    -1867042.82649  -1449881.41349  24130260.0764   24130265.9694
  22655826.703     2700767.51849   2107624.01549  22655827.4164   22655833.3024
  21215923.247    -6059698.55849  -4596063.50449  21215924.5994   21215929.9024
  22559454.677    10626619.88149   8151512.21049  22559456.1534   22559461.7784
 96  4 20 16 33 30.0010000  0  6 19  2 16 31 27 18
  20975832.648     1237121.08549    964336.33449  20975834.5134   20975840.1684
  22195589.287    -7727428.27549  -6011082.54849  22195590.2764   22195596.9034
  24134193.871    -1846363.26749  -1433767.49249  24134194.9874   24134201.7354
  22667097.524     2759995.58449   2153775.75549  22667098.4294   22667104.2164
  21209363.241    -6094173.86949  -4622927.37349  21209364.1424   21209369.4424
  22578971.882    10729184.86749   8231432.94249  22578973.5604   22578979.7064
 96  4 20 16 34  0.0010000  0  6 19  2 16 31 27 18
  20980385.761     1261046.11349    982979.20649  20980387.2444   20980393.0144
  22188393.401    -7765243.55349  -6040548.99349  22188394.3404   22188401.0034
  24138227.672    -1825166.47249  -1417250.51649  24138228.3334   24138235.5374
  22678480.979     2819818.12249   2200390.72249  22678482.0434   22678487.0814
  21202841.189    -6128444.91149  -4649632.07049  21202842.5494   21202847.7594
  22598547.455    10832054.01949   8311590.68349  22598548.9184   22598554.7894
 96  4 20 16 34 30.0010000  0  6 19  2 16 31 27 18
  20984982.334     1285201.25249   1001801.38249  20984983.8244   20984989.5234
  22181253.699    -7802765.68649  -6069787.01349  22181254.4464   22181260.6604
  24142356.677    -1803470.75549  -1400344.76849  24142357.3174   24142365.3854
  22689970.247     2880195.60349   2247438.10649  22689971.7174   22689977.4554
  21196353.608    -6162539.17449  -4676199.01549  21196354.5474   21196359.7444
  22618177.254    10935210.22449   8391972.09849  22618178.8994   22618184.9034
 96  4 20 16 35  0.0010000  0  6 19  2 16 31 27 18
  20989621.455     1309578.65449   1020796.75149  20989622.9594   20989628.2664
  22174167.597    -7840002.60949  -6098802.79049  22174168.2564   22174174.6884
  24146579.799    -1781279.84849  -1383053.17449  24146581.2304   24146588.5214
  22701563.203     2941120.18949   2294911.79449  22701564.8344   22701570.9784
  21189898.713    -6196456.40649  -4702628.01049  21189900.1654   21189905.7254
  22637864.875    11038668.18349   8472588.64749  22637866.3224   22637872.8244
 96  4 20 16 35 30.0010000  0  6 19  2 16 31 27 18
  20994298.266     1334155.98049   1039947.91249  20994299.7754   20994304.9804
  22167131.424    -7876974.90449  -6127612.36449  22167132.5334   22167138.9134
  24150895.511    -1758601.34249  -1365381.63149  24150895.9254   24150904.8684
  22713256.834     3002567.20549   2342792.58449  22713257.6064   22713263.7994
  21183478.483    -6230194.92349  -4728917.74949  21183479.8204   21183485.7184
  22657609.891    11142427.00049   8553439.64149  22657610.6414   22657617.2074
 96  4 20 16 36  0.0010000  0  6 19  2 16 31 27 18
  20999017.809     1358957.57649   1059273.83049  20999019.4354   20999024.7124
  22160142.726    -7913701.31649  -6156230.34049  22160143.7824   22160150.1794
  24155303.276    -1735429.27249  -1347325.48749  24155304.9394   24155313.8944
  22725047.556     3064523.11549   2391069.90449  22725048.0274   22725053.2614
  21177096.897    -6263730.80049  -4755049.59249  21177098.2544   21177104.3694
  22677413.539    11246495.63649   8634532.05349  22677414.0864   22677421.2434
 96  4 20 16 36 30.0010000  0  6 19  2 16 31 27 18
  21003781.969     1383993.96949   1078782.70849  21003783.6494   21003789.0624
  22153196.403    -7950206.07149  -6184675.59749  22153197.3544   22153203.7954
  24159803.037    -1711783.81249  -1328900.46949  24159805.1894   24159813.6624
  22736930.787     3126971.62049   2439731.07349  22736932.0414   22736936.3274
  21170753.031    -6297067.88649  -4781026.53749  21170754.3244   21170760.5004
  22697268.496    11350837.68649   8715837.50849  22697270.2264   22697276.7384
 96  4 20 16 37  0.0010000  0  6 19  2 16 31 27 18
  21008595.002     1409285.86149   1098490.67249  21008596.6344   21008601.9974
  22146294.114    -7986478.74349  -6212940.01349  22146295.1594   22146301.7764
  24164394.573    -1687662.65049  -1310104.80049  24164395.4444   24164402.4064
  22748911.334     3189930.30449   2488789.79149  22748912.6344   22748917.5404
  21164451.871    -6330180.88249  -4806828.86749  21164453.1764   21164459.1924
  22717178.718    11455462.67749   8797363.44349  22717179.7514   22717186.5094
 96  4 20 16 37 30.0010000  0  6 19  2 16 31 27 18
  21013458.774     1434844.94249   1118406.83249  21013459.9364   21013465.7354
  22139437.284    -8022512.83249  -6241018.50949  22139437.9504   22139444.5984
  24169075.932    -1663060.54749  -1290934.36349  24169076.8574   24169083.9144
  22760988.790     3253400.68649   2538247.22249  22760990.5794   22760995.0624
  21158192.535    -6363077.35749  -4832462.47749  21158193.2954   21158199.3124
  22737141.256    11560368.45749   8879108.17049  22737142.8634   22737148.9934
 96  4 20 16 38  0.0010000  0  6 19  2 16 31 27 18
  21018375.350     1460683.00249   1138540.38249  21018376.7684   21018382.6214
  22132628.262    -8058292.93349  -6268899.09849  22132629.1984   22132635.5764
  24173847.437    -1637984.00949  -1271394.23549  24173848.5534   24173856.2224
  22773168.018     3317398.53649   2588115.67949  22773169.0024   22773173.8484
  21151971.138    -6395767.49649  -4857935.30549  21151972.4304   21151978.2344
  22757158.634    11665556.42949   8961072.78949  22757159.5554   22757165.6104
 96  4 20 16 38 30.0010000  0  6 19  2 16 31 27 18
  21023342.229     1486784.65749   1158879.32849  21023343.7114   21023349.9124
  22125871.829    -8093797.85349  -6296565.25849  22125872.7374   22125879.2494
  24178706.037    -1612451.81749  -1251499.06249  24178707.3174   24178714.9064
  22785446.619     3381920.29449   2638392.36049  22785447.0954   22785452.1764
  21145789.109    -6428253.72549  -4883249.24849  21145790.4264   21145796.6804
  22777226.736    11771018.58249   9043251.04649  22777228.3244   22777234.7704
 96  4 20 16 39  0.0010000  0  6 19  2 16 31 27 18
  21028358.137     1513145.20449   1179420.00449  21028359.9354   21028365.9404
  22119169.939    -8129016.17749  -6324008.09549  22119171.0004   22119177.5934
  24183652.218    -1586457.37849  -1231243.68749  24183653.3654   24183661.1994
  22797825.238     3446970.55449   2689080.86249  22797825.2534   22797831.4684
  21139643.771    -6460546.34049  -4908412.32449  21139645.1164   21139651.2564
  22797351.291    11876771.56749   9125655.92649  22797352.4614   22797358.9524
 96  4 20 16 39 30.0010000  0  6 19  2 16 31 27 18
  21033422.668     1539756.40449   1200155.99749  21033424.0364   21033429.6654
  22112522.752    -8163947.29249  -6351227.12949  22112523.8114   22112530.3144
  24188689.893    -1559989.51149  -1210619.41049  24188690.1174   24188698.5394
  22810304.311     3512555.33449   2740185.86849  22810305.4634   22810311.6114
  21133535.678    -6492647.27249  -4933426.03649  21133536.8304   21133542.8564
  22817528.499    11982807.20349   9208281.04949  22817530.2694   22817536.8184
 96  4 20 16 40  0.0010000  0  7 19  2 16 31 27 18  7
  21038535.594     1566624.91049   1221092.48749  21038537.2474   21038542.9464
  22105927.627    -8198604.55149  -6378232.76949  22105928.5754   22105935.4404
  24193812.467    -1533064.47249  -1189638.87649  24193814.1734   24193821.5274
  22822884.182     3578667.02749   2791701.46249  22822886.0504   22822891.0714
  21127467.521    -6524535.69849  -4958274.15849  21127468.5814   21127474.4544
  22837756.641    12089108.74249   9291113.36849  22837758.6784   22837765.8194
  24969879.471    -3164221.07459  -2213011.75759  24969879.7614   24969887.3484
 96  4 20 16 40 30.0010000  0  7 19  2 16 31 27 18  7
  21043696.424     1593744.70349   1242224.79249  21043697.5644   21043703.5944
  22099381.799    -8233002.27149  -6405036.16649  22099382.7134   22099389.7264
  24199023.263    -1505687.13749  -1168305.91849  24199023.8274   24199031.5434
  22835563.839     3645293.90749   2843618.51049  22835565.1964   22835570.2374
  21121437.133    -6556225.57049  -4982967.56649  21121438.1214   21121443.8734
  22858033.914    12195667.58049   9374146.18649  22858035.8564   22858042.7344
  24950845.661    -3264242.14749  -2290950.20349  24950846.1234   24950854.0104
 96  4 20 16 41  0.0010000  0  7 19  2 16 31 27 18  7
  21048905.974     1621122.70949   1263558.29949  21048907.6044   21048913.1434
  22092883.845    -8267147.06449  -6431642.49149  22092885.1374   22092891.8334
  24204322.922    -1477833.01549  -1146601.43149  24204324.0724   24204332.7234
  22848341.815     3712437.92549   2895938.51349  22848343.1214   22848347.4004
  21115443.792    -6587720.09249  -5007508.76249  21115444.9134   21115450.4944
  22878362.538    12302491.07249   9457385.22349  22878364.2584   22878370.5014
  24931800.783    -3364318.54449  -2368931.76349  24931801.9914   24931810.8404
 96  4 20 16 41 30.0010000  0  7 19  2 16 31 27 18  7
  21054164.637     1648757.76449   1285092.09649  21054166.3744   21054172.1764
  22086435.926    -8301031.63349  -6458046.04049  22086437.1354   22086443.9424
  24209714.567    -1449501.12949  -1124524.65249  24209715.5724   24209724.0214
  22861213.909     3780083.77149   2948649.55749  22861215.0124   22861220.3484
  21109490.369    -6619007.52349  -5031888.57949  21109491.3994   21109496.7104
  22898739.360    12409566.69449   9540820.72649  22898739.8644   22898745.8314
  24912753.811    -3464409.65749  -2446924.78649  24912754.7754   24912763.7064
 96  4 20 16 42  0.0010000  0  7 19  2 16 31 27 18  7
  21059473.620     1676656.39149   1306831.27749  21059475.2464   21059481.0594
  22080039.892    -8334643.95149  -6484237.44549  22080040.8944   22080047.5294
  24215193.969    -1420703.67749  -1102085.10849  24215196.0274   24215203.7704
  22874178.279     3848212.82849   3001737.11549  22874179.5864   22874184.4994
  21103574.271    -6650095.71149  -5056113.14349  21103575.4334   21103580.9254
  22919163.691    12516896.79849   9624454.52349  22919164.3614   22919170.0684
  24893706.816    -3564502.91049  -2524919.48749  24893708.1364   24893716.4434
 96  4 20 16 42 30.0010000  0  7 19  2 16 31 27 18  7
  21064833.864     1704825.85649   1328781.49849  21064836.0184   21064841.5174
  22073699.249    -8367966.29449  -6510202.90249  22073699.7904   22073706.3444
  24220767.037    -1391423.47049  -1079269.37749  24220767.7474   24220775.5614
  22887237.689     3916840.90849   3055213.53649  22887238.0644   22887244.4744
  21097695.520    -6680987.78349  -5080184.88949  21097696.9054   21097702.2764
  22939638.817    12624496.06749   9708298.06949  22939640.0844   22939645.4254
  24874663.810    -3664573.67849  -2602896.66649  24874665.5134   24874673.5954
 96  4 20 16 43  0.0010000  0  7 19  2 16 31 27 18  7
  21070245.027     1733257.91349   1350936.34049  21070246.4654   21070252.2504
  22067412.941    -8401000.09649  -6535943.52649  22067413.9084   22067419.8544
  24226429.132    -1361673.24249  -1056087.41049  24226429.5424   24226437.6234
  22900388.234     3985951.75349   3109066.12249  22900390.1974   22900395.8704
  21091855.871    -6711675.61749  -5104097.49449  21091857.0324   21091862.8844
  22960160.704    12732337.87149   9792330.59949  22960162.0544   22960167.1214
  24855624.726    -3764624.03949  -2680857.94349  24855626.3164   24855634.4264
 96  4 20 16 43 30.0010000  0  7 19  2 16 31 27 18  7
  21075708.004     1761967.01449   1373307.05949  21075709.4614   21075715.0294
  22061185.113    -8433728.65349  -6561446.28749  22061186.0754   22061191.7384
  24232177.340    -1331469.66349  -1032552.18949  24232177.0174   24232184.5314
  22913634.497     4055559.27649   3163305.73149  22913636.2224   22913641.4524
  21086059.559    -6742136.51849  -5127833.26549  21086060.6074   21086066.2694
  22980727.977    12840417.46949   9876548.42249  22980728.5354   22980733.9574
  24836590.918    -3864648.33949  -2758798.91149  24836591.8454   24836600.8164
 96  4 20 16 44  0.0010000  0  7 19  2 16 31 27 18  7
  21081226.403     1790967.07449   1395904.50249  21081227.9424   21081233.5104
  22055013.140    -8466162.27449  -6586719.22849  22055014.0974   22055020.3884
  24238007.916    -1300824.88149  -1008673.17349  24238008.6764   24238016.4274
  22926977.589     4125678.36849   3217943.96549  22926980.0064   22926985.0424
  21080307.170    -6772365.61349  -5151388.40449  21080308.2174   21080313.9094
  23001340.989    12948742.00649   9960957.11149  23001341.5404   23001347.0514
  24817556.016    -3964679.75149  -2836745.42849  24817556.2994   24817565.8324
 96  4 20 16 44 30.0010000  0  7 19  2 16 31 27 18  7
  21086799.907     1820254.15349   1418725.59649  21086801.4734   21086806.8064
  22048894.524    -8498315.03549  -6611773.31649  22048895.5884   22048902.1544
  24243925.548    -1269726.22149   -984440.48049  24243926.1624   24243933.8344
  22940421.369     4196323.04549   3272991.74849  22940422.6434   22940427.9644
  21074601.946    -6802346.29249  -5174749.97449  21074603.2874   21074608.9444
  23022001.010    13057310.90349  10045556.21549  23022001.6684   23022007.8534
  24798518.075    -4064716.33349  -2914695.96449  24798520.0144   24798528.6264
 96  4 20 16 45  0.0010000  0  7 19  2 16 31 27 18  7
  21092423.182     1849804.27349   1441751.65149  21092424.7364   21092430.4574
  22042825.955    -8530209.29149  -6636625.97349  22042826.5824   22042833.0254
  24249927.036    -1238186.24949   -959863.90549  24249928.3714   24249936.7184
  22953959.371     4267466.14749   3328427.90549  22953960.3774   22953965.6774
  21068942.566    -6832085.52449  -5197923.39949  21068943.9894   21068949.6064
  23042703.038    13166101.77049  10130328.26649  23042704.1964   23042709.6374
  24779477.979    -4164773.58849  -2992662.63049  24779479.4554   24779488.6114
 96  4 20 16 45 30.0010000  0  7 19  2 16 31 27 18  7
  21098094.949     1879612.45249   1464978.79649  21098096.8194   21098102.5144
  22036802.931    -8561856.51649  -6661286.14249  22036804.0544   22036810.4494
  24256013.831    -1206199.67149   -934939.29849  24256014.8484   24256022.8764
  22967594.288     4339116.93649   3384259.67549  22967595.3274   22967600.4024
  21063329.712    -6861583.59249  -5220908.90549  21063330.6544   21063336.2444
  23063450.463    13275133.12149  10215287.71949  23063452.0124   23063458.6064
  24760435.248    -4264845.47449  -3070640.69549  24760437.3474   24760445.1514
 96  4 20 16 46  0.0010000  0  7 19  2 16 31 27 18  7
  21103814.644     1909665.18449   1488396.49249  21103815.7484   21103821.5924
  22030826.003    -8593267.52249  -6685762.24949  22030827.1294   22030833.2444
  24262186.400    -1173754.54049   -909657.39549  24262188.0504   24262198.1244
  22981325.048     4411269.47049   3440482.40249  22981325.3954   22981330.6104
  21057761.348    -6890843.99549  -5243709.21549  21057762.4964   21057768.2604
  23084245.006    13384408.01349  10300436.94149  23084246.5194   23084253.0404
  24741389.569    -4364933.77649  -3148631.57049  24741391.5124   24741398.3124
 96  4 20 16 46 30.0010000  0  7 19  2 16 31 27 18  7
  21109575.080     1939941.11249   1511988.11849  21109577.0484   21109582.8544
  22024893.378    -8624446.60449  -6710057.62749  22024893.8454   22024900.2604
  24268449.075    -1140848.75349   -884016.53549  24268449.9414   24268458.8804
  22995146.976     4483906.52149   3497082.69149  22995148.0784   22995153.1724
  21052236.337    -6919879.26349  -5266334.09249  21052237.3594   21052243.2154
  23105083.418    13493912.49249  10385765.06349  23105084.4744   23105091.7304
  24722340.890    -4465032.48549  -3226630.56249  24722342.8864   24722350.3384
 96  4 20 16 47  0.0010000  0  7 19  2 16 31 27 18  7
  21115381.487     1970451.00949   1535762.04649  21115382.8684   21115388.2344
  22019007.720    -8655372.30649  -6734155.57349  22019008.5214   22019015.2664
  24274798.937    -1107485.14949   -858018.95749  24274800.0714   24274807.7704
  23009061.023     4557032.27149   3554063.77549  23009062.4454   23009069.0944
  21046753.168    -6948690.85349  -5288784.67749  21046754.5944   21046760.3754
  23125966.755    13603654.09149  10471277.95149  23125967.9824   23125974.9694
  24703294.137    -4565127.91249  -3304626.97149  24703295.6804   24703302.9514
 96  4 20 16 47 30.0010000  0  7 19  2 16 31 27 18  7
  21121231.977     2001196.72549   1559719.73549  21121233.4044   21121238.9494
  22013169.349    -8686052.08249  -6758061.88549  22013170.2914   22013176.9224
  24281231.842    -1073681.00349   -831678.10749  24281232.8004   24281240.2064
  23023067.750     4630640.39549   3611420.73849  23023070.1404   23023075.9174
  21041310.953    -6977292.04449  -5311071.32049  21041312.1934   21041317.5674
  23146893.218    13713624.75549  10556969.34149  23146894.8484   23146901.9614
  24684246.634    -4665225.32749  -3382624.94849  24684247.1774   24684254.8564
 96  4 20 16 48  0.0010000  0  7 19  2 16 31 27 18  7
  21127133.357     2032208.08849   1583884.42749  21127134.8544   21127140.3814
  22007381.872    -8716466.52249  -6781761.43949  22007382.4734   22007389.2364
  24287749.856    -1039430.08149   -804989.12349  24287750.5544   24287757.7014
  23037166.965     4704726.50749   3669150.16249  23037168.2334   23037173.1244
  21035909.686    -7005674.16649  -5333187.25949  21035911.2674   21035916.7774
  23167863.737    13823824.45149  10642839.19349  23167864.9964   23167872.1334
  24665198.716    -4765317.81449  -3460619.08149  24665200.1774   24665208.2594
 96  4 20 16 48 30.0010000  0  7 19  2 16 31 27 18  7
  21133089.744     2063508.84649   1608274.61949  21133091.3524   21133096.8414
  22001648.211    -8746594.62949  -6805237.87549  22001649.5104   22001655.5144
  24294353.753    -1004718.69349   -777941.32949  24294356.3974   24294362.4124
  23051358.921     4779301.77549   3727260.74949  23051359.3214   23051364.9064
  21030552.699    -7033826.52449  -5355124.15849  21030553.8624   21030559.6354
  23188879.222    13934263.82049  10728895.80549  23188880.4714   23188888.5694
  24646159.708    -4865368.76349  -3538580.86049  24646161.4614   24646169.5464
 96  4 20 16 49  0.0010000  0  7 19  2 16 31 27 18  7
  21139100.960     2095097.35649   1632889.04049  21139102.3024   21139107.8414
  21995967.455    -8776447.71449  -6828500.01349  21995968.7164   21995974.7944
  24301044.234     -969563.31149   -750547.55749  24301044.5194   24301053.2494
  23065638.367     4854346.68249   3785737.28849  23065640.0754   23065645.4564
  21025238.313    -7061753.99649  -5376885.82049  21025239.4334   21025245.3724
  23209938.210    14044925.15749  10815125.37249  23209939.1084   23209946.0594
  24627126.165    -4965384.17549  -3616514.92549  24627128.7444   24627136.5544
 96  4 20 16 49 30.0010000  0  7 19  2 16 31 27 18  7
  21145164.704     2126963.05749   1657719.45149  21145166.1024   21145171.8354
  21990337.563    -8806033.86149  -6851554.15049  21990338.6924   21990344.7894
  24307817.026     -933974.17249   -722815.81349  24307817.9304   24307824.8454
  23080006.899     4929851.39649   3844572.11349  23080008.8294   23080013.4694
  21019969.233    -7089442.83349  -5398461.53549  21019970.4774   21019976.1544
  23231037.072    14155803.68249  10901524.18149  23231037.9934   23231046.1544
  24608098.598    -5065376.55349  -3694431.05349  24608100.4174   24608108.2614
 96  4 20 16 50  0.0010000  0  7 19  2 16 31 27 18  7
  21151278.311     2159091.39149   1682754.51249  21151279.9174   21151285.7144
  21984758.591    -8835351.06249  -6874398.71549  21984759.6904   21984765.7884
  24314672.286     -897948.11249   -694743.59049  24314673.5694   24314682.0074
  23094461.796     5005811.10249   3903761.48049  23094462.9644   23094468.5354
  21014746.792    -7116885.17849  -5419845.17449  21014748.2844   21014754.1564
  23252177.892    14266897.76949  10988090.95449  23252178.7364   23252185.2904
  24589074.603    -5165347.87649  -3772330.76549  24589077.4304   24589084.8494
 96  4 20 16 50 30.0010000  0  7 19  2 16 31 27 18  7
  21157441.161     2191477.38549   1707990.34049  21157442.6604   21157448.7164
  21979229.971    -8864403.40049  -6897036.89349  21979231.2474   21979237.5594
  24321611.560     -861479.33149   -666326.37849  24321613.1514   24321619.8194
  23109005.166     5082235.42249   3963312.88249  23109006.1674   23109011.4584
  21009573.438    -7144074.28249  -5441031.48549  21009574.7404   21009580.3134
  23273358.092    14378200.69649  11074820.46149  23273358.8204   23273365.8904
  24570059.658    -5265283.37349  -3850202.58049  24570060.1564   24570067.8344
 96  4 20 16 51  0.0010000  0  7 19  2 16 31 27 18  7
  21163654.272     2224126.59149   1733431.26549  21163655.9324   21163661.8974
  21973751.285    -8893195.10749  -6919471.98049  21973752.4834   21973758.7204
  24328633.193     -824580.89249   -637574.36549  24328634.7604   24328641.9744
  23123636.074     5159125.70649   4023227.37049  23123637.5634   23123643.4744
  21004447.647    -7171008.60149  -5462019.26449  21004449.1164   21004454.8574
  23294578.955    14489716.30249  11161715.68849  23294579.8524   23294586.0534
  24551045.024    -5365200.14449  -3928059.79749  24551047.0424   24551054.0874
 96  4 20 16 51 30.0010000  0  7 19  2 16 31 27 18  7
  21169917.864     2257044.07049   1759081.24349  21169919.9654   21169925.9014
  21968321.787    -8921728.45449  -6941705.74849  21968322.6964   21968328.6194
  24335738.315     -787252.40449   -608487.26049  24335737.9904   24335744.7354
  23138357.517     5236484.87749   4083507.22449  23138358.8944   23138364.7494
  20999370.344    -7197689.86949  -5482809.86149  20999371.7254   20999377.8154
  23315838.968    14601441.18549  11248773.98549  23315840.4654   23315846.4004
  24532036.687    -5465090.00249  -4005896.04649  24532037.9224   24532045.7514
 96  4 20 16 52  0.0010000  0  7 19  2 16 31 27 18  7
  21176236.149     2290242.77849   1784950.35749  21176237.4264   21176243.4734
  21962938.563    -8950018.89249  -6963750.23649  21962939.4154   21962945.3034
  24342921.552     -749498.11549   -579068.37049  24342922.1684   24342929.2644
  23153164.517     5314297.08049   4144140.09249  23153165.8394   23153171.6854
  20994336.466    -7224144.82349  -5503424.10449  20994337.6174   20994343.5264
  23337136.644    14713361.86249  11335984.84349  23337138.2564   23337144.9464
  24513036.336    -5564936.08349  -4083698.18249  24513037.7164   24513045.0624
 96  4 20 16 52 30.0010000  0  7 19  2 16 31 27 18  7
  21182612.506     2323751.37349   1811060.94149  21182613.9304   21182619.5574
  21957605.816    -8978042.19349  -6985586.56549  21957606.7674   21957612.9064
  24350188.031     -711313.57849   -549314.22649  24350189.0194   24350195.7134
  23168061.854     5392579.62749   4205139.45949  23168062.9864   23168068.3694
  20989348.365    -7250357.46949  -5523849.54249  20989349.5224   20989355.4394
  23358474.459    14825490.69049  11423357.90449  23358475.7974   23358482.0654
  24494050.338    -5664707.28149  -4161441.96249  24494052.4734   24494059.4484
 96  4 20 16 53  0.0010000  0  7 19  2 16 31 27 18  7
  21189044.672     2357554.39949   1837400.95749  21189046.2894   21189052.2954
  21952324.126    -9005796.90249  -7007213.59949  21952324.9174   21952331.1754
  24357530.755     -672725.18949   -519245.37649  24357531.6774   24357540.4294
  23183045.787     5471320.41449   4266495.89749  23183046.7564   23183052.2394
  20984404.483    -7276336.53049  -5544092.95949  20984406.0484   20984411.6434
  23379852.897    14937833.52149  11510897.72149  23379854.4804   23379860.1584
  24475077.076    -5764412.95349  -4239134.66649  24475079.5364   24475086.7004
 96  4 20 16 53 30.0010000  0  7 19  2 16 31 27 18  7
  21195533.306     2391651.70649   1863970.27949  21195534.7494   21195540.9824
  21947096.608    -9033265.38849  -7028617.60849  21947097.6774   21947104.2504
  24364954.153     -633714.36649   -488847.35749  24364954.6914   24364963.6684
  23198117.933     5550527.92449   4328216.00349  23198119.2924   23198124.8734
  20979508.630    -7302067.17449  -5564142.81049  20979509.7154   20979515.3074
  23401273.568    15050397.89549  11598610.16849  23401274.1324   23401280.5844
  24456122.136    -5864025.36949  -4316754.70149  24456123.4864   24456130.6574
 96  4 20 16 54  0.0010000  0  7 19  2 16 31 27 18  7
  21202070.367     2426005.23349   1890739.25849  21202071.9574   21202078.1504
  21941922.270    -9060455.27149  -7049804.52349  21941923.6694   21941929.9944
  24372451.722     -594306.48749   -458139.92749  24372453.5744   24372462.1634
  23213277.568     5630192.97249   4390292.63749  23213279.2854   23213284.4714
  20974656.192    -7327566.29449  -5584012.25149  20974657.1674   20974662.6354
  23422734.365    15163174.41649  11686487.92149  23422734.8284   23422740.4604
  24437178.463    -5963577.32549  -4394327.61349  24437179.3994   24437186.9824
 96  4 20 16 54 30.0010000  0  7 19  2 16 31 27 18  7
  21208652.493     2460592.65349   1917690.48749  21208653.9404   21208659.8484
  21936801.543    -9087365.93949  -7070773.86649  21936802.6574   21936809.0964
  24380026.453     -554507.55749   -427127.79649  24380027.1564   24380035.7154
  23228526.237     5710326.62649   4452734.41949  23228528.1434   23228533.7134
  20969848.288    -7352831.20649  -5603699.19249  20969849.2394   20969854.8954
  23444231.936    15276146.69949  11774518.22149  23444232.8864   23444239.0664
  24418239.658    -6063098.55849  -4471876.57549  24418240.8444   24418248.5784
 96  4 20 16 55  0.0010000  0  7 19  2 16 31 27 18  7
  21215278.735     2495414.06149   1944824.04849  21215280.4074   21215286.2054
  21931732.760    -9114002.26949  -7091529.44049  21931734.1424   21931740.2814
  24387678.764     -514300.17749   -395797.38849  24387679.0894   24387687.3234
  23243865.379     5790935.69449   4515546.65549  23243866.8324   23243872.7404
  20965087.703    -7377847.20349  -5623192.18049  20965088.8784   20965094.6294
  23465767.686    15389316.34249  11862702.30449  23465768.3314   23465774.9354
  24399307.733    -6162589.64649  -4549402.04849  24399308.1584   24399315.6584
 96  4 20 16 55 30.0010000  0  7 19  2 16 31 27 18  7
  21221953.121     2530488.48849   1972154.76749  21221954.6334   21221960.6544
  21926717.333    -9140359.03249  -7112067.17349  21926718.3594   21926724.5064
  24395413.974     -473652.87649   -364124.20049  24395414.6024   24395422.2414
  23259296.131     5872022.73449   4578731.33449  23259297.4584   23259302.9144
  20960377.625    -7402597.65349  -5642478.24649  20960378.9864   20960385.0664
  23487339.454    15502678.05849  11951036.06849  23487340.5634   23487346.8154
  24380380.850    -6262043.63749  -4626898.61749  24380382.4354   24380390.7744
 96  4 20 16 56  0.0010000  0  7 19  2 16 31 27 18  7
  21228677.987     2565826.06049   1999690.53549  21228679.3984   21228685.1854
  21921750.935    -9166457.68949  -7132403.77949  21921751.9964   21921758.0604
  24403231.409     -432573.67649   -332114.45749  24403232.2304   24403238.7664
  23274815.623     5953575.17849   4642278.67049  23274816.6714   23274821.8064
  20955718.187    -7427084.93349  -5661559.24049  20955719.5254   20955724.9324
  23508943.437    15616210.99249  12039503.24149  23508944.9434   23508951.3134
  24361460.229    -6361476.31149  -4704378.57949  24361461.0694   24361469.6464
 96  4 20 16 56 30.0010000  0  7 19  2 16 31 27 18  7
  21235457.717     2601457.62549   2027455.38649  21235459.8014   21235465.3184
  21916834.129    -9192295.84649  -7152537.40049  21916835.1904   21916841.8604
  24411133.464     -391039.92449   -299750.53549  24411135.1174   24411143.2024
  23290422.747     6035590.88249   4706186.98749  23290423.9344   23290429.0664
  20951112.652    -7451288.24549  -5680418.96049  20951113.7144   20951119.0064
  23530580.307    15729917.03249  12128105.30749  23530582.5124   23530590.0424
  24342548.564    -6460854.66349  -4781816.20749  24342550.1924   24342558.0044
 96  4 20 16 57  0.0010000  0  7 19  2 16 31 27 18  7
  21242295.597     2637388.71149   2055453.62549  21242297.0654   21242302.8044
  21911964.422    -9217884.87149  -7172476.89149  21911965.5184   21911972.4084
  24419120.786     -349067.77549   -267044.98949  24419122.2934   24419128.9864
  23306111.750     6118039.33149   4770432.50949  23306113.0624   23306118.7264
  20946560.134    -7475209.72649  -5699059.07849  20946561.4204   20946566.8724
  23552251.381    15843803.56749  12216848.01849  23552254.3524   23552261.3464
  24323648.606    -6560175.40149  -4859208.94249  24323649.7744   24323657.7754
 96  4 20 16 57 30.0010000  0  7 19  2 16 31 27 18  7
  21249192.998     2673635.89949   2083698.17749  21249194.9344   21249200.5714
  21907143.239    -9243220.69449  -7192219.08149  21907144.5074   21907151.1094
  24427190.910     -306659.95749   -233999.96849  24427192.5894   24427199.8804
  23321883.703     6200918.77149   4835013.86449  23321885.0304   23321890.5824
  20942059.002    -7498864.47849  -5717491.35349  20942060.1494   20942065.5524
  23573959.076    15957874.87749  12305734.70149  23573960.7294   23573969.1374
  24304758.163    -6659440.33749  -4936558.20049  24304760.5864   24304768.9194
 96  4 20 16 58  0.0010000  0  7 19  2 16 31 27 18  7
  21256147.460     2710180.29349   2112174.31949  21256148.7864   21256154.9114
  21902365.947    -9268328.16049  -7211783.32249  21902366.7394   21902373.0254
  24435336.698     -263853.31449   -200644.17949  24435338.6954   24435345.7494
  23337734.183     6284215.17449   4899920.12749  23337735.2784   23337741.2024
  20937603.362    -7522274.61249  -5735733.01549  20937605.1814   20937610.7754
  23595700.364    16072123.48049  12394759.54349  23595702.7994   23595709.5464
  24285877.584    -6758662.01849  -5013873.74849  24285878.7034   24285887.5664
 96  4 20 16 58 30.0010000  0  7 19  2 16 31 27 18  7
  21263155.634     2747010.17549   2140872.92249  21263157.4994   21263163.5464
  21897633.681    -9293194.79549  -7231159.90549  21897634.8094   21897641.0934
  24443555.387     -220665.25549   -166991.19849  24443556.9284   24443564.8594
  23353664.306     6367927.74749   4965150.68049  23353665.2054   23353671.3704
  20933195.635    -7545438.31249  -5753782.64949  20933197.3164   20933202.9584
  23617477.887    16186561.51749  12483931.97749  23617479.0694   23617486.6824
  24267006.657    -6857828.69949  -5091146.43649  24267007.5154   24267016.5744
 96  4 20 16 59  0.0010000  0  7 19  2 16 31 27 18  7
  21270220.333     2784136.39749   2169802.44149  21270222.4574   21270228.3054
  21892949.865    -9317805.94049  -7250337.40949  21892951.4894   21892957.7824
  24451846.501     -177094.39249   -133039.91049  24451847.7674   24451856.3184
  23369673.528     6452057.71349   5030706.47649  23369674.4714   23369680.7354
  20928836.193    -7568347.66749  -5771634.09649  20928837.7424   20928843.4794
  23639293.424    16301202.92549  12573262.90249  23639294.9374   23639302.7814
  24248148.297    -6956930.95149  -5168368.91849  24248149.0704   24248158.0614
 96  4 20 16 59 30.0010000  0  7 19  2 16 31 27 18  7
  21277338.387     2821540.38549   2198948.38749  21277340.1004   21277346.1054
  21888312.797    -9342173.57649  -7269325.17449  21888314.1874   21888320.7744
  24460208.440     -133147.85449    -98795.90149  24460210.9174   24460218.4784
  23385761.884     6536602.07849   5096585.17849  23385763.4944   23385768.8914
  20924522.421    -7591018.34249  -5789299.55349  20924523.7134   20924529.3824
  23661144.364    16416027.72449  12662736.71949  23661145.5504   23661153.8094
  24229301.621    -7055967.10049  -5245539.89449  24229303.5254   24229312.3014
 96  4 20 17  0  0.0010000  0  7 19  2 16 31 27 18  7
  21284505.863     2859207.05549   2228299.02949  21284507.4394   21284513.7044
  21883721.435    -9366300.82649  -7288125.61949  21883722.8234   21883729.3844
  24468642.692      -88831.11749    -64263.42749  24468643.5374   24468651.4824
  23401927.062     6621547.89949   5162776.70749  23401928.1694   23401933.8114
  20920258.677    -7613426.77449  -5806760.67049  20920259.6924   20920265.2194
  23683027.375    16531027.42449  12752346.83149  23683029.2174   23683036.6934
  24210473.742    -7154911.44749  -5322639.32349  24210475.2474   24210483.3604
 96  4 20 17  0 30.0010000  0  7 19  2 16 31 27 18  7
  21291724.591     2897142.70149   2257859.25849  21291726.5524   21291732.7214
  21879180.201    -9390167.88649  -7306723.32149  21879181.4834   21879187.6864
  24477148.283      -44129.70249    -29431.18949  24477149.8304   24477158.4024
  23418167.857     6706895.51449   5229281.32949  23418168.6984   23418174.8314
  20916045.440    -7635565.49649  -5824011.62249  20916046.6914   20916052.2924
  23704944.841    16646202.25049  12842093.39949  23704946.5094   23704953.8284
  24191664.694    -7253751.88149  -5399657.79649  24191665.9594   24191675.0114
 96  4 20 17  1  0.0010000  0  7 19  2 16 31 27 18  7
  21298997.824     2935359.08649   2287638.24249  21298999.1754   21299004.7164
  21874687.611    -9413779.54349  -7325122.00349  21874688.4844   21874694.6874
  24485732.000         979.67949      5718.94949  24485733.3984   24485741.9844
  23434485.028     6792645.88949   5296099.78949  23434486.5674   23434492.3834
  20911882.317    -7657442.41049  -5841058.56749  20911883.7374   20911889.2944
  23726894.615    16761549.37849  12931974.22849  23726895.6114   23726903.6184
  24172874.244    -7352499.92649  -5476604.28249  24172875.1644   24172883.5154
 96  4 20 17  1 30.0010000  0  7 19  2 16 31 27 18  7
  21306323.136     2973856.52549   2317636.23249  21306324.8144   21306330.7614
  21870242.243    -9437137.18649  -7343322.75749  21870243.4484   21870249.4714
  24494392.336       46491.46949     41182.62149  24494394.2514   24494402.7814
  23450881.482     6878809.99649   5363240.63449  23450882.9004   23450889.1734
  20907768.815    -7679060.06749  -5857903.49649  20907770.1694   20907775.5214
  23748875.370    16877056.63049  13021979.83249  23748876.6544   23748884.2144
  24154100.070    -7451159.38949  -5553481.73749  24154101.6314   24154108.9304
 96  4 20 17  2  0.0010000  0  7 19  2 16 31 27 18  7
  21313699.793     3012621.78649   2347842.90449  21313701.6854   21313707.4764
  21865846.275    -9460238.36849  -7361323.66849  21865847.5294   21865853.6184
  24503125.801       92381.66849     76941.17749  24503127.3874   24503135.9274
  23467354.272     6965374.25949   5430693.29449  23467355.7434   23467361.4934
  20903703.666    -7700422.58949  -5874549.62249  20903705.0064   20903710.2614
  23770884.700    16992714.21649  13112102.57149  23770885.9354   23770893.4434
  24135339.012    -7549746.21249  -5630302.59749  24135340.6994   24135349.1494
 96  4 20 17  2 30.0010000  0  7 19  2 16 31 27 18  7
  21321128.231     3051657.37149   2378260.22049  21321129.7174   21321135.3204
  21861497.932    -9483088.61749  -7379129.04849  21861498.9864   21861505.3824
  24511928.667      138641.57849    112987.81849  24511929.8674   24511937.9514
  23483903.777     7052341.48249   5498459.94249  23483904.6164   23483910.7534
  20899682.816    -7721551.11649  -5891013.41149  20899684.2174   20899689.5474
  23792921.446    17108515.76349  13202337.49249  23792922.2134   23792929.3734
  24116587.595    -7648286.62349  -5707087.29149  24116589.3284   24116596.4204
 96  4 20 17  3  0.0010000  0  7 19  2 16 31 27 18  7
  21328608.541     3090967.39049   2408891.38249  21328610.3234   21328615.9574
  21857195.467    -9505695.04149  -7396744.44149  21857196.9514   21857203.5524
  24520801.140      185262.73949    149315.96049  24520801.7624   24520810.0204
  23500531.385     7139718.47049   5566545.88449  23500532.5334   23500538.3214
  20895708.401    -7742437.28649  -5907288.35449  20895709.7714   20895715.1524
  23814984.485    17224456.21049  13292680.64249  23814984.7784   23814992.0324
  24097846.305    -7746770.39349  -5783827.84649  24097848.1794   24097856.0254
 96  4 20 17  3 30.0010000  0  7 19  2 16 31 27 18  7
  21336142.505     3130557.47149   2439740.77549  21336144.1374   21336149.8614
  21852943.392    -9528042.95949  -7414158.40649  21852944.6654   21852951.2284
  24529740.636      232243.71349    185924.47949  24529742.1624   24529751.1784
  23517238.881     7227518.52449   5634961.49649  23517239.9694   23517246.1434
  20891785.401    -7763051.98249  -5923351.75449  20891786.8104   20891792.5554
  23837073.925    17340539.09849  13383134.77349  23837075.1614   23837081.8964
  24079124.240    -7845155.20449  -5860491.29449  24079125.8704   24079134.1794
 96  4 20 17  4  0.0010000  0  7 19  2 16 31 27 18  7
  21343728.189     3170421.14449   2470803.36849  21343729.7914   21343735.4614
  21848739.407    -9550136.25449  -7431373.95749  21848740.5564   21848746.7014
  24538750.435      279588.14849    222816.21049  24538752.0094   24538760.6224
  23534025.984     7315735.03449   5703701.61649  23534026.9314   23534033.2304
  20887915.936    -7783387.70649  -5939197.77249  20887917.2444   20887922.9224
  23859191.064    17456765.57149  13473700.79749  23859192.0014   23859198.4054
  24060420.716    -7943440.72649  -5937077.36749  24060422.2944   24060430.9004
 96  4 20 17  4 30.0010000  0  7 19  2 16 31 27 18  7
  21351368.007     3210568.42949   2502086.95549  21351370.0494   21351375.2924
  21844583.103    -9571977.99149  -7448393.49049  21844584.4054   21844590.3314
  24547834.330      327321.55749    260011.04849  24547834.9634   24547844.1714
  23550891.495     7404365.29449   5772764.13349  23550893.0464   23550898.7864
  20884100.924    -7803436.58849  -5954820.28049  20884101.8374   20884107.5384
  23881334.808    17573128.16249  13564372.89349  23881335.0054   23881342.2394
  24041739.334    -8041614.12349  -6013576.07549  24041740.7394   24041749.7504
 96  4 20 17  5  0.0010000  0  7 19  2 16 31 27 18  7
  21359058.403     3250981.40149   2533577.57049  21359060.1964   21359065.7774
  21840473.630    -9593575.01649  -7465222.34349  21840474.3714   21840480.4154
  24556990.138      375438.17149    297504.45449  24556991.8264   24557000.0534
  23567835.074     7493405.40849   5842146.01449  23567836.2444   23567842.5994
  20880340.716    -7823191.40349  -5970213.64549  20880342.3084   20880348.2104
  23903502.661    17689622.99249  13655148.01849  23903503.5304   23903509.3384
  24023079.093    -8139673.10949  -6089985.63449  24023080.6744   24023089.3894
 96  4 20 17  5 30.0010000  0  7 19  2 16 31 27 18  7
  21366797.152     3291650.82649   2565268.02449  21366799.1384   21366805.0884
  21836410.983    -9614920.01849  -7481854.80549  21836412.2884   21836418.3504
  24566221.856      423949.52249    335305.45949  24566223.1614   24566232.0264
  23584856.185     7582850.99749   5911843.84549  23584857.3804   23584863.6494
  20876639.325    -7842643.86649  -5985371.41149  20876640.6194   20876646.6034
  23925696.347    17806253.72349  13746029.04949  23925697.6944   23925703.9044
  24004439.930    -8237620.19549  -6166308.00849  24004441.5804   24004450.6054
 96  4 20 17  6  0.0010000  0  7 19  2 16 31 27 18  7
  21374584.887     3332573.73849   2597155.99349  21374586.4254   21374592.4344
  21832397.488    -9636012.09549  -7498290.18449  21832398.5734   21832404.8164
  24575527.701      472852.15849    373411.35349  24575528.7444   24575536.4064
  23601952.336     7672692.67249   5981850.32149  23601954.2884   23601959.8564
  20872995.544    -7861793.12749  -6000292.91349  20872996.8834   20873002.6714
  23947917.126    17923027.71849  13837021.70449  23947918.8304   23947925.0494
  23985820.464    -8335468.44849  -6242553.36749  23985821.6234   23985830.6114
 96  4 20 17  6 30.0010000  0  7 19  2 16 31 27 18  7
  21382419.927     3373751.05149   2629242.20649  21382422.4314   21382428.2944
  21828430.086    -9656861.07749  -7514536.13349  21828431.1034   21828437.8544
  24584905.729      522133.23949    411812.15049  24584906.7014   24584915.1054
  23619124.952     7762932.18849   6052166.79649  23619125.8634   23619131.8764
  20869408.616    -7880645.36849  -6014982.97649  20869409.7324   20869414.9754
  23970166.122    18039945.06149  13928126.06449  23970166.7744   23970173.9454
  23967221.026    -8433210.20249  -6318715.72349  23967222.1764   23967230.4514
 96  4 20 17  7  0.0010000  0  7 19  2 16 31 27 18  7
  21390307.203     3415197.08549   2661537.80249  21390308.9994   21390315.2824
  21824508.849    -9677465.91849  -7530591.85349  21824509.9394   21824516.9334
  24594352.528      571777.18949    450495.71049  24594354.0314   24594361.7174
  23636374.088     7853574.18549   6122796.89149  23636374.6414   23636380.6614
  20865876.347    -7899203.94949  -6029444.20749  20865878.0884   20865883.5964
  23992444.270    18157021.61349  14019354.47749  23992445.9974   23992453.6534
  23948641.876    -8530846.86249  -6394796.19849  23948642.8754   23948650.7564
 96  4 20 17  7 30.0010000  0  7 19  2 16 31 27 18  7
  21398248.008     3456923.33349   2694051.75349  21398249.4244   21398255.3174
  21820634.072    -9697828.68049  -7546458.93249  21820635.2654   21820642.2654
  24603864.801      621767.00249    489448.77549  24603866.1554   24603875.4754
  23653692.154     7944583.37149   6193713.11149  23653693.3774   23653699.6814
  20862398.152    -7917485.46749  -6043689.54049  20862399.2894   20862404.6724
  24014750.386    18274238.02349  14110691.87049  24014751.0314   24014758.6124
  23930082.079    -8628378.70149  -6470795.00349  23930082.7884   23930090.9994
 96  4 20 17  8  0.0010000  0  7 19  2 16 31 27 18  7
  21406247.966     3498964.70149   2726811.25449  21406249.5194   21406255.7244
  21816805.666    -9717947.60149  -7562136.00749  21816806.8224   21816813.6414
  24613441.593      672096.65249    528666.65749  24613443.8724   24613452.1354
  23671079.860     8035958.56349   6264914.53149  23671081.2664   23671087.3444
  20858971.443    -7935494.03549  -6057722.18749  20858972.3924   20858977.7324
  24037082.743    18391601.56549  14202143.91049  24037084.8544   24037092.6154
  23911545.693    -8725789.98449  -6546699.85649  23911546.5584   23911554.1644
 96  4 20 17  8 30.0010000  0  7 19  2 16 31 27 18  7
  21414310.297     3541334.51549   2759826.69149  21414312.1334   21414318.2214
  21813024.501    -9737818.54549  -7577619.84849  21813025.8124   21813031.8154
  24623083.677      722766.76949    568149.82149  24623085.8394   24623093.9504
  23688538.199     8127699.27549   6336400.77949  23688539.2274   23688544.8364
  20855594.298    -7953239.27149  -6071549.64649  20855595.5334   20855601.0984
  24059442.993    18509106.18649  14293705.88149  24059445.0084   24059453.0494
  23893033.525    -8823069.19049  -6622501.79849  23893035.3864   23893042.5804
 96  4 20 17  9  0.0010000  0  7 19  2 16 31 27 18  7
  21422436.126     3584032.97549   2793098.21349  21422437.7854   21422443.3824
  21809291.562    -9757435.82349  -7592906.02849  21809292.3584   21809298.5624
  24632792.261      773782.30649    607902.13749  24632793.9964   24632801.4594
  23706062.419     8219789.80549   6408159.60749  23706063.2234   23706068.8784
  20852268.583    -7970715.44549  -6085167.44849  20852269.7954   20852275.3574
  24081829.166    18626749.43549  14385375.88149  24081832.0654   24081840.2694
  23874548.991    -8920207.53549  -6698193.98249  23874550.3424   23874557.7364
 96  4 20 17  9 30.0010000  0  7 19  2 16 31 27 18  7
  21430622.462     3627052.55949   2826619.95649  21430623.8534   21430629.5434
  21805605.667    -9776804.87449  -7607998.78349  21805606.7604   21805612.7134
  24642566.684      825141.20149    647922.00849  24642568.2004   24642574.5774
  23723653.869     8312235.71349   6480195.36049  23723655.3384   23723660.7314
  20848996.382    -7987910.82049  -6098566.44449  20848997.6374   20849003.1454
  24104238.768    18744509.84449  14477137.18449  24104241.0214   24104249.3614
  23856092.693    -9017196.45449  -6773769.72649  23856093.8734   23856100.9084
 96  4 20 17 10  0.0010000  0  7 19  2 16 31 27 18  7
  21438866.432     3670379.93349   2860381.54749  21438868.7854   21438874.8594
  21801965.507    -9795933.20349  -7622903.96549  21801966.4894   21801973.0714
  24652407.087      876853.93249    688217.59649  24652407.4554   24652416.6714
  23741318.201     8405061.60249   6552527.20049  23741319.6454   23741325.0304
  20845778.452    -8004820.13049  -6111742.52849  20845780.0804   20845785.4784
  24126672.003    18862395.17749  14568995.82349  24126674.2774   24126681.5194
  23837662.386    -9114048.64049  -6849238.92649  23837663.7184   23837669.6484
 96  4 20 17 10 30.0010000  0  7 19  2 16 31 27 18  7
  21447166.728     3713993.46849   2894366.11049  21447168.2934   21447174.3454
  21798371.381    -9814821.48849  -7637622.09849  21798372.3894   21798378.4574
  24662314.488      928920.05749    728788.54949  24662314.8374   24662323.7844
  23759055.566     8498274.60649   6625160.68449  23759056.8534   23759063.1014
  20842618.060    -8021428.36849  -6124684.01049  20842619.5434   20842624.9324
  24149127.615    18980399.71449  14660947.35349  24149129.6744   24149136.8254
  23819257.721    -9210767.91849  -6924604.56249  23819259.0464   23819265.0934
 96  4 20 17 11  0.0010000  0  7 19  2 16 31 27 18  7
  21455517.674     3757876.86749   2928560.95649  21455519.0864   21455525.1014
  21794820.214    -9833482.20649  -7652162.91049  21794821.4634   21794827.7404
  24672287.150      981329.98449    769627.41349  24672288.1014   24672297.4724
  23776867.012     8591872.57549   6698094.13949  23776867.9714   23776874.5444
  20839517.274    -8037724.34249  -6137382.17849  20839518.4994   20839524.0994
  24171602.816    19098502.56249  14752975.48949  24171604.2814   24171611.2264
  23800874.319    -9307371.85049  -6999880.30249  23800875.4214   23800882.0454
 96  4 20 17 11 30.0010000  0  7 19  2 16 31 27 18  7
  21463920.395     3802035.17249   2962970.01949  21463922.0044   21463928.2404
  21791315.969    -9851894.90749  -7666510.46449  21791317.5134   21791323.5714
  24682327.223     1034085.26049    810735.38949  24682328.2694   24682336.7274
  23794753.314     8685864.15349   6771334.31249  23794754.2734   23794760.5844
  20836476.640    -8053699.58849  -6149830.42149  20836478.3854   20836483.7954
  24194095.402    19216701.32949  14845078.37549  24194096.5834   24194103.5134
  23782510.574    -9403870.84649  -7075074.28149  23782511.4744   23782519.5164
 96  4 20 17 12  0.0010000  0  7 19  2 16 31 27 18  7
  21472374.525     3846460.83849   2997587.41049  21472376.1824   21472382.3494
  21787859.791    -9870059.67949  -7680664.82849  21787860.9974   21787867.3544
  24692431.292     1087185.08149    852111.85649  24692432.5724   24692441.1724
  23812709.653     8780226.29849   6844863.23949  23812710.9454   23812716.5504
  20833496.083    -8069364.72349  -6162037.02449  20833497.4744   20833503.0054
  24216607.983    19335000.50349  14937259.48449  24216609.0284   24216614.7674
  23764167.874    -9500264.41349  -7150186.10749  23764168.9214   23764176.5074
 96  4 20 17 12 30.0010000  0  7 19  2 16 31 27 18  7
  21480883.663     3891179.07249   3032432.77949  21480885.5164   21480891.7524
  21784453.150    -9887960.87549  -7694613.80549  21784454.4764   21784460.6034
  24702603.182     1140640.93049    893765.72849  24702604.8274   24702613.2904
  23830736.454     8874958.21949   6918680.30849  23830738.0864   23830744.1294
  20830579.344    -8084693.29649  -6173981.36749  20830580.8744   20830585.9384
  24239138.719    19453398.87749  15029517.90449  24239138.7794   24239145.9954
  23745853.568    -9596505.87849  -7225179.41749  23745855.1374   23745862.0264
 96  4 20 17 13  0.0010000  0  7 19  2 16 31 27 18  7
  21489447.451     3936181.83649   3067499.84749  21489449.4714   21489455.6404
  21781095.288    -9905605.85249  -7708363.13749  21781096.5304   21781102.9164
  24712842.778     1194443.81249    935690.00049  24712843.9704   24712852.0854
  23848829.429     8970038.03949   6992768.46049  23848830.7794   23848837.2504
  20827724.258    -8099699.00749  -6185674.12649  20827724.9914   20827730.4494
  24261687.317    19571891.47949  15121849.74249  24261687.4724   24261694.3454
  23727566.180    -9692604.97149  -7300061.78849  23727567.7344   23727575.0414
 96  4 20 17 13 30.0010000  0  7 19  2 16 31 27 18  7
  21498068.084     3981483.36049   3102799.72549  21498069.8894   21498076.1154
  21777787.209    -9922991.21449  -7721910.16649  21777788.0334   21777794.6974
  24723146.611     1248596.95549    977887.18949  24723148.0274   24723157.2414
  23866987.205     9065456.49649   7067120.48649  23866988.8684   23866995.0884
  20824926.224    -8114399.24349  -6197128.85249  20824927.5034   20824933.2694
  24284255.870    19690488.99849  15214263.32049  24284255.9724   24284262.8964
  23709308.805    -9788548.53849  -7374822.96749  23709310.5954   23709317.8384
 96  4 20 17 14  0.0010000  0  7 19  2 16 31 27 18  7
  21506743.048     4027070.46949   3138322.13449  21506744.9274   21506751.0724
  21774520.790    -9940154.38349  -7735284.05949  21774521.9884   21774528.4324
  24733514.902     1303080.57149   1020341.90249  24733515.8464   24733525.8474
  23885208.324     9161211.27049   7141734.56949  23885209.8414   23885215.3584
  20822185.033    -8128805.74849  -6208354.70149  20822186.4624   20822191.7894
  24306842.196    19809182.99549  15306752.09049  24306842.7564   24306849.3174
  23691081.428    -9884332.20349  -7449459.54349  23691083.2584   23691090.9244
 96  4 20 17 14 30.0010000  0  8 19  2 16 31 26 27 18  7
  21515475.735     4072961.15849   3174081.09449  21515477.5344   21515483.6964
  21771302.131    -9957071.26449  -7748466.04149  21771303.0604   21771309.2354
  24743946.399     1357898.20849   1063056.90349  24743946.9544   24743956.3674
  23903501.651     9257340.45649   7216640.40449  23903502.3924   23903508.4404
  25422552.284    -4197667.21259  -3259466.27759  25422554.8714   25422560.8584
  20819502.471    -8142906.21849  -6219342.08349  20819503.1834   20819508.8274
  24329451.472    19927995.97349  15399333.54849  24329452.9604   24329458.7834
  23672886.406    -9979946.79649  -7523964.38849  23672887.5334   23672895.5564
 96  4 20 17 15  0.0010000  0  8 19  2 16 31 26 27 18  7
  21524265.577     4119149.34949   3210071.86949  21524266.8974   21524272.9704
  21768130.982    -9973734.64849  -7761450.48749  21768132.2084   21768138.3844
  24754439.559     1413037.43149   1106022.48849  24754440.9104   24754448.7624
  23921866.331     9353849.73549   7291842.42149  23921867.0914   23921873.8004
  25406160.546    -4283806.41549  -3326587.71449  25406162.2544   25406169.1404
  20816871.309    -8156727.47149  -6230111.88449  20816873.1054   20816878.8154
  24352085.894    20046942.07649  15492018.75349  24352087.1414   24352093.7174
  23654720.034   -10075411.48249  -7598352.41849  23654721.5484   23654729.6324
 96  4 20 17 15 30.0010000  0  8 19  2 16 31 26 27 18  7
  21533110.219     4165633.47049   3246293.24049  21533112.5614   21533118.6254
  21765004.626    -9990165.75149  -7774253.93649  21765005.7174   21765011.8134
  24764990.183     1468483.62349   1149227.27249  24764992.3544   24764999.5484
  23940302.424     9450732.52149   7367335.48249  23940303.3454   23940310.4414
  25389807.784    -4369738.85849  -3393548.05049  25389809.9584   25389817.1934
  20814292.777    -8170281.51349  -6240673.47449  20814293.9994   20814299.2654
  24374740.085    20165991.44749  15584784.42349  24374740.5264   24374748.9664
  23636582.124   -10170727.21049  -7672624.37049  23636583.3834   23636591.7464
 96  4 20 17 16  0.0010000  0  8 19  2 16 31 26 27 18  7
  21542012.931     4212411.57049   3282743.68949  21542013.9224   21542020.3164
  21761922.691   -10006361.56149  -7786874.03849  21761923.7634   21761929.8394
  24775600.496     1524239.12349   1192673.09349  24775601.8414   24775610.6084
  23958809.322     9547984.35949   7443116.10149  23958810.1004   23958816.6394
  25373495.327    -4455464.92549  -3460347.57249  25373497.3484   25373502.0874
  20811769.025    -8183541.82049  -6251006.17949  20811770.4134   20811775.9594
  24397415.887    20285153.51049  15677637.89649  24397417.2684   24397424.6884
  23618473.599   -10265889.26349  -7746776.58449  23618474.6024   23618483.0054
 96  4 20 17 16 30.0010000  0  8 19  2 16 31 26 27 18  7
  21550969.454     4259481.28049   3319421.36649  21550970.9924   21550977.3654
  21758885.930   -10022318.84249  -7799308.27049  21758886.9664   21758893.3084
  24786268.668     1580303.94649   1236359.91049  24786269.9934   24786278.1814
  23977380.389     9645576.49849   7519161.90049  23977381.8504   23977388.5394
  25357219.050    -4540997.09249  -3526996.02049  25357220.7204   25357227.2694
  20809300.696    -8196514.34849  -6261114.63749  20809301.7964   20809307.5804
  24420109.900    20404416.65249  15770570.14549  24420112.3024   24420119.7044
  23600392.946   -10360902.09549  -7820812.52649  23600394.5794   23600401.8404
 96  4 20 17 17  0.0010000  0  8 19  2 16 31 26 27 18  7
  21559982.643     4306844.70649   3356327.91249  21559983.8134   21559990.0914
  21755890.698   -10038057.12249  -7811571.85549  21755891.8664   21755898.4444
  24796997.728     1636682.89849   1280291.51349  24796999.1194   24797007.7604
  23996008.468     9743469.07849   7595441.80349  23996009.8334   23996016.3204
  25340977.059    -4626351.51549  -3593505.95149  25340978.5764   25340985.2984
  20806889.452    -8209183.69549  -6270986.85549  20806891.0114   20806896.6234
  24442820.213    20523757.52149  15863562.95049  24442821.4534   24442829.8164
  23582342.767   -10455758.99549  -7894726.95549  23582343.9404   23582351.0234
 96  4 20 17 17 30.0010000  0  8 19  2 16 31 26 27 18  7
  21569053.965     4354515.80249   3393474.20949  21569055.8354   21569061.8744
  21752937.493   -10053575.92149  -7823664.41549  21752938.7164   21752945.1894
  24807788.294     1693388.86549   1324477.94249  24807789.6314   24807798.6294
  24014693.110     9841658.49349   7671953.01049  24014695.1414   24014701.0814
  25324772.075    -4711501.75049  -3659856.78349  25324775.3244   25324781.1324
  20804543.940    -8221511.22049  -6280592.72049  20804545.2304   20804550.5664
  24465544.407    20643172.50949  15956613.53149  24465545.8854   24465553.4784
  23564324.819   -10550443.59949  -7968507.13549  23564325.6054   23564333.9024
 96  4 20 17 18  0.0010000  0  8 19  2 16 31 26 27 18  7
  21578180.758     4402476.67949   3430846.29949  21578182.5564   21578188.5314
  21750027.306   -10068871.91549  -7835583.36649  21750028.1884   21750034.2414
  24818639.192     1750409.85349   1368909.83949  24818640.3414   24818649.7114
  24033431.963     9940132.55949   7748686.02149  24033433.7704   24033439.9914
  25308609.184    -4796446.81249  -3726047.71549  25308610.3954   25308615.9394
  20802260.932    -8233506.39849  -6289939.61249  20802262.5054   20802267.6954
  24488283.588    20762666.86449  16049725.94349  24488285.4264   24488293.6854
  23546337.596   -10644965.37849  -8042160.45249  23546338.9904   23546346.2874
 96  4 20 17 18 30.0010000  0  8 19  2 16 31 26 27 18  7
  21587364.040     4450736.33149   3468451.21549  21587366.1014   21587371.7374
  21747161.835   -10083927.64549  -7847315.08949  21747163.0984   21747169.2444
  24829552.082     1807751.95649   1413591.95449  24829552.5824   24829561.4864
  24052230.646    10038914.71349   7825659.10349  24052232.3914   24052238.4454
  25292485.840    -4881171.70949  -3792067.09749  25292487.9644   25292493.8714
  20800042.668    -8245164.57149  -6299023.90049  20800044.0214   20800049.5824
  24511038.108    20882241.14849  16142900.64349  24511039.8914   24511047.8294
  23528385.339   -10739302.60249  -8115669.95249  23528387.2014   23528394.8574
 96  4 20 17 19  0.0010000  0  8 19  2 16 31 26 27 18  7
  21596603.350     4499286.13749   3506282.22049  21596604.6964   21596610.6174
  21744342.693   -10098742.43849  -7858859.07749  21744343.6924   21744350.1634
  24840520.829     1865394.95749   1458508.54349  24840521.3314   24840531.1414
  24071086.377    10138003.09049   7902870.79949  24071087.4434   24071094.1294
  25276403.800    -4965684.86149  -3857921.47949  25276406.0174   25276411.0564
  20797887.249    -8256490.43849  -6307849.25249  20797888.6494   20797894.0114
  24533805.478    21001884.46449  16236129.13249  24533806.7584   24533815.6684
  23510467.395   -10833463.02449  -8189041.69649  23510468.8954   23510475.3274
 96  4 20 17 19 30.0010000  0  8 19  2 16 31 26 27 18  7
  21605896.638     4548125.06349   3544338.51549  21605898.5384   21605904.1134
  21741572.750   -10113296.52649  -7870199.92349  21741574.2214   21741580.8204
  24851546.597     1923336.60449   1503657.84349  24851547.9454   24851556.4214
  24090006.359    10237423.34449   7980341.09949  24090007.0264   24090012.8074
  25260361.366    -5049986.12949  -3923610.74449  25260363.0904   25260370.2834
  20795795.426    -8267483.84949  -6316415.54849  20795796.9884   20795802.1114
  24556588.234    21121609.50149  16329421.28249  24556589.0444   24556598.2294
  23492585.297   -10927433.58849  -8262265.49349  23492587.0714   23492594.3584
 96  4 20 17 20  0.0010000  0  8 19  2 16 31 26 27 18  7
  21615244.729     4597248.94849   3582616.85649  21615246.7034   21615252.3374
  21738854.023   -10127587.33549  -7881335.61649  21738855.1604   21738861.1224
  24862628.104     1981568.13849   1549033.03549  24862628.7124   24862637.6614
  24108988.433    10337177.20149   8058071.34049  24108988.7064   24108995.3384
  25244355.105    -5134099.90549  -3989153.90049  25244356.7174   25244364.0994
  20793765.092    -8278155.24249  -6324730.91749  20793766.2684   20793771.4694
  24579387.435    21241420.25749  16422780.25349  24579388.9534   24579397.4374
  23474738.008   -11021219.97049  -8335345.76949  23474740.0434   23474747.0024
 96  4 20 17 20 30.0010000  0  8 19  2 16 31 26 27 18  7
  21624648.856     4646666.31149   3621123.87949  21624650.6254   21624656.6574
  21736184.079   -10141618.20349  -7892268.75949  21736185.0054   21736190.9964
  24873763.036     2040084.46749   1594630.13349  24873764.2294   24873772.4694
  24128032.427    10437257.73949   8136056.14549  24128033.9144   24128040.4804
  25228383.991    -5218027.18449  -4054551.75149  25228385.5074   25228392.7974
  20791796.627    -8288497.61649  -6332789.90949  20791798.0934   20791803.4334
  24602200.881    21361303.85349  16516195.96449  24602202.4794   24602210.0684
  23456925.805   -11114823.10049  -8408283.25149  23456927.6944   23456935.8684
 96  4 20 17 21  0.0010000  0  8 19  2 16 31 26 27 18  7
  21634109.636     4696383.77649   3659864.75249  21634111.0924   21634117.1264
  21733561.486   -10155397.41349  -7903005.80449  21733562.8064   21733568.9474
  24884951.251     2098883.44249   1640447.48749  24884953.0954   24884961.3864
  24147137.977    10537659.79149   8214291.47349  24147139.8654   24147145.9264
  25212452.022    -5301752.14349  -4119791.93949  25212453.8804   25212461.2534
  20789891.390    -8298512.15349  -6340593.44149  20789892.6224   20789897.8254
  24625027.613    21481255.32649  16609664.55949  24625028.9504   24625036.0964
  23439146.943   -11208249.68949  -8481083.16649  23439149.4574   23439156.5814
 96  4 20 17 21 30.0010000  0  8 19  2 16 31 26 27 18  7
  21643629.473     4746412.30949   3698848.00949  21643631.5824   21643637.4584
  21730988.290   -10168920.48349  -7913543.26049  21730989.3254   21730995.2734
  24896199.840     2157995.06349   1686508.44049  24896201.9114   24896209.8034
  24166309.800    10638406.60549   8292795.46349  24166310.5154   24166317.8224
  25196564.749    -5385240.68349  -4184847.91749  25196565.7574   25196572.1314
  20788051.519    -8308179.89949  -6348126.74849  20788052.6524   20788057.9024
  24647869.674    21601293.18949  16703200.47949  24647870.8744   24647878.9044
  23421405.971   -11301484.37849  -8553733.55349  23421407.7944   23421414.8564
 96  4 20 17 22  0.0010000  0  8 19  2 16 31 26 27 18  7
  21653206.537     4796740.04849   3738064.41149  21653208.2524   21653214.3564
  21728457.707   -10182219.08149  -7923905.80449  21728458.7494   21728464.8854
  24907506.168     2217407.22949   1732803.60349  24907506.9844   24907515.7414
  24185542.701    10739477.45649   8371551.93149  24185543.8554   24185551.2804
  25180721.234    -5468492.13649  -4249719.14349  25180723.2434   25180729.7994
  20786274.697    -8317515.35149  -6355401.12949  20786276.2014   20786281.3844
  24670725.184    21721397.67049  16796788.31549  24670726.6074   24670734.2194
  23403695.617   -11394551.27649  -8626253.19149  23403697.5984   23403705.4294
 96  4 20 17 22 30.0010000  0  8 19  2 16 31 26 27 18  7
  21662840.533     4847367.74649   3777514.55049  21662842.3634   21662848.6204
  21725967.764   -10195301.96949  -7934100.26549  21725968.9634   21725975.7434
  24918869.614     2277123.30049   1779335.56349  24918870.8954   24918879.8954
  24204837.138    10840870.03849   8450559.10749  24204838.8774   24204845.0594
  25164927.667    -5551492.81949  -4314394.95449  25164928.1004   25164936.4334
  20784561.429    -8326516.80649  -6362415.25349  20784563.1284   20784568.5914
  24693591.199    21841557.91649  16890419.59749  24693592.3894   24693600.1634
  23386021.183   -11487434.97849  -8698630.08449  23386022.6864   23386030.3754
 96  4 20 17 23  0.0010000  0  8 19  2 16 31 26 27 18  7
  21672529.345     4898281.01649   3817187.21449  21672531.2314   21672536.9904
  21723517.598   -10208179.44949  -7944134.66349  21723518.5364   21723525.4124
  24930291.106     2337139.73049   1826101.56349  24930291.2534   24930299.9084
  24224191.475    10942580.08649   8529813.65649  24224192.5504   24224200.3564
  25149179.174    -5634244.76949  -4378876.96649  25149181.7614   25149188.1374
  20782911.231    -8335188.41849  -6369172.35649  20782912.8964   20782917.9954
  24716466.660    21961772.20249  16984092.99149  24716468.2214   24716475.5474
  23368381.304   -11580132.52449  -8770861.90949  23368382.9044   23368390.6364
 96  4 20 17 23 30.0010000  0  8 19  2 16 31 26 27 18  7
  21682273.240     4949485.74249   3857086.98549  21682275.2544   21682280.9504
  21721109.031   -10220837.20649  -7953997.85349  21721109.9924   21721116.5114
  24941767.547     2397453.10349   1873098.95649  24941769.1094   24941777.1474
  24243605.795    11044602.88849   8609311.90949  24243607.2384   24243614.0464
  25133478.063    -5716757.27049  -4443172.39849  25133480.4524   25133487.1174
  20781327.264    -8343516.25549  -6375661.57849  20781328.4044   20781333.5934
  24739354.580    22082046.01849  17077812.77649  24739355.9494   24739363.2544
  23350778.746   -11672634.73449  -8842941.53049  23350780.6634   23350787.7704
 96  4 20 17 24  0.0010000  0  8 19  2 16 31 26 27 18  7
  21692077.445     5001004.54749   3897231.49649  21692078.8784   21692084.7524
  21718745.424   -10233255.43749  -7963674.39349  21718746.8294   21718752.9264
  24953296.704     2458044.56749   1920313.04349  24953298.6764   24953307.5264
  24263078.070    11146925.26349   8689043.60149  24263079.0804   24263085.5134
  25117821.661    -5799036.14149  -4507285.79649  25117823.2624   25117830.1274
  20779809.090    -8351492.83849  -6381877.09549  20779810.6664   20779815.6394
  24762253.852    22202383.46749  17171582.14049  24762255.5874   24762263.0814
  23333215.755   -11764929.66349  -8914859.62949  23333216.9074   23333225.0184
 96  4 20 17 24 30.0010000  0  8 19  2 16 31 26 27 18  7
  21701938.657     5052825.20249   3937611.21749  21701940.1084   21701946.0244
  21716429.636   -10245428.07749  -7973159.55949  21716430.7114   21716436.6814
  24964877.360     2518897.55449   1967730.90549  24964878.6234   24964887.8894
  24282601.476    11249524.60449   8768991.10749  24282603.0544   24282609.9844
  25102204.432    -5881103.19749  -4571234.12949  25102207.2324   25102213.3114
  20778356.540    -8359127.96849  -6387826.55149  20778357.7524   20778362.7544
  24785162.478    22322768.20749  17265388.34749  24785163.8834   24785171.7284
  23315691.370   -11857020.02149  -8986618.32349  23315693.1924   23315699.8834
 96  4 20 17 25  0.0010000  0  8 19  2 16 31 26 27 18  7
  21711855.359     5104941.97649   3978221.68049  21711857.5234   21711863.2344
  21714158.668   -10257358.06649  -7982455.65049  21714160.0694   21714166.1824
  24976504.103     2579997.32149   2015341.07149  24976505.8654   24976514.8914
  24302175.176    11352385.36949   8849142.32349  24302177.1344   24302183.9794
  25086625.325    -5962973.41749  -4635029.09249  25086627.9394   25086633.8394
  20776967.204    -8366428.85649  -6393515.55449  20776968.6054   20776973.9144
  24808078.448    22443189.66749  17359223.17749  24808079.5474   24808086.8604
  23298204.305   -11948916.18049  -9058225.68349  23298205.4404   23298212.7464
 96  4 20 17 25 30.0010000  0  8 19  2 16 31 26 27 18  7
  21721836.305     5157386.42149   4019087.47449  21721837.6184   21721843.3374
  21711938.836   -10269023.65749  -7991545.71649  21711940.1374   21711946.6364
  24988180.385     2641352.14949   2063149.96649  24988180.5764   24988189.9364
  24321802.092    11455520.70949   8929507.50349  24321803.1674   24321809.3184
  25071085.008    -6044642.02249  -4698666.95149  25071085.9164   25071092.5184
  20775642.608    -8373389.35549  -6398939.32049  20775644.2104   20775649.3514
  24831004.474    22563665.78849  17453100.60449  24831005.3934   24831013.2214
  23280756.962   -12040602.54949  -9129669.56549  23280757.8904   23280765.3894
 96  4 20 17 26  0.0010000  0  8 19  2 16 31 26 27 18  7
  21731878.796     5210161.36949   4060210.80149  21731880.1984   21731885.9284
  21709766.088   -10280440.97549  -8000442.32149  21709767.4894   21709773.8834
  24999905.378     2702967.84649   2111162.16349  24999906.5134   24999915.7144
  24341480.166    11558933.08849   9010088.54949  24341481.7764   24341488.9094
  25055584.159    -6126095.68149  -4762137.31149  25055586.9684   25055591.8324
  20774380.678    -8380019.28349  -6404105.50349  20774382.0904   20774387.7674
  24853941.558    22684200.03749  17547023.31449  24853942.4664   24853949.5074
  23263350.791   -12132070.93849  -9200943.59849  23263352.4834   23263359.0954
 96  4 20 17 26 30.0010000  0  8 19  2 16 31 26 27 18  7
  21741977.961     5263237.19149   4101568.57449  21741980.1614   21741986.3794
  21707635.065   -10291643.08049  -8009171.22949  21707636.2024   21707642.3464
  25011679.349     2764843.96849   2159377.27749  25011680.7424   25011689.5834
  24361209.515    11662610.96349   9090876.48849  24361211.5984   24361216.8004
  25040124.339    -6207336.92049  -4825442.14449  25040126.1734   25040132.4404
  20773176.822    -8386345.44649  -6409034.98249  20773178.4074   20773183.9334
  24876885.021    22804766.02349  17640970.76049  24876885.5614   24876892.8364
  23245985.377   -12223326.66149  -9272051.92149  23245986.9624   23245993.6924
 96  4 20 17 27  0.0010000  0  8 19  2 16 31 26 27 18  7
  21752136.971     5316619.68549   4143165.31149  21752138.5914   21752144.5034
  21705543.142   -10302636.90049  -8017737.83749  21705544.2824   21705550.1224
  25023502.202     2826970.53649   2207787.54649  25023504.0124   25023512.9664
  24380991.244    11766564.54249   9171879.24949  24380992.5074   24380999.8464
  25024710.509    -6288339.56749  -4888561.05749  25024712.3814   25024717.2404
  20772031.467    -8392364.45449  -6413725.12249  20772032.9534   20772038.3274
  24899835.995    22925373.95949  17734950.88949  24899835.6364   24899843.5894
  23228660.879   -12314366.25049  -9342991.80749  23228662.2434   23228669.3324
 96  4 20 17 27 30.0010000  0  8 19  2 16 31 26 27 18  7
  21762356.032     5370321.49149   4185010.85449  21762357.5274   21762363.6244
  21703494.270   -10313401.68849  -8026125.98649  21703495.5424   21703501.5724
  25035378.840     2889377.24049   2256416.09949  25035379.3434   25035387.1724
  24400830.468    11870818.43949   9253116.01249  24400831.5804   24400838.6234
  25009349.453    -6369060.56549  -4951460.50449  25009351.6334   25009356.3214
  20770950.118    -8398047.20449  -6418153.24449  20770951.5474   20770956.7034
  24922798.836    23046049.66649  17828983.83049  24922800.1654   24922807.2554
  23211382.395   -12405162.06549  -9413741.74849  23211384.4814   23211390.9534
 96  4 20 17 28  0.0010000  0  8 19  2 16 31 26 27 18  7
  21772628.367     5424307.08749   4227077.53549  21772630.4204   21772636.3264
  21701484.051   -10323964.58449  -8034356.81449  21701485.3374   21701491.6774
  25047306.542     2952059.86549   2305259.67249  25047306.8774   25047316.3004
  24420721.578    11975343.79349   9334564.31549  24420722.0544   24420728.8944
  24994044.584    -6449495.83749  -5014137.31649  24994044.9874   24994049.8124
  20769933.014    -8403392.83949  -6422318.68149  20769934.3724   20769939.5864
  24945769.396    23166754.62649  17923039.56849  24945770.0144   24945776.2304
  23194149.061   -12495725.40849  -9484310.54249  23194150.7204   23194157.8654
 96  4 20 17 28 30.0010000  0  8 19  2 16 31 26 27 18  7
  21782954.903     5478571.95249   4269361.82149  21782956.3834   21782962.6554
  21699514.928   -10334313.50549  -8042420.90349  21699516.1134   21699522.1714
  25059288.282     3015024.85949   2354323.25449  25059289.5514   25059297.2664
  24440663.674    12080142.19849   9416225.37949  24440665.3554   24440671.2674
  24978790.400    -6529644.19549  -5076590.54349  24978793.5194   24978798.7354
  20768985.163    -8408371.97149  -6426198.52149  20768986.6974   20768992.3944
  24968742.531    23287484.32649  18017114.57849  24968743.8004   24968751.1344
  23176960.376   -12586056.94649  -9554698.69849  23176961.0784   23176968.7044
 96  4 20 17 29  0.0010000  0  8 19  2 16 31 26 27 18  7
  21793334.176     5533112.15049   4311860.65649  21793335.2914   21793341.6594
  21697585.343   -10344454.21749  -8050322.75349  21697586.4134   21697592.3634
  25071319.411     3078250.16249   2403589.68649  25071321.2184   25071329.6294
  24460656.306    12185205.37549   9498092.75749  24460657.8754   24460663.7434
  24963593.893    -6609509.42849  -5138823.15549  24963596.3744   24963600.7944
  20768109.287    -8412976.41049  -6429786.40049  20768110.4934   20768115.9054
  24991721.210    23408235.81149  18111206.57249  24991722.1004   24991729.9204
  23159811.066   -12676173.70449  -9624919.51049  23159812.8584   23159819.8834
 96  4 20 17 29 30.0010000  0  8 19  2 16 31 26 27 18  7
  21803763.469     5587918.48449   4354566.86349  21803764.9324   21803770.9934
  21695692.407   -10354400.99149  -8058073.48149  21695693.5834   21695699.6354
  25083399.113     3141729.36849   2453053.94149  25083400.3564   25083409.8204
  24480696.639    12290518.72349   9580155.06449  24480698.0864   24480705.2454
  24948445.706    -6689115.58749  -5200853.89549  24948447.9194   24948451.9764
  20767301.780    -8417219.83049  -6433092.96749  20767303.1994   20767308.3804
  25014700.380    23528989.41449  18205300.20149  25014701.6484   25014708.3274
  23142700.691   -12766088.53349  -9694982.97749  23142702.3754   23142709.6114
 96  4 20 17 30  0.0010000  0  8 19  2 16 31 26 27 18  7
  21814246.590     5643012.68149   4397497.39349  21814248.7784   21814254.9064
  21693838.879   -10364140.89149  -8065663.00549  21693840.0224   21693846.3804
  25095525.889     3205454.98449   2502710.24049  25095527.1934   25095535.5874
  24500786.677    12396092.81549   9662420.55649  24500788.9284   24500794.8424
  24933348.235    -6768452.08349  -5262674.50749  24933349.9884   24933355.3784
  20766565.216    -8421089.80649  -6436108.53449  20766566.7064   20766572.1344
  25037681.561    23649757.86849  18299405.40849  25037681.4754   25037689.1594
  23125630.097   -12855792.74249  -9764882.32149  23125632.1494   23125639.4444
 96  4 20 17 30 30.0010000  0  8 19  2 16 31 26 27 18  7
  21824789.183     5698411.37049   4440665.18449  21824790.8044   21824796.9694
  21692028.389   -10373656.71249  -8073077.92649  21692029.4554   21692035.8174
  25107696.969     3269416.12949   2552550.07149  25107698.8004   25107706.9574
  24520931.766    12501955.11449   9744910.61149  24520933.7244   24520940.7044
  24918304.320    -6847515.96749  -5324282.69749  24918304.6064   24918309.7574
  20765899.575    -8424586.79149  -6438833.46149  20765901.2624   20765906.3654
  25060671.384    23770574.41649  18393548.08949  25060672.3194   25060680.6124
  23108601.447   -12945279.58349  -9834612.29749  23108603.6864   23108610.6864
 96  4 20 17 31  0.0010000  0  8 19  2 16 31 26 27 18  7
  21835385.231     5754093.53649   4484053.87249  21835387.1994   21835393.2064
  21690258.198   -10382959.26049  -8080326.66349  21690259.1464   21690265.8254
  25119906.925     3333577.11649   2602545.62049  25119907.7634   25119915.9124
  24541127.643    12608081.84849   9827606.72649  24541129.0964   24541135.8494
  24903305.525    -6926331.31149  -5385697.22449  24903306.5594   24903311.9644
  20765297.443    -8427752.73449  -6441300.43449  20765298.6714   20765304.2464
  25083668.226    23891418.64249  18487712.32349  25083669.3644   25083676.5074
  23091611.426   -13034565.24849  -9904185.51249  23091612.8074   23091620.5334
 96  4 20 17 31 30.0010000  0  8 19  2 16 31 26 27 18  7
  21846040.099     5810081.48049   4527680.82649  21846041.1764   21846047.6984
  21688534.679   -10392013.54349  -8087381.94649  21688536.0544   21688542.8374
  25132161.167     3397975.99449   2652726.52549  25132163.0184   25132171.4304
  24561375.902    12714488.87849   9910521.25049  24561377.3464   24561384.0604
  24888355.053    -7004887.50749  -5446909.82449  24888358.1604   24888362.3004
  20764764.362    -8430553.74649  -6443483.04449  20764765.6364   20764771.6114
  25106672.356    24012310.77849  18581913.89749  25106674.0484   25106681.4384
  23074666.421   -13123613.46349  -9973573.70449  23074667.0204   23074674.3184
 96  4 20 17 32  0.0020000  0  8 19  2 16 31 26 27 18  7
  21856751.543     5866373.20349   4571544.49249  21856753.1884   21856759.4394
  21686861.081   -10400809.61649  -8094236.02649  21686862.1604   21686868.9674
  25144460.685     3462610.68849   2703091.20149  25144463.0214   25144471.9224
  24581676.473    12821168.44049   9993648.13149  24581678.1674   24581684.2124
  24873454.868    -7083188.91049  -5507923.86849  24873456.8884   24873462.8244
  20764302.080    -8432981.95049  -6445375.15649  20764303.5834   20764309.3584
  25129687.245    24133256.69849  18676157.37449  25129688.8894   25129697.3624
  23057766.605   -13212419.50849 -10042773.19349  23057768.3894   23057775.3404
 96  4 20 17 32 30.0020000  0  9 19  2 16 31 15 26 27 18  7
  21867516.679     5922946.88949   4615627.86749  21867518.6824   21867525.0044
  21685235.315   -10409352.94549  -8100893.17249  21685236.7334   21685242.6534
  25156801.500     3527458.13249   2753621.64249  25156802.6354   25156810.3114
  24602022.073    12928087.32349  10076961.50249  24602024.1604   24602030.8064
  25190181.810    -4916093.83759  -3821895.60159  25190183.3684   25190194.5654
  24858598.473    -7161256.80349  -5568755.98049  24858601.0724   24858606.6094
  20763906.387    -8435060.72149  -6446994.98149  20763908.1824   20763913.6724
  25152705.089    24254214.19149  18770409.86549  25152706.6864   25152713.8934
  23040912.189   -13300989.20749 -10111788.51949  23040913.3694   23040920.9734
 96  4 20 17 33  0.0020000  0  9 19  2 16 31 15 26 27 18  7
  21878339.271     5979817.13449   4659942.32149  21878340.8274   21878347.1324
  21683659.179   -10417634.93149  -8107346.66549  21683660.5384   21683666.8314
  25169183.050     3592525.81649   2804323.68649  25169184.9994   25169193.3764
  24622412.730    13035237.49649  10160455.10049  24622414.0404   24622420.7624
  25179671.553    -4971320.23849  -3864929.05049  25179671.5094   25179684.3614
  24843788.946    -7239081.95849  -5629398.95149  24843791.3284   24843795.9944
  20763580.331    -8436777.95249  -6448333.08449  20763581.4494   20763586.6534
  25175722.350    24375175.33049  18864665.20749  25175724.0064   25175733.7594
  23024106.346   -13389301.59649 -10180603.34049  23024108.1214   23024115.9194
 96  4 20 17 33 30.0020000  0  9 19  2 16 31 15 26 27 18  7
  21889217.548     6036983.33649   4704487.39549  21889219.0264   21889225.3344
  21682129.267   -10425676.00149  -8113612.43649  21682130.3174   21682136.3894
  25181605.641     3657806.92849   2855192.05749  25181607.2944   25181615.5004
  24642844.274    13142604.33449  10244117.51249  24642846.2364   24642851.0614
  25169207.621    -5026299.81349  -3907770.24049  25169212.8564   25169217.0234
  24829026.803    -7316654.25349  -5689844.88349  24829028.0234   24829034.8344
  20763321.090    -8438139.19349  -6449393.79149  20763322.4074   20763327.5474
  25198739.163    24496129.35449  18958914.98849  25198741.5444   25198749.7284
  23007348.855   -13477362.94249 -10249222.54549  23007350.8934   23007358.5134
 96  4 20 17 34  0.0020000  0  9 19  2 16 31 15 26 27 18  7
  21900150.262     6094437.52649   4749256.88249  21900152.1924   21900158.6434
  21680640.841   -10433497.07449  -8119706.77849  21680642.0734   21680648.4584
  25194064.520     3723277.91349   2906208.36949  25194065.3524   25194072.7794
  24663314.953    13250181.83649  10327944.09749  24663316.5564   24663322.6304
  25158793.361    -5081037.09249  -3950422.58149  25158795.2424   25158803.7724
  24814316.154    -7393961.04449  -5750083.92949  24814316.7874   24814324.2684
  20763124.451    -8439172.13549  -6450198.68049  20763125.8684   20763130.9094
  25221751.691    24617061.62849  19053147.84149  25221753.8464   25221762.7314
  22990637.893   -13565183.49349 -10317654.11349  22990639.3154   22990646.7204
 96  4 20 17 34 30.0020000  0  9 19  2 16 31 15 26 27 18  7
  21911139.640     6152189.15649   4794258.13349  21911142.0304   21911148.1704
  21679193.518   -10441106.64249  -8125636.31049  21679194.3594   21679200.2464
  25206561.627     3788952.40549   2957383.25849  25206562.9694   25206571.3944
  24683827.133    13357974.49449  10411938.33049  24683828.2724   24683834.7974
  25148426.077    -5135523.35749  -3992879.34649  25148427.8944   25148433.7264
  24799658.202    -7470984.52049  -5810102.19149  24799660.2504   24799668.4354
  20762991.211    -8439870.71649  -6450743.03349  20762993.2434   20762997.9944
  25244759.751    24737964.05749  19147357.42849  25244760.7554   25244769.3994
  22973974.306   -13652749.58049 -10385887.40149  22973975.9894   22973982.9554
 96  4 20 17 35  0.0020000  0  9 19  2 16 31 15 26 27 18  7
  21922187.676     6210240.74449   4839493.11149  21922189.1914   21922195.0444
  21677781.386   -10448525.35249  -8131417.12249  21677782.4444   21677788.9024
  25219103.108     3854852.20649   3008733.73549  25219104.0284   25219112.9114
  24704380.463    13465984.28549  10496101.75449  24704382.5754   24704388.2474
  25138106.987    -5189753.20349  -4035136.33549  25138108.1054   25138115.6144
  24785057.253    -7547713.69549  -5869891.12949  24785059.7444   24785066.6614
  20762923.911    -8440227.26049  -6451020.86349  20762925.3154   20762930.2394
  25267764.060    24858851.83049  19241555.58249  25267764.8834   25267773.8174
  22957360.274   -13740060.67249 -10453921.99449  22957361.3684   22957368.3084
 96  4 20 17 35 30.0020000  0  9 19  2 16 31 15 26 27 18  7
  21933293.608     6268602.95749   4884970.13449  21933295.0154   21933300.9704
  21676402.854   -10455766.92549  -8137059.90749  21676403.9934   21676410.6344
  25231690.908     3920999.47349   3060277.02449  25231692.0244   25231699.2694
  24724978.528    13574226.45349  10580446.25849  24724980.4604   24724987.2304
  25127835.659    -5243724.73749  -4077192.02249  25127837.5644   25127845.4334
  24770514.546    -7624141.22049  -5929445.01649  24770517.2484   24770522.9204
  20762924.252    -8440224.27349  -6451018.53749  20762925.8024   20762931.0434
  25290766.110    24979730.09149  19335746.32849  25290767.6034   25290777.7634
  22940791.543   -13827126.47149 -10521765.46149  22940793.3824   22940800.2934
 96  4 20 17 36  0.0020000  0  9 19  2 16 31 15 26 27 18  7
  21944460.396     6327287.69349   4930698.47649  21944462.4034   21944468.6334
  21675059.157   -10462826.89449  -8142561.18049  21675060.5694   21675067.0854
  25244326.265     3987397.42249   3112015.65149  25244326.4314   25244333.8494
  24745624.055    13682717.59249  10664984.75549  24745625.3834   24745632.2904
  25117614.294    -5297436.31549  -4119045.15649  25117616.4364   25117624.0694
  24756027.254    -7700274.62949  -5988769.72649  24756029.5444   24756035.1364
  20762994.671    -8439855.23749  -6450730.98249  20762995.7834   20763001.3414
  25313767.842    25100598.54349  19429929.42749  25313767.9204   25313777.5414
  22924272.996   -13913934.00249 -10589407.66449  22924274.4354   22924281.6664
 96  4 20 17 36 30.0020000  0  9 19  2 16 31 15 26 27 18  7
  21955692.868     6386313.86149   4976692.86449  21955694.5474   21955700.8664
  21673752.327   -10469696.11149  -8147913.81549  21673753.7324   21673760.0734
  25257007.394     4054040.62749   3163945.38049  25257008.6224   25257015.4744
  24766317.865    13791462.15249  10749720.73149  24766318.9764   24766325.2874
  25107443.591    -5350881.39549  -4160690.62949  25107445.2604   25107454.4394
  24741593.660    -7776123.35149  -6047872.59849  24741596.4424   24741601.2934
  20763138.012    -8439102.12749  -6450144.15049  20763139.5864   20763144.8334
  25336766.842    25221466.04049  19524111.78649  25336768.7524   25336777.5594
  22907804.482   -14000474.00149 -10656841.40849  22907806.4154   22907812.9834
 96  4 20 17 37  0.0020000  0  9 19  2 16 31 15 26 27 18  7
  21966988.634     6445670.02549   5022944.39049  21966989.7344   21966995.6754
  21672480.370   -10476382.68849  -8153124.13749  21672481.3834   21672487.4844
  25269731.661     4120903.79749   3216046.51349  25269731.7184   25269740.2984
  24787058.682    13900457.96149  10834652.49049  24787060.5244   24787066.7564
  25097321.713    -5404067.28149  -4202134.16149  25097326.1624   25097332.4054
  24727212.016    -7851697.72449  -6106761.70349  24727214.2554   24727220.5254
  20763354.697    -8437963.65849  -6449257.03349  20763355.9294   20763361.2344
  25359766.291    25342324.39949  19618287.02549  25359767.2824   25359775.8844
  22891385.425   -14086757.56249 -10724075.32249  22891386.9354   22891393.9144
 96  4 20 17 37 30.0020000  0  9 19  2 16 31 15 26 27 18  7
  21978349.889     6505374.71449   5069467.50349  21978351.1864   21978356.9304
  21671248.607   -10482852.73849  -8158165.73749  21671249.7244   21671255.9424
  25282494.317     4187981.21749   3268314.58949  25282496.1154   25282504.2844
  24807850.133    14009718.83849  10919790.78749  24807851.2204   24807858.0494
  25087259.474    -5456971.44149  -4243358.18349  25087257.5954   25087265.1224
  24712889.127    -7926967.72949  -6165413.64149  24712891.5924   24712896.5194
  20763648.028    -8436420.61549  -6448054.66849  20763649.3354   20763654.7384
  25382764.607    25463187.11549  19712465.65249  25382766.4494   25382775.0364
  22875020.150   -14172754.31949 -10791085.75149  22875022.2904   22875029.5284
 96  4 20 17 38  0.0020000  0  9 19  2 16 31 15 26 27 18  7
  21989772.758     6565409.20149   5116247.60149  21989775.0474   21989781.7784
  21670060.965   -10489093.00749  -8163028.28849  21670062.1864   21670068.9394
  25295293.428     4255236.83849   3320721.52149  25295294.3194   25295302.4554
  24828686.177    14119213.51849  11005111.27349  24828687.3644   24828695.5444
  25077244.296    -5509595.94749  -4284364.27249  25077242.0534   25077251.6944
  24698622.476    -8001940.78049  -6223834.18349  24698624.4444   24698629.7814
  20764015.254    -8434489.62249  -6446549.99849  20764017.0454   20764022.2394
  25405764.336    25584050.99449  19806645.18349  25405766.9254   25405774.6264
  22858713.058   -14258451.33149 -10857862.61549  22858714.8804   22858721.9624
 96  4 20 17 38 30.0020000  0  9 19  2 16 31 15 26 27 18  7
  22001252.347     6625731.74949   5163252.16249  22001254.0974   22001260.7104
  21668915.442   -10495115.40449  -8167721.07049  21668916.7304   21668922.8304
  25308122.069     4322651.05949   3373252.04549  25308123.1584   25308131.3924
  24849560.411    14228906.87349  11090586.57049  24849562.1514   24849569.1724
  25067277.287    -5561950.48149  -4325160.02349  25067278.7684   25067289.3954
  24684410.948    -8076623.92049  -6282028.82149  24684411.5704   24684417.9314
  20764456.080    -8432173.06449  -6444744.89049  20764457.8064   20764463.1954
  25428762.797    25704904.79749  19900816.85849  25428764.0534   25428773.0074
  22842458.779   -14343869.56449 -10924422.25249  22842460.0444   22842467.3364
 96  4 20 17 39  0.0020000  0  8 19  2 16 31 15 26 27  7
  22012786.338     6686339.37949   5210478.86649  22012787.7164   22012793.8794
  21667813.646   -10500904.49249  -8172232.04849  21667814.9944   21667820.9264
  25320986.202     4390251.13949   3425927.40649  25320987.3784   25320995.6594
  24870472.414    14338800.06549  11176217.57749  24870473.8824   24870481.4114
  25057372.136    -5614016.08449  -4365730.58849  25057373.0234   25057381.8184
  24670260.489    -8150981.23649  -6339969.56949  24670263.4884   24670267.6184
  20764970.652    -8429467.71249  -6442636.82149  20764972.3544   20764977.9574
  22826258.540   -14429003.10949 -10990760.05349  22826260.0564   22826266.6874
 96  4 20 17 39 30.0020000  0  8 19  2 16 31 15 26 27  7
  22024370.150     6747216.21349   5257915.33749  22024371.9614   22024378.5334
  21666753.873   -10506472.93949  -8176571.10249  21666755.2294   21666761.1514
  25333880.180     4458009.28649   3478725.94249  25333881.3754   25333890.0114
  24891415.582    14448855.62449  11261975.09949  24891417.2794   24891424.0394
  25047515.892    -5665812.82949  -4406091.65949  25047516.2144   25047526.1534
  24656170.086    -8225029.87049  -6397669.78149  24656171.3864   24656178.0644
  20765553.503    -8426408.98549  -6440253.40249  20765554.6124   20765560.1984
  22810105.764   -14513885.87749 -11056902.44649  22810107.0794   22810114.6084
 96  4 20 17 40  0.0020000  0  8 19  2 16 31 15 26 27  7
  22036007.742     6808376.87049   5305572.96549  22036010.1574   22036017.0994
  21665739.170   -10511806.69749  -8180727.27949  21665740.2404   21665746.3884
  25346809.419     4525951.77749   3531668.11949  25346810.3604   25346818.3924
  24912392.908    14559092.37549  11347873.81049  24912394.3104   24912401.1634
  25037715.003    -5717321.33349  -4446228.12649  25037715.2054   25037721.5404
  24642138.142    -8298767.06649  -6455127.32149  24642140.0184   24642145.7154
  20766208.027    -8422968.04249  -6437572.15149  20766209.3054   20766215.0294
  22794001.584   -14598512.36649 -11122845.13749  22794003.2724   22794010.1494
 96  4 20 17 40 30.0020000  0  7 19  2 31 15 26 27  7
  22047703.026     6869832.48949   5353460.43449  22047705.1514   22047711.7214
  21664766.967   -10516915.90249  -8184708.47649  21664768.1494   21664774.1694
  24933408.865    14669529.59549  11433928.74049  24933409.0294   24933416.3574
  25027967.473    -5768540.06949  -4486138.79049  25027968.7574   25027974.9364
  24628167.680    -8372181.13249  -6512333.06649  24628169.1704   24628176.0324
  20766934.569    -8419151.72849  -6434598.41049  20766935.7294   20766941.5274
  22777941.901   -14682908.18049 -11188608.08249  22777943.1574   22777950.6284
 96  4 20 17 41  0.0020000  0  7 19  2 31 15 26 27  7
  22059456.662     6931593.77249   5401586.08049  22059458.1334   22059464.6874
  21663833.865   -10521818.44749  -8188528.63849  21663835.0534   21663841.2284
  24954460.215    14780157.83649  11520132.50949  24954460.7454   24954468.8064
  25018273.587    -5819476.64349  -4525829.53749  25018274.6144   25018282.8294
  24614257.457    -8445282.76649  -6569295.35149  24614258.0594   24614264.5204
  20767727.768    -8414980.59949  -6431348.18549  20767729.3194   20767735.1454
  22761924.039   -14767080.80649 -11254197.11249  22761925.4514   22761932.6564
 96  4 20 17 41 30.0020000  0  7 19  2 31 15 26 27  7
  22071272.284     6993684.62849   5449968.54149  22071273.8134   22071280.1604
  21662943.796   -10526496.86849  -8192174.15849  21662944.7094   21662951.1274
  24975553.581    14891006.26849  11606507.86949  24975555.1134   24975562.3844
  25008639.571    -5870108.55449  -4565282.90749  25008642.0074   25008647.3294
  24600406.160    -8518070.57049  -6626013.10149  24600407.2174   24600413.2524
  20768595.616    -8410421.84449  -6427795.90649  20768597.1964   20768602.5424
  22745957.271   -14850986.38249 -11319578.05749  22745959.1544   22745965.8734
 96  4 20 17 42  0.0020000  0  7 19  2 31 15 26 27  7
  22083145.357     7056079.46549   5498587.87349  22083146.8304   22083153.3244
  21662093.656   -10530961.88649  -8195653.39649  21662095.2824   21662101.5104
  24996689.371    15002073.36449  11693053.60649  24996689.6144   24996697.9274
  24999062.443    -5920440.26049  -4604502.35349  24999063.7044   24999069.4594
  24586611.036    -8590561.03349  -6682499.14749  24586612.7624   24586619.0974
  20769533.931    -8405489.85449  -6423952.80249  20769535.3444   20769541.0744
  22730043.032   -14934614.53149 -11384742.81949  22730045.0394   22730052.2204
 96  4 20 17 42 30.0020000  0  7 19  2 31 15 26 27  7
  22095072.293     7118758.61249   5547428.74549  22095074.5024   22095080.8464
  21661282.157   -10535228.04649  -8198977.67549  21661283.3264   21661289.5314
  25017862.017    15113337.85249  11779753.15949  25017863.8844   25017870.6524
  24989538.421    -5970485.76849  -4643498.78849  24989539.4574   24989547.2524
  24572872.445    -8662753.02649  -6738752.63349  24572874.9584   24572881.0014
  20770538.116    -8400212.23949  -6419840.37949  20770539.4514   20770545.3134
  22714181.650   -15017966.87249 -11449692.66349  22714183.3964   22714190.5674
 96  4 20 17 43  0.0020000  0  7 19  2 31 15 26 27  7
  22107053.959     7181720.99149   5596490.31649  22107056.0364   22107062.0494
  21660512.939   -10539269.64749  -8202126.97849  21660514.2474   21660520.1924
  25039072.540    15224799.07749  11866606.02149  25039073.6774   25039080.4984
  24980071.662    -6020222.69449  -4682254.76849  24980073.0854   24980080.5474
  24559195.293    -8734635.72849  -6794765.10749  24559196.3524   24559203.3754
  20771614.604    -8394554.10349  -6415431.44649  20771616.0164   20771621.9474
  22698381.598   -15100992.45149 -11514387.89049  22698383.9544   22698391.8214
 96  4 20 17 43 30.0020000  0  7 19  2 31 15 26 27  7
  22119088.080     7244959.14749   5645766.77549  22119089.5954   22119096.5344
  21659787.560   -10543081.33549  -8205097.12649  21659788.7504   21659794.8014
  25060320.464    15336457.28149  11953612.35049  25060322.8184   25060329.8044
  24970667.434    -6069649.00849  -4720768.71949  24970668.6704   24970674.5274
  24545575.186    -8806206.82849  -6850534.78849  24545576.5384   24545583.8744
  20772766.253    -8388504.16649  -6410717.21049  20772767.5264   20772773.2544
  22682645.709   -15183688.21749 -11578826.12349  22682647.3304   22682655.0464
 96  4 20 17 44  0.0020000  0  7 19  2 31 15 26 27  7
  22131175.194     7308476.59249   5695260.86149  22131176.7994   22131183.3504
  21659103.942   -10546674.25449  -8207896.80549  21659105.3464   21659111.3304
  25081601.736    15448295.77449  12040759.18349  25081604.7294   25081611.0454
  24961321.760    -6118758.68949  -4759035.94349  24961323.6014   24961330.2034
  24532018.341    -8877445.26149  -6906045.23049  24532020.2504   24532025.8094
  20773993.939    -8382053.00349  -6405690.33149  20773995.3924   20774001.0754
  22666969.551   -15266067.35449 -11643017.63349  22666971.2784   22666978.8104
 96  4 20 17 44 30.0020000  0  7 19  2 31 15 26 27  7
  22143314.319     7372267.33349   5744967.90249  22143315.9324   22143322.5734
  21658454.891   -10550085.79549  -8210555.14849  21658456.0584   21658462.2814
  25102913.251    15560280.83649  12128020.21249  25102914.4704   25102921.8564
  24952033.789    -6167570.75249  -4797071.24649  24952035.2074   24952041.8644
  24518521.817    -8948368.76349  -6961310.28249  24518524.2464   24518530.8154
  20775296.623    -8375205.59949  -6400354.68749  20775298.5714   20775304.1854
  22651350.309   -15348149.58149 -11706977.78849  22651352.2724   22651359.0184
 96  4 20 17 45  0.0020000  0  6 19  2 15 26 27  7
  22155508.798     7436354.07749   5794905.59349  22155511.1444   22155517.7254
  21657839.131   -10553319.90049  -8213075.23049  21657840.4164   21657847.0734
  24942804.041    -6216063.91549  -4834858.06949  24942807.1374   24942811.9214
  24505085.580    -9018974.70949  -7016327.89749  24505089.0014   24505094.3534
  20776679.905    -8367938.19349  -6394691.77049  20776681.4704   20776687.1224
  22635789.964   -15429920.76849 -11770695.57249  22635791.5324   22635798.3834
 96  4 20 17 45 30.0020000  0  6 19  2 15 26 27  7
  22167765.322     7500762.28149   5845093.77649  22167767.6514   22167773.9314
  21657253.646   -10556395.13849  -8215471.52049  21657255.1164   21657262.0534
  24933637.259    -6264237.23649  -4872395.64649  24933638.7394   24933645.5854
  24491710.305    -9089262.43149  -7071097.52549  24491712.3284   24491719.8064
  20778140.097    -8360264.54649  -6388712.31049  20778141.6454   20778147.4324
  22620284.928   -15511401.47249 -11834187.01249  22620286.3774   22620293.0284
 96  4 20 17 46  0.0020000  0  6 19  2 15 26 27  7
  22180085.350     7565500.47049   5895539.09449  22180086.9644   22180093.2834
  21656699.232   -10559309.38449  -8217742.36149  21656700.5924   21656707.6284
  24924530.652    -6312087.64549  -4909681.64649  24924535.0024   24924537.3154
  24478397.089    -9159228.05949  -7125616.17349  24478398.3724   24478405.9164
  20779675.889    -8352194.37149  -6382423.86049  20779677.2564   20779683.1644
  22604835.529   -15592586.91949 -11897448.38049  22604837.1154   22604843.7534
 96  4 20 17 46 30.0020000  0  6 19  2 15 26 27  7
  22192467.813     7630568.98549   5946241.79849  22192469.2964   22192475.1754
  21656177.508   -10562051.39649  -8219878.99749  21656179.0764   21656185.7374
  24915487.579    -6359619.88049  -4946719.73249  24915489.4944   24915497.6694
  24465140.386    -9228886.66249  -7179895.58849  24465143.6434   24465150.3934
  20781283.964    -8343741.12449  -6375836.92149  20781285.7994   20781291.7854
  22589441.818   -15673479.43949 -11960481.50049  22589443.8604   22589450.5424
 96  4 20 17 47  0.0020000  0  6 19  2 15 26 27  7
  22204910.231     7695957.96949   5997194.23049  22204912.3314   22204918.4864
  21655691.478   -10564607.68549  -8221870.90649  21655692.6334   21655698.8814
  24906501.015    -6406834.96949  -4983510.68749  24906502.7484   24906511.3544
  24451947.562    -9298222.90149  -7233923.81049  24451948.6964   24451955.7924
  20782964.762    -8334910.30649  -6368955.77449  20782966.2704   20782971.8964
  22574103.200   -15754082.73149 -12023289.23949  22574105.2394   22574112.1344
 96  4 20 17 47 30.0020000  0  6 19  2 15 26 27  7
  22217414.415     7761670.36349   6048398.67249  22217416.7544   22217423.2454
  21655246.250   -10566946.31849  -8223693.21849  21655247.6244   21655253.6324
  24897576.780    -6453725.74649  -5020048.92049  24897580.9584   24897589.5104
  24438820.433    -9367203.91349  -7287675.22549  24438822.7624   24438829.2864
  20784718.774    -8325690.88349  -6361771.81549  20784720.7634   20784726.2194
  22558821.462   -15834387.56849 -12085864.41649  22558823.1474   22558830.7824
 96  4 20 17 48  0.0020000  0  6 19  2 15 26 27  7
  22229974.795     7827675.62449   6099831.31549  22229976.9614   22229983.2564
  21654844.991   -10569051.53449  -8225333.64149  21654846.6444   21654852.7754
  24888718.293    -6500287.74749  -5056330.93449  24888720.3584   24888728.3624
  24425762.832    -9435821.55649  -7341143.49249  24425765.6964   24425772.1974
  20786550.038    -8316071.74349  -6354276.39449  20786551.5934   20786556.9114
  22543599.882   -15914377.79849 -12148194.44049  22543601.8574   22543609.1864
 96  4 20 17 48 30.0020000  0  6 19  2 15 26 27  7
  22242587.464     7893951.78249   6151475.05149  22242589.0724   22242595.7164
  21654487.176   -10570933.40049  -8226800.03549  21654488.7474   21654494.7464
  24879919.657    -6546519.35349  -5092355.54349  24879923.0724   24879929.8034
  24412776.233    -9504070.06149  -7394324.12649  24412778.2104   24412785.6774
  20788457.627    -8306046.99749  -6346464.91749  20788459.1144   20788464.5284
  22528438.357   -15994053.46549 -12210279.35549  22528440.0544   22528447.4444
 96  4 20 17 49  0.0020000  0  6 19  2 15 26 27  7
  22255248.135     7960484.48849   6203318.68949  22255249.8554   22255256.3124
  21654172.238   -10572590.00849  -8228090.90249  21654173.4484   21654179.7414
  24871187.783    -6592416.63849  -5128119.63949  24871188.3974   24871196.6524
  24399862.011    -9571933.86949  -7447205.00349  24399864.2114   24399869.6274
  20790442.252    -8295615.26149  -6338336.29449  20790443.8664   20790449.6684
  22513336.712   -16073413.40349 -12272118.25149  22513338.6404   22513345.2664
 96  4 20 17 49 30.0020000  0  6 19  2 15 26 27  7
  22267955.847     8027263.97849   6255354.62349  22267957.5694   22267963.8544
  21653896.600   -10574038.73849  -8229219.78849  21653897.9054   21653904.0714
  24862516.372    -6637985.44649  -5163627.78049  24862516.8354   24862524.8114
  24387016.660    -9639439.10949  -7499806.46449  24387018.3464   24387025.1304
  20792501.345    -8284792.52449  -6329903.00549  20792503.2894   20792509.0874
  22498290.949   -16152480.20849 -12333728.73449  22498292.7194   22498299.3464
 96  4 20 17 50  0.0020000  0  6 19  2 15 26 27  7
  22280713.907     8094307.28149   6307596.11649  22280715.2534   22280721.7424
  21653660.458   -10575280.36849  -8230187.29849  21653661.8554   21653667.8634
  24853912.115    -6683212.73049  -5198869.80349  24853911.9924   24853919.0714
  24374238.203    -9706590.99049  -7552132.58249  24374239.5584   24374246.4814
  20794636.308    -8273576.62249  -6321163.35949  20794637.8284   20794643.1224
  22483301.529   -16231247.36549 -12395105.72549  22483303.6544   22483310.1114
 96  4 20 17 50 30.0020000  0  6 19  2 15 26 27  7
  22293527.788     8161645.39449   6360067.33749  22293529.7904   22293535.8484
  21653463.863   -10576314.13449  -8230992.83249  21653464.8854   21653471.4574
  24845369.235    -6728092.64449  -5233841.13049  24845370.3034   24845378.2584
  24361527.245    -9773387.38349  -7604181.69849  24361528.7124   24361534.8474
  20796844.804    -8261971.27949  -6312120.24349  20796846.2294   20796851.5384
  22468371.838   -16309707.16749 -12456243.21549  22468373.5564   22468380.1824
 96  4 20 17 51  0.0020000  0  6 19  2 15 26 27  7
  22306400.977     8229296.81649   6412782.70449  22306403.0254   22306409.5494
  21653306.372   -10577138.97849  -8231635.56749  21653307.8544   21653314.3184
  24836894.611    -6772627.54249  -5268543.62249  24836896.2204   24836903.7794
  24348880.979    -9839840.23149  -7655963.11749  24348883.5104   24348889.9574
  20799124.911    -8249987.90849  -6302782.55449  20799126.6334   20799132.1214
  22453498.712   -16387864.76249 -12517145.22049  22453500.6514   22453507.4404
 96  4 20 17 51 30.0020000  0  6 19  2 15 26 27  7
  22319338.973     8297283.01149   6465758.91649  22319340.4904   22319346.8224
  21653187.100   -10577764.50649  -8232122.99049  21653188.5394   21653195.1424
  24828484.912    -6816812.56049  -5302973.48949  24828487.3584   24828495.9904
  24336299.527    -9905960.62949  -7707485.48049  24336301.1674   24336307.9104
  20801476.526    -8237632.81749  -6293155.22049  20801477.9064   20801483.0974
  22438686.680   -16465703.20749 -12577798.53549  22438688.6334   22438695.0024
 96  4 20 17 52  0.0020000  0  6 19  2 15 26 27  7
  22332341.560     8365614.10349   6519003.88749  22332343.4944   22332349.8224
  21653106.878   -10578188.58349  -8232453.43549  21653108.0204   21653114.4934
  24820145.996    -6860639.93349  -5337124.69449  24820148.2244   24820155.0104
  24323782.321    -9971736.90249  -7758739.69249  24323784.1094   24323792.0644
  20803901.100    -8224888.91049  -6283224.91249  20803902.8194   20803908.2064
  22423942.240   -16543188.26649 -12638176.48549  22423943.6974   22423950.4094
 96  4 20 17 52 30.0020000  0  6 19  2 15 26 27  7
  22345406.245     8434269.63149   6572501.66449  22345408.2684   22345414.5044
  21653062.407   -10578423.50149  -8232636.48849  21653063.6644   21653069.9604
  24811872.998    -6904115.66949  -5371001.87349  24811875.2344   24811880.9244
  24311330.036   -10037172.13649  -7809728.16249  24311331.6304   24311339.0064
  20806401.398    -8211751.71649  -6272988.15449  20806402.8624   20806408.2034
  22409263.676   -16620324.56249 -12698282.67249  22409265.1904   22409271.5924
 96  4 20 17 53  0.0020000  0  6 19  2 15 26 27  7
  22358530.249     8503231.90749   6626238.46749  22358531.4544   22358537.5624
  21653051.305   -10578482.90649  -8232682.78749  21653052.5504   21653058.6464
  24803668.972    -6947239.17649  -5404604.57549  24803668.4974   24803674.0414
  24298944.805   -10102256.43749  -7860443.18149  24298946.5464   24298953.7644
  20808977.331    -8198213.65449  -6262439.02449  20808978.7694   20808984.3804
  22394648.039   -16697127.54849 -12758129.13749  22394649.6574   22394656.4064
 96  4 20 17 53 30.0020000  0  6 19  2 15 26 27  7
  22371709.938     8572490.78449   6680206.38849  22371711.7524   22371717.2114
  21653071.528   -10578374.02049  -8232597.93949  21653072.9784   21653079.1134
  24795528.338    -6990004.02049  -5437927.78949  24795530.2824   24795537.0564
  24286628.128   -10166978.98749  -7910876.32049  24286630.6174   24286637.5934
  20811632.825    -8184259.34549  -6251565.54349  20811634.3844   20811639.9104
  22380098.336   -16773585.98049 -12817707.12149  22380100.4094   22380107.3514
 96  4 20 17 54  0.0020000  0  6 19  2 15 26 27  7
  22384943.813     8642038.63549   6734399.48749  22384945.9014   22384952.2684
  21653125.291   -10578089.28349  -8232376.06149  21653126.7974   21653133.1464
  24787460.535    -7032397.63349  -5470961.74149  24787462.3354   24787469.0804
  24274384.668   -10231319.63149  -7961011.86549  24274386.4764   24274393.6624
  20814372.693    -8169862.24949  -6240347.03249  20814374.1074   20814379.4004
  22365613.858   -16849701.26049 -12877017.71249  22365616.1454   22365623.3684
 96  4 20 17 54 30.0020000  0  6 19  2 15 26 27  7
  22398230.242     8711857.03549   6788803.40449  22398231.9074   22398238.0824
  21653211.950   -10577633.84449  -8232021.17749  21653213.4724   21653219.8484
  24779463.053    -7074429.76949  -5503714.03149  24779464.2474   24779472.2724
  24262213.037   -10295279.02449  -8010850.33449  24262215.5134   24262223.1314
  20817193.669    -8155038.91849  -6228796.39449  20817195.1474   20817200.3374
  22351189.255   -16925504.81749 -12936085.40449  22351191.3094   22351198.5584
 96  4 20 17 55  0.0020000  0  6 19  2 15 26 27  7
  22411568.894     8781955.75249   6843425.74549  22411570.6644   22411577.8094
  21653333.587   -10576996.67549  -8231524.67849  21653334.8134   21653341.0864
  24771534.406    -7116095.55049  -5536180.82349  24771535.4884   24771543.1164
  24250112.615   -10358865.28549  -8060398.04349  24250115.2804   24250122.6104
  20820093.666    -8139797.89049  -6216920.27449  20820095.1594   20820100.4614
  22336824.913   -17000990.12049 -12994905.10049  22336826.8324   22336834.0504
 96  4 20 17 55 30.0020000  0  6 19  2 15 26 27  7
  22424960.671     8852330.79949   6898263.41349  22424962.5754   22424969.6204
  21653490.216   -10576173.69249  -8230883.39049  21653491.4024   21653497.7944
  24763671.641    -7157402.38049  -5568367.91149  24763675.7144   24763682.8994
  24238079.988   -10422097.16049  -8109669.60749  24238082.4794   24238089.1684
  20823071.767    -8124148.16949  -6204725.68849  20823073.2124   20823078.4554
  22322521.251   -17076155.82049 -13053475.75949  22322523.3404   22322530.2874
 96  4 20 17 56  0.0020000  0  6 19  2 15 26 27  7
  22438407.284     8922992.67849   6953324.58349  22438408.8754   22438416.0874
  21653686.455   -10575142.07849  -8230079.53949  21653687.6754   21653694.1044
  24755884.973    -7198331.59649  -5600260.75449  24755883.6134   24755895.0184
  24226119.953   -10484950.50149  -8158646.22949  24226121.7994   24226129.3014
  20826131.352    -8108070.73649  -6192197.82549  20826132.6824   20826138.0314
  22308280.347   -17150992.54649 -13111790.07949  22308282.2204   22308289.1214
 96  4 20 17 56 30.0020000  0  6 19  2 15 26 27  7
  22451909.129     8993944.64549   7008611.80049  22451911.0454   22451917.9064
  21653921.967   -10573901.27849  -8229112.68349  21653923.4584   21653930.3444
  24748168.109    -7238882.88549  -5631859.11549  24748170.2054   24748173.7414
  24214231.001   -10547429.62949  -8207331.24249  24214233.0254   24214239.4104
  20829270.394    -8091574.43949  -6179343.57649  20829271.7624   20829277.2024
  22294104.243   -17225489.78449 -13169839.85949  22294105.8174   22294112.4184
 96  4 20 17 57  0.0020000  0  6 19  2 15 26 27  7
  22465466.134     9065186.58349   7064124.97449  22465467.9054   22465474.7874
  21654194.987   -10572470.29949  -8227997.63849  21654196.1914   21654202.6284
  24740525.293    -7279054.27449  -5663161.42849  24740522.9324   24740533.0104
  24202412.253   -10609535.41949  -8255725.33949  24202414.8264   24202422.1914
  20832489.869    -8074654.91649  -6166159.54349  20832491.2754   20832496.6564
  22279994.721   -17299635.80249 -13227615.95649  22279996.3274   22280002.8514
 96  4 20 17 57 30.0020000  0  6 19  2 15 26 27  7
  22479077.699     9136718.25349   7119863.90849  22479079.5554   22479086.9104
  21654502.457   -10570855.52649  -8226739.37349  21654503.7894   21654510.0254
  24732956.085    -7318836.38549  -5694160.44149  24732954.5594   24732963.5604
  24190669.926   -10671241.74749  -8303808.16949  24190671.6804   24190679.4754
  20835792.035    -8057300.91749  -6152636.95749  20835793.9624   20835799.4654
  22265954.034   -17373418.92349 -13285109.27749  22265955.9334   22265962.5674
 96  4 20 17 58  0.0020000  0  6 19  2 15 26 27  7
  22492742.962     9208532.34549   7175822.92149  22492745.1214   22492752.2254
  21654842.474   -10569068.52149  -8225346.90449  21654843.6794   21654849.6764
  24725459.755    -7358229.58149  -5724856.36749  24725458.3734   24725466.9074
  24179002.843   -10732552.79549  -8351582.98449  24179004.8304   24179012.5194
  20839175.350    -8039523.78549  -6138784.65749  20839176.6334   20839182.0644
  22251982.729   -17446838.32849 -13342319.18149  22251984.6174   22251991.1604
 96  4 20 17 58 30.0020000  0  6 19  2 15 26 27  7
  22506465.601     9280640.56449   7232011.10449  22506467.5084   22506474.2644
  21655214.642   -10567111.07749  -8223821.62949  21655216.0744   21655222.0524
  24718032.971    -7397239.58549  -5755253.74249  24718035.9614   24718043.8314
  24167407.207   -10793485.08949  -8399062.67949  24167409.8214   24167417.5524
  20842633.351    -8021349.24549  -6124622.68949  20842634.8774   20842640.6334
  22238079.795   -17519899.00949 -13399249.56449  22238081.5534   22238087.9394
 96  4 20 17 59  0.0020000  0  6 19  2 15 26 27  7
  22520244.093     9353045.57549   7288430.56549  22520245.6704   22520252.6624
  21655620.841   -10564977.38549  -8222159.01849  21655622.1294   21655628.2204
  24710680.991    -7435866.22949  -5785352.39249  24710682.9124   24710693.7244
  24155887.003   -10854033.96249  -8446243.60549  24155888.1284   24155894.7354
  20846165.959    -8002784.09449  -6110156.34449  20846167.9144   20846173.6644
  22224242.338   -17592613.37649 -13455910.08649  22224244.0234   22224250.8714
 96  4 20 17 59 30.0020000  0  6 19  2 15 26 27  7
  22534078.700     9425751.02149   7345084.12949  22534081.1054   22534087.8554
  21656063.313   -10562651.07249  -8220346.31049  21656064.9004   21656070.9234
  24703409.517    -7474107.08149  -5815150.42649  24703407.7944   24703414.4974
  24144436.946   -10914200.97149  -8493126.99249  24144438.0754   24144445.1304
  20849772.478    -7983836.96249  -6095392.35649  20849773.4334   20849779.0544
  22210471.262   -17664980.96249 -13512300.38649  22210473.0794   22210479.5214
 96  4 20 18  0  0.0020000  0  6 19  2 15 26 27  7
  22547975.283     9498779.05349   7401989.05949  22547977.6884   22547985.1394
  21656544.702   -10560122.86849  -8218376.28849  21656545.7284   21656552.3234
  24696206.959    -7511942.64949  -5844632.64749  24696209.5094   24696215.4044
  24133062.093   -10973972.84349  -8539702.46749  24133063.9534   24133071.0704
  20853453.091    -7964490.06749  -6080316.86049  20853454.9974   20853460.6724
  22196768.072   -17736991.91149 -13568412.78749  22196769.7044   22196776.5464
 96  4 20 18  0 30.0020000  0  6 19  2 15 26 27  7
  22561932.515     9572119.77449   7459137.64149  22561934.1334   22561941.2084
  21657062.765   -10557400.08949  -8216254.64549  21657064.0864   21657070.2654
  24689082.420    -7549377.09349  -5873802.33849  24689085.0684   24689092.0474
  24121763.175   -11033352.38349  -8585972.23649  24121764.6984   24121771.4244
  20857210.258    -7944748.70049  -6064933.98649  20857211.7844   20857217.2844
  22183130.903   -17808656.65749 -13624255.42749  22183132.3944   22183139.2664
 96  4 20 18  1  0.0020000  0  6 19  2 15 26 27  7
  22575942.982     9645741.16649   7516504.92349  22575943.9464   22575951.0984
  21657613.838   -10554502.41649  -8213996.71849  21657615.4174   21657621.9334
  24682033.637    -7586415.83249  -5902663.66949  24682038.3824   24682045.6854
  24110536.369   -11092348.50349  -8631943.22349  24110538.1274   24110543.7394
  20861043.517    -7924604.79749  -6049237.45049  20861045.0174   20861050.8384
  22169558.346   -17879977.69049 -13679830.23849  22169560.4284   22169567.1894
 96  4 20 18  1 30.0020000  0  6 19  2 15 26 27  7
  22590005.859     9719644.56449   7574091.94849  22590007.7234   22590013.9634
  21658199.718   -10551424.51949  -8211598.35749  21658201.1554   21658207.4994
  24675065.537    -7623039.57649  -5931201.62849  24675067.2794   24675073.4514
  24099386.168   -11150943.38649  -8677601.56349  24099388.3474   24099393.3794
  20864956.904    -7904036.52449  -6033210.23749  20864958.8324   20864964.8154
  22156056.727   -17950929.43849 -13735117.29149  22156058.6404   22156065.4994
 96  4 20 18  2  0.0020000  0  6 19  2 15 26 27  7
  22604118.481     9793809.44449   7631882.72849  22604120.4244   22604127.4574
  21658817.771   -10548176.89049  -8209067.74049  21658819.2524   21658825.5704
  24668173.035    -7659265.45449  -5959429.61449  24668172.8784   24668178.9674
  24088307.675   -11209161.75549  -8722966.52449  24088309.6514   24088315.1554
  20868949.871    -7883056.54549  -6016862.21649  20868951.2804   20868957.1354
  22142621.908   -18021530.56749 -13790131.13649  22142624.0644   22142630.8054
 96  4 20 18  2 30.0020000  0  6 19  2 15 26 27  7
  22618282.908     9868242.89449   7689882.78649  22618284.7084   22618291.6744
  21659473.492   -10544733.51749  -8206384.59449  21659474.5624   21659480.5494
  24661356.055    -7695082.56449  -5987339.04149  24661356.5324   24661363.6414
  24077303.754   -11266986.64049  -8768024.85549  24077305.2924   24077310.8864
  20873024.036    -7861649.48849  -6000181.40549  20873025.1284   20873030.8044
  22129257.950   -18091758.92949 -13844854.51049  22129260.0724   22129266.8684
 96  4 20 18  3  0.0020000  0  6 19  2 15 26 27  7
  22632501.749     9942960.99649   7748104.64849  22632503.5214   22632510.2464
  21660165.640   -10541095.18349  -8203549.53449  21660167.2774   21660173.1704
  24654618.055    -7730484.12749  -6014924.69549  24654619.4344   24654629.4534
  24066376.819   -11324406.53249  -8812767.61649  24066379.5304   24066384.4254
  20877181.581    -7839797.84649  -5983154.17149  20877183.3624   20877189.3474
  22115967.399   -18161603.48249 -13899278.81249  22115969.1984   22115976.1924
 96  4 20 18  3 30.0020000  0  6 19  2 15 26 27  7
  22646775.020    10017967.80049   7806551.47249  22646776.8984   22646783.6584
  21660894.870   -10537266.07149  -8200565.81949  21660895.7194   21660901.9174
  24647960.858    -7765475.57649  -6042190.77949  24647960.1164   24647970.3924
  24055527.980   -11381416.64049  -8857191.06349  24055530.0304   24055536.1414
  20881424.306    -7817504.51449  -5965782.75149  20881425.7534   20881431.5864
  22102746.470   -18231078.31149 -13953415.02249  22102748.5434   22102755.3944
 96  4 20 18  4  0.0020000  0  6 19  2 15 26 27  7
  22661105.365    10093276.67049   7865233.67149  22661107.4754   22661114.1494
  21661659.820   -10533243.29749  -8197431.19349  21661661.1594   21661667.2674
  24641380.654    -7800054.79349  -6069135.62249  24641381.5514   24641390.8864
  24044757.809   -11438011.11649  -8901290.64249  24044761.1354   24044767.0534
  20885753.399    -7794755.14249  -5948055.97949  20885754.9644   20885760.3744
  22089597.135   -18300179.89849 -14007260.39649  22089598.9034   22089605.7624
 96  4 20 18  4 30.0020000  0  6 19  2 15 26 27  7
  22675495.679    10168898.03449   7924159.37249  22675497.8544   22675504.5524
  21662460.536   -10529035.66649  -8194152.52649  21662461.8814   21662467.8424
  24634881.431    -7834208.08149  -6095748.59349  24634883.2964   24634890.3004
  24034073.257   -11494165.51849  -8945047.30849  24034075.5714   24034081.1464
  20890171.537    -7771534.95449  -5929962.33849  20890173.3604   20890178.8684
  22076520.803   -18368892.68249 -14060802.80949  22076522.9894   22076530.0364
 96  4 20 18  5  0.0020000  0  6 19  2 15 26 27  7
  22689942.672    10244812.10649   7983313.15549  22689943.9024   22689950.6684
  21663292.543   -10524662.87349  -8190745.15649  21663293.9224   21663300.0164
  24628460.860    -7867947.85149  -6122039.30949  24628461.2154   24628469.7154
  24023466.775   -11549901.96149  -8988478.28649  24023469.3304   24023474.4704
  20894675.785    -7747866.55449  -5911519.43749  20894677.2744   20894683.1384
  22063515.186   -18437237.86649 -14114058.78049  22063517.1734   22063524.1544
 96  4 20 18  5 30.0020000  0  6 19  2 15 26 27  7
  22704442.477    10321010.14849   8042688.21949  22704443.9674   22704450.9624
  21664159.569   -10520105.64749  -8187194.07149  21664161.1624   21664167.2604
  24622118.089    -7901267.76849  -6148002.86649  24622122.0754   24622128.8174
  24012941.630   -11605211.97949  -9031576.98949  24012943.8884   24012949.8144
  20899263.989    -7723756.35149  -5892732.27549  20899265.3984   20899271.0884
  22050580.874   -18505208.52349 -14167022.90549  22050582.7574   22050589.4604
 96  4 20 18  6  0.0020000  0  6 19  2 15 26 27  7
  22718995.408    10397489.42749   8102282.43749  22718997.5734   22719004.5584
  21665061.165   -10515368.38749  -8183502.70649  21665062.5174   21665068.8554
  24615858.880    -7934167.99449  -6173639.40549  24615860.3024   24615867.8314
  24002495.820   -11660105.84949  -9074351.41849  24002497.8534   24002503.4414
  20903932.896    -7699217.16749  -5873610.83849  20903934.6384   20903940.7314
  22037720.847   -18572788.57449 -14219682.66449  22037722.9764   22037729.7064
 96  4 20 18  6 30.0020000  0  6 19  2 15 26 27  7
  22733602.581    10474252.25249   8162097.59949  22733604.8234   22733611.9034
  21665998.062   -10510444.29349  -8179665.75549  21665999.5794   21666005.7444
  24609680.872    -7966637.85249  -6198940.57149  24609682.9324   24609689.4074
  23992129.978   -11714579.85749  -9116798.68849  23992131.8554   23992137.6904
  20908683.205    -7674256.32349  -5854160.83849  20908684.5774   20908691.0224
  22024935.106   -18639980.33149 -14272039.86049  22024936.7834   22024943.5784
 96  4 20 18  7  0.0020000  0  6 19  2 15 26 27  7
  22748263.409    10551293.32549   8222129.57149  22748265.2884   22748272.4634
  21666972.234   -10505325.44049  -8175677.04349  21666973.6084   21666979.6164
  24603586.955    -7998674.38349  -6223904.05949  24603586.6234   24603593.7264
  23981844.813   -11768632.46949  -9158917.59149  23981845.2324   23981852.0164
  20913514.038    -7648871.46449  -5834380.43949  20913515.5184   20913521.5354
  22012221.609   -18706788.82349 -14324098.40849  22012223.5544   22012230.4344
 96  4 20 18  7 30.0020000  0  6 19  2 15 26 27  7
  22762977.922    10628619.39549   8282383.61449  22762979.4744   22762987.1774
  21667982.602   -10500014.97849  -8171539.02549  21667984.2164   21667990.4324
  24597572.090    -8030272.45849  -6248525.92249  24597572.0154   24597579.9794
  23971639.116   -11822258.99549  -9200704.49049  23971640.9014   23971646.9854
  20918425.114    -7623062.54349  -5814269.60449  20918426.5994   20918432.8164
  21999582.619   -18773204.03549 -14375850.49949  21999584.7514   21999591.5944
 96  4 20 18  8  0.0020000  0  6 19  2 15 26 27  7
  22777745.660    10706227.74849   8342857.62249  22777747.8654   22777755.0074
  21669024.739   -10494538.18749  -8167271.39449  21669026.3394   21669032.5994
  24591640.508    -8061438.47149  -6272811.10449  24591642.9114   24591650.6824
  23961513.327   -11875470.77749  -9242168.20049  23961515.0694   23961521.1284
  20923415.727    -7596833.69049  -5793831.55249  20923417.6624   20923424.1284
  21987017.202   -18839240.25849 -14427307.28149  21987018.9834   21987025.6524
 96  4 20 18  8 30.0020000  0  6 19  2 15 26 27  7
  22792569.706    10784123.71949   8403555.74949  22792571.0824   22792578.4974
  21670100.073   -10488888.49649  -8162869.04349  21670101.5674   21670107.6374
  24585796.985    -8092163.47349  -6296752.63549  24585795.9954   24585802.6034
  23951468.195   -11928251.49949  -9283296.01349  23951470.7084   23951477.5904
  20928488.094    -7570180.77049  -5773063.05349  20928489.5694   20928496.0644
  21974521.157   -18904909.49749 -14478478.10249  21974522.4884   21974529.3754
 96  4 20 18  9  0.0020000  0  6 19  2 15 26 27  7
  22807447.450    10862310.17149   8464480.23049  22807450.1344   22807457.0304
  21671206.817   -10483072.59249  -8158337.17349  21671208.1584   21671214.6024
  24580031.820    -8122446.53649  -6320349.79849  24580033.4734   24580040.4664
  23941506.734   -11980600.76349  -9324087.61849  23941508.8444   23941515.7684
  20933638.335    -7543116.67449  -5751974.15849  20933639.9564   20933646.0134
  21962097.326   -18970196.30349 -14529350.92049  21962098.8544   21962105.9314
 96  4 20 18  9 30.0020000  0  6 19  2 15 26 27  7
  22822381.974    10940791.20349   8525634.24749  22822384.0824   22822391.0444
  21672344.925   -10477092.75149  -8153677.56449  21672346.2274   21672352.0714
  24574356.273    -8152284.09049  -6343599.79149  24574355.7564   24574362.0714
  23931628.040   -12032516.15249  -9364541.15449  23931630.4204   23931636.3664
  20938866.172    -7515642.98849  -5730566.10349  20938868.0774   20938873.9954
  21949746.947   -19035096.68449 -14579922.63149  21949748.6684   21949755.6124
 96  4 20 18 10  0.0020000  0  6 19  2 15 26 27  7
  22837372.365    11019567.20649   8587018.11049  22837375.1724   22837382.1704
  21673514.501   -10470947.74049  -8148889.24649  21673515.7334   21673521.5854
  24568762.702    -8181666.66949  -6366495.28749  24568763.3614   24568769.6104
  23921833.162   -12083983.58049  -9404645.63049  23921835.9864   23921842.4574
  20944174.680    -7487747.57049  -5708829.43049  20944176.5574   20944182.5914
  21937469.283   -19099615.86349 -14630197.29949  21937470.9984   21937478.1204
 96  4 20 18 10 30.0020000  0  6 19  2 15 26 27  7
  22852418.121    11098628.00049   8648623.88449  22852419.9904   22852426.8294
  21674712.890   -10464648.95249  -8143981.09949  21674714.2894   21674720.5324
  24563257.287    -8210601.53249  -6389041.90149  24563258.4974   24563264.3274
  23912121.773   -12135019.94749  -9444414.20949  23912123.4714   23912130.5574
  20949562.092    -7459437.93249  -5686769.98149  20949563.1124   20949568.9834
  21925262.540   -19163762.25449 -14680181.48449  21925264.2454   21925271.2434
 96  4 20 18 11  0.0020000  0  6 19  2 15 26 27  7
  22867516.810    11177969.93249   8710448.73049  22867518.5344   22867525.4034
  21675940.656   -10458194.74449  -8138951.84549  21675942.3054   21675948.5304
  24557834.882    -8239090.65149  -6411241.17749  24557836.5144   24557844.7114
  23902489.374   -12185636.02049  -9483855.28649  23902492.0054   23902499.1124
  20955029.748    -7430703.04949  -5664379.16949  20955031.5664   20955037.5984
  21913130.294   -19227519.22149 -14729862.21849  21913132.0084   21913138.5394
 96  4 20 18 11 30.0020000  0  6 19  2 15 26 27  7
  22882665.516    11257578.08849   8772481.01949  22882667.3044   22882674.1984
  21677198.730   -10451584.84949  -8133801.27349  21677200.1494   21677206.7974
  24552494.743    -8267142.46649  -6433099.68449  24552497.0234   24552505.8354
  23892935.837   -12235839.12649  -9522974.57249  23892938.2804   23892945.3894
  20960582.363    -7401525.60649  -5641643.51049  20960583.7114   20960590.0104
  21901067.953   -19290906.48249 -14779254.86749  21901069.4614   21901076.1714
 96  4 20 18 12  0.0020000  0  6 19  2 15 26 27  7
  22897869.738    11337478.59049   8834741.11649  22897871.7004   22897878.1914
  21678492.697   -10444786.02549  -8128503.48749  21678494.1094   21678500.5934
  24547246.317    -8294734.11649  -6454599.63549  24547247.4234   24547255.5344
  23883464.185   -12285614.29349  -9561760.39349  23883466.8404   23883473.1444
  20966224.310    -7371874.67849  -5618538.90649  20966225.9584   20966232.2324
  21889081.518   -19353894.08349 -14828336.09549  21889083.6324   21889090.1944
 96  4 20 18 12 30.0020000  0  6 19  2 15 26 27  7
  22913130.538    11417674.85649   8897231.68249  22913132.5504   22913139.6414
  21679827.005   -10437773.82249  -8123039.42849  21679828.2974   21679835.1554
  24542084.766    -8321860.32349  -6475736.90249  24542085.1924   24542092.5974
  23874074.762   -12334957.48249  -9600209.62949  23874077.2124   23874083.7384
  20971957.832    -7341746.61449  -5595062.50749  20971959.2734   20971965.7934
  21877177.120   -19416453.45649 -14877083.63849  21877178.9114   21877185.7614
 96  4 20 18 13  0.0020000  0  6 19  2 15 26 27  7
  22928447.067    11498159.64649   8959947.06749  22928448.3464   22928455.2464
  21681203.152   -10430541.98249  -8117404.22949  21681204.4094   21681210.8654
  24537010.189    -8348521.88849  -6496512.14149  24537012.0224   24537020.2474
  23864771.379   -12383852.25049  -9638309.44049  23864772.8624   23864779.1104
  20977781.479    -7311142.38049  -5571215.06749  20977783.2814   20977789.5234
  21865354.576   -19478582.02749 -14925495.48949  21865356.2614   21865362.4934
 96  4 20 18 13 30.0020000  0  6 19  2 15 26 27  7
  22943813.443    11578911.49749   9022870.55549  22943815.7514   22943822.1534
  21682616.226   -10423116.39049  -8111618.05249  21682617.6834   21682624.0844
  24532023.633    -8374733.00249  -6516936.37149  24532023.8214   24532031.3584
  23855551.240   -12432298.14949  -9676059.47549  23855554.1984   23855560.4514
  20983690.585    -7280092.15149  -5547020.10049  20983691.8294   20983697.6784
  21853608.116   -19540309.07849 -14973594.47349  21853609.8154   21853616.2654
 96  4 20 18 14  0.0020000  0  6 19  2 15 26 27  7
  22959232.002    11659937.44249   9086007.60549  22959233.8324   22959240.9004
  21684065.850   -10415499.28149  -8105682.63949  21684067.1614   21684073.2934
  24527123.922    -8400481.96049  -6537000.48549  24527125.7374   24527132.0564
  23846420.553   -12480281.23249  -9713448.86749  23846423.4244   23846429.6594
  20989682.796    -7248601.60949  -5522482.03149  20989684.3604   20989690.4494
  21841940.307   -19601621.72549 -15021370.54449  21841942.2684   21841948.5474
 96  4 20 18 14 30.0020000  0  6 19  2 15 26 27  7
  22974703.253    11741241.11749   9149361.08449  22974705.4414   22974712.1694
  21685548.818   -10407701.59849  -8099606.52549  21685550.5384   21685557.2834
  24522313.114    -8425760.94849  -6556698.39949  24522313.2254   24522321.3274
  23837382.401   -12527781.38749  -9750461.95849  23837383.6594   23837390.3344
  20995756.712    -7216683.54849  -5497610.83049  20995758.3944   20995764.3754
  21830352.297   -19662516.53749 -15068821.03149  21830354.2554   21830360.6634
 96  4 20 18 15  0.0020000  0  6 19  2 15 26 27  7
  22990228.620    11822829.95949   9212936.77349  22990231.0394   22990237.7474
  21687062.838   -10399746.44149  -8093407.70749  21687064.3694   21687071.0794
  24517589.484    -8450567.38349  -6576028.10549  24517592.3154   24517599.4964
  23828437.359   -12574790.65549  -9787092.54749  23828438.6114   23828444.3994
  21001910.909    -7184343.30849  -5472410.66349  21001912.5304   21001918.6464
  21818840.625   -19723009.87749 -15115958.68649  21818842.9144   21818849.0774
 96  4 20 18 15 30.0020000  0  6 19  2 15 26 27  7
  23005806.645    11904691.12149   9276724.66249  23005808.5894   23005816.0204
  21688604.065   -10391648.97649  -8087097.99549  21688605.5904   21688611.9384
  24512959.156    -8474907.34649  -6594994.31649  24512961.7594   24512968.3564
  23819581.466   -12621328.59849  -9823355.86849  23819582.6674   23819588.8564
  21008141.847    -7151598.36049  -5446895.13349  21008143.4994   21008149.7504
  21807406.036   -19783101.51949 -15162783.32649  21807407.7034   21807414.3454
 96  4 20 18 16  0.0020000  0  6 19  2 15 26 27  7
  23021433.314    11986812.41049   9340715.24949  23021435.8714   23021443.3864
  21690171.336   -10383414.74149  -8080681.71249  21690172.6344   21690178.8124
  24508416.151    -8498785.03649  -6613600.32849  24508416.6654   24508423.5004
  23810810.659   -12667415.32949  -9859267.58549  23810812.5654   23810818.9064
  21014452.070    -7118438.88349  -5421056.60149  21014453.6074   21014459.9644
  21796048.618   -19842784.57949 -15209289.59549  21796050.5714   21796057.2194
 96  4 20 18 16 30.0020000  0  6 19  2 15 26 27  7
  23037112.215    12069201.65249   9404914.62449  23037113.6904   23037120.9534
  21691766.124   -10375032.28549  -8074149.93749  21691767.6954   21691773.7544
  24503961.605    -8522187.71749  -6631836.19949  24503963.1734   24503972.4644
  23802127.526   -12713043.89449  -9894822.29449  23802130.1254   23802136.2164
  21020844.143    -7084848.81249  -5394882.53849  21020845.7344   21020851.6604
  21784772.260   -19902043.52349 -15255465.38049  21784774.1764   21784780.5684
 96  4 20 18 17  0.0020000  0  6 19  2 15 26 27  7
  23052840.239    12151854.30249   9469319.25249  23052842.1834   23052849.6454
  21693390.450   -10366497.54949  -8067499.49749  21693392.0004   21693398.1604
  24499601.308    -8545115.40449  -6649701.94549  24499601.5894   24499608.5564
  23793528.290   -12758233.08349  -9930034.63549  23793530.7294   23793536.3564
  21027321.047    -7050811.66249  -5368360.09749  21027322.7534   21027328.5954
  21773576.907   -19960876.30549 -15301309.09349  21773578.7564   21773585.0994
 96  4 20 18 17 30.0020000  0  6 19  2 15 26 27  7
  23068616.683    12234758.21449   9533919.66349  23068618.7914   23068625.9314
  21695045.054   -10357802.36449  -8060724.02949  21695046.4544   21695052.2114
  24495328.189    -8567571.18049  -6667199.95349  24495328.8974   24495334.7854
  23785009.852   -12803003.41649  -9964920.59649  23785011.2194   23785016.1244
  21033887.160    -7016308.05849  -5341474.18949  21033888.7474   21033894.3174
  21762461.555   -20019288.13349 -15346824.78449  21762463.2404   21762469.7454
 96  4 20 18 18  0.0020000  0  6 19  2 15 26 27  7
  23084446.040    12317942.82349   9598738.79849  23084448.2994   23084455.3954
  21696731.831   -10348936.30449  -8053815.41249  21696733.4824   21696739.4914
  24491144.799    -8589540.30949  -6684318.75049  24491148.5354   24491155.0444
  23776572.491   -12847334.23449  -9999464.07349  23776575.1014   23776580.9364
  21040545.216    -6981319.28149  -5314210.22149  21040546.9374   21040552.4704
  21751427.269   -20077273.40249 -15392008.09549  21751429.0204   21751435.4584
 96  4 20 18 18 30.0020000  0  6 19  2 15 26 27  7
  23100331.542    12401418.77449   9663784.95249  23100333.4054   23100339.6644
  21698450.834   -10339904.40349  -8046777.57349  21698452.4564   21698458.6164
  24487060.009    -8611024.82349  -6701059.92549  24487060.0444   24487065.9094
  23768220.342   -12891222.52649 -10033662.72649  23768223.1354   23768230.2124
  21047292.656    -6945859.28649  -5286579.07149  21047294.3854   21047300.1184
  21740472.040   -20134844.08849 -15436868.35649  21740473.8004   21740480.2264
 96  4 20 18 19  0.0020000  0  6 19  2 15 26 27  7
  23116273.557    12485194.91849   9729065.01949  23116275.2484   23116281.5304
  21700203.280   -10330694.00449  -8039600.64349  21700204.9954   21700211.1364
  24483064.572    -8632019.16549  -6717419.14349  24483064.2814   24483071.3004
  23759954.007   -12934661.55249 -10067511.28949  23759956.7444   23759963.9964
  21054130.425    -6909926.31049  -5258579.35949  21054132.2254   21054138.2144
  21729595.971   -20191997.12049 -15481403.17549  21729597.8374   21729604.2284
 96  4 20 18 19 30.0020000  0  6 19  2 15 26 27  7
  23132270.856    12569260.49249   9794570.61249  23132272.5584   23132279.7754
  21701990.285   -10321307.74749  -8032286.67849  21701991.4244   21701997.5654
  24479161.154    -8652529.80449  -6733401.43949  24479161.1734   24479168.6274
  23751776.279   -12977638.02149 -10100999.42949  23751778.6254   23751785.7494
  21061053.652    -6873544.70749  -5230230.06949  21061055.3714   21061061.5354
  21718799.217   -20248732.84249 -15525612.81949  21718801.3274   21718807.2724
 96  4 20 18 20  0.0020000  0  6 19  2 15 26 27  7
  23148323.922    12653623.34549   9860307.85749  23148325.8994   23148332.3754
  21703809.795   -10311741.58849  -8024832.53149  21703811.3454   21703817.7254
  24475350.913    -8672551.88549  -6749003.04649  24475351.3014   24475357.5714
  23743688.076   -13020143.07049 -10134120.23149  23743690.2804   23743697.0394
  21068057.933    -6836736.75749  -5201548.56049  21068059.6074   21068065.9164
  21708084.828   -20305038.15549 -15569487.07449  21708086.6954   21708092.7394
 96  4 20 18 20 30.0020000  0  6 19  2 15 26 27  7
  23164430.727    12738264.48849   9926261.94749  23164433.1044   23164439.0274
  21705666.146   -10301987.08549  -8017231.62649  21705667.6574   21705673.4124
  24471631.187    -8692085.86749  -6764224.33149  24471634.8054   24471640.9794
  23735689.497   -13062181.18149 -10166877.19149  23735690.6564   23735697.3234
  21075141.957    -6799509.64049  -5172540.42649  21075144.0724   21075149.9174
  21697452.282   -20360913.97049 -15613026.65549  21697453.8384   21697459.8554
 96  4 20 18 21  0.0020000  0  6 19  2 15 26 27  7
  23180588.268    12823171.04749   9992422.85349  23180590.4234   23180597.2444
  21707559.614   -10292038.56649  -8009479.54449  21707561.0924   21707567.0144
  24468008.192    -8711131.75049  -6779065.25649  24468010.7244   24468016.7494
  23727776.967   -13103753.76249 -10199271.40449  23727779.8264   23727786.3234
  21082305.782    -6761866.07749  -5143207.79949  21082307.5424   21082313.3184
  21686902.282   -20416354.26649 -15656226.87349  21686903.8994   21686910.3974
 96  4 20 18 21 30.0020000  0  6 19  2 15 26 27  7
  23196795.794    12908337.11849  10058785.98249  23196796.2724   23196803.5494
  21709488.662   -10281902.20949  -8001581.09449  21709490.1544   21709495.9784
  24464477.244    -8729687.08549  -6793523.94749  24464478.5954   24464486.3774
  23719956.234   -13144854.78649 -10231298.16449  23719959.1124   23719965.3754
  21089549.371    -6723799.20949  -5113545.31849  21089550.8374   21089557.0604
  21676434.384   -20471361.91849 -15699089.96449  21676436.1684   21676442.7054
 96  4 20 18 22  0.0020000  0  6 19  2 15 26 27  7
  23213052.656    12993769.12849  10125356.33449  23213053.7944   23213060.8904
  21711452.310   -10271583.33149  -7993540.41449  21711453.6224   21711459.3764
  24461041.498    -8747740.47849  -6807591.49549  24461043.0034   24461050.0084
  23712224.747   -13185484.13649 -10262957.39549  23712227.3494   23712233.4744
  21096878.255    -6685284.51249  -5083533.88249  21096880.0314   21096885.9204
  21666047.657   -20525940.34649 -15741618.60349  21666049.9724   21666056.5474
 96  4 20 18 22 30.0020000  0  6 19  2 15 26 27  7
  23229356.720    13079448.68049  10192119.58049  23229358.3434   23229365.6174
  21713448.297   -10261093.55949  -7985366.56549  21713449.7244   21713455.6164
  24457701.450    -8765296.66749  -6821271.62449  24457702.6744   24457710.1354
  23704584.758   -13225632.40149 -10294241.74349  23704587.1244   23704593.9034
  21104294.670    -6646313.92849  -5053167.20649  21104296.3194   21104302.1434
  21655742.503   -20580096.49749 -15783818.19449  21655744.4284   21655751.1624
 96  4 20 18 23  0.0020000  0  6 19  2 15 26 27  7
  23245705.981    13165366.53049  10259068.50949  23245708.0124   23245715.1354
  21715473.674   -10250448.95149  -7977072.07049  21715475.3354   21715481.4424
  24454453.126    -8782368.82149  -6834574.56949  24454453.7774   24454461.3374
  23697035.663   -13265303.31549 -10325154.14349  23697038.2884   23697045.0034
  21111796.137    -6606890.86949  -5022447.95049  21111797.8844   21111804.0564
  21645516.175   -20633838.58649 -15825695.13649  21645517.8784   21645524.4544
 96  4 20 18 23 30.0020000  0  6 19  2 15 26 27  7
  23262103.643    13251536.99149  10326214.28349  23262105.5384   23262112.8444
  21717527.752   -10239656.79249  -7968662.59649  21717529.1404   21717535.2704
  24451297.170    -8798947.37749  -6847492.92149  24451298.1654   24451305.9214
  23689580.623   -13304480.53549 -10355681.84449  23689583.2104   23689590.1284
  21119386.570    -6567000.88249  -4991364.85449  21119388.9234   21119394.9244
  21635369.646   -20687159.12149 -15867243.59149  21635371.2504   21635377.8614
 96  4 20 18 24  0.0020000  0  6 19  2 15 26 27  7
  23278555.957    13337987.76249  10393578.48049  23278556.1854   23278563.5624
  21719613.214   -10228696.16649  -7960121.84849  21719614.5284   21719621.1464
  24448239.536    -8815009.92049  -6860009.20349  24448242.3184   24448251.0784
  23682223.684   -13343142.06549 -10385807.70049  23682225.4684   23682233.1484
  21127070.618    -6526626.99149  -4959904.69349  21127071.8054   21127077.7274
  21625307.616   -20740033.78249 -15908444.61049  21625309.6134   21625316.1304
 96  4 20 18 24 30.0020000  0  6 19  2 15 26 27  7
  23295057.346    13424709.28649  10461153.65049  23295058.5244   23295066.3154
  21721729.616   -10217573.45049  -7951454.79649  21721731.2184   21721737.6044
  24445278.090    -8830565.77849  -6872130.64349  24445282.2484   24445289.5594
  23674963.998   -13381297.15349 -10415538.92849  23674965.5754   23674972.1704
  21134840.267    -6485795.35349  -4928087.84249  21134841.8774   21134847.8194
  21615330.932   -20792462.82849 -15949298.39649  21615332.5654   21615339.1044
 96  4 20 18 25  0.0020000  0  6 19  2 15 26 27  7
  23311612.374    13511707.79849  10528944.66149  23311614.7094   23311621.9064
  21723875.991   -10206294.63549  -7942666.10849  21723877.4224   21723883.9344
  24442416.042    -8845615.71749  -6883857.84649  24442417.9634   24442425.9544
  23667795.991   -13418965.82949 -10444891.12649  23667797.9734   23667803.8884
  21142695.843    -6444511.88049  -4895918.91249  21142697.8694   21142703.8454
  21605438.300   -20844448.19949 -15989806.45949  21605440.2324   21605446.5334
 96  4 20 18 25 30.0020000  0  6 19  2 15 26 27  7
  23328218.393    13598969.90949  10596941.06449  23328219.4124   23328226.7394
  21726050.216   -10194869.16649  -7933763.14549  21726051.6424   21726057.7074
  24439648.803    -8860164.26649  -6895194.35549  24439647.2454   24439657.3794
  23660716.426   -13456165.53449 -10473877.90149  23660718.5124   23660724.9194
  21150635.957    -6402789.33149  -4863407.84949  21150637.5934   21150643.3004
  21595630.186   -20895992.04749 -16029970.48149  21595631.8074   21595638.1004
 96  4 20 18 26  0.0020000  0  6 19  2 15 26 27  7
  23344871.432    13686481.87849  10665132.15949  23344873.1124   23344879.8704
  21728256.536   -10183274.80049  -7924728.57649  21728257.8164   21728264.1694
  24436976.861    -8874210.23949  -6906139.25949  24436977.4634   24436983.7314
  23653726.150   -13492905.00549 -10502506.05849  23653727.6264   23653733.9104
  21158658.197    -6360632.79849  -4830558.62149  21158659.5544   21158665.3934
  21585905.517   -20947093.45149 -16069789.74349  21585907.7204   21585914.0944
 96  4 20 18 26 30.0020000  0  6 19  2 15 26 27  7
  23361574.738    13774259.53549  10733530.28449  23361576.2864   23361583.5174
  21730500.966   -10171478.54149  -7915536.68949  21730502.4764   21730508.6834
  24434402.473    -8887728.35349  -6916672.86649  24434404.9834   24434412.1434
  23646824.628   -13529169.22949 -10530763.88649  23646826.7454   23646833.1734
  21166767.927    -6318016.66049  -4797351.26049  21166769.3474   21166775.1314
  21576269.346   -20997732.26649 -16109248.54949  21576271.1614   21576277.4964
 96  4 20 18 27  0.0020000  0  6 19  2 15 26 27  7
  23378328.088    13862301.14449  10802134.09149  23378330.2924   23378336.8094
  21732784.605   -10159479.79749  -7906187.02249  21732786.0184   21732792.0904
  24431929.815    -8900722.59949  -6926798.25849  24431933.1524   24431938.8674
  23640014.814   -13564963.40349 -10558655.44549  23640015.2664   23640020.8434
  21174965.840    -6274933.34549  -4763779.86049  21174967.7674   21174973.5774
  21566718.976   -21047919.79749 -16148355.70149  21566720.5164   21566727.0394
 96  4 20 18 27 30.0020000  0  6 19  2 15 26 27  7
  23395130.249    13950597.75649  10870936.59349  23395132.6454   23395139.4444
  21735103.158   -10147296.83449  -7896693.80649  21735104.3944   21735109.9994
  24429555.215    -8913203.24649  -6936523.44849  24429555.5904   24429564.2864
  23633292.160   -13600282.50449 -10586176.81249  23633294.6824   23633300.0274
  21183250.356    -6231401.39549  -4729858.87649  21183251.6074   21183257.2604
  21557251.395   -21097671.18849 -16187123.00549  21557253.3814   21557259.7614
 96  4 20 18 28  0.0020000  0  6 19  2 15 26 27  7
  23411983.769    14039160.84349  10939946.74049  23411985.3664   23411992.1084
  21737454.167   -10134942.52949  -7887067.07749  21737455.6384   21737460.9994
  24427278.540    -8925168.90149  -6945847.36349  24427280.2904   24427288.0214
  23626662.442   -13635120.53349 -10613323.33449  23626664.6394   23626670.7614
  21191619.017    -6187421.02649  -4695588.47949  21191620.5964   21191626.7104
  21547863.636   -21147004.58249 -16225564.60349  21547865.2894   21547871.8994
 96  4 20 18 28 30.0020000  0  6 19  2 15 26 27  7
  23428889.552    14127997.25449  11009169.86449  23428891.0774   23428897.6624
  21739831.602   -10122448.05849  -7877331.12949  21739832.9654   21739838.5204
  24425099.078    -8936621.23149  -6954771.26549  24425100.1654   24425107.3614
  23620126.213   -13669472.10549 -10640090.78849  23620127.0914   23620133.9884
  21200072.729    -6142996.64049  -4660972.08849  21200074.4464   21200080.7114
  21538554.947   -21195921.62249 -16263681.76149  21538556.9214   21538563.2964
 96  4 20 18 29  0.0020000  0  6 19  2 15 26 27  7
  23445849.686    14217124.81549  11078619.85049  23445851.6414   23445858.1304
  21742232.942   -10109828.46249  -7867497.68149  21742234.3424   21742239.9654
  24423017.107    -8947548.32749  -6963285.87749  24423020.2364   24423028.1984
  23613686.021   -13703313.12749 -10666460.40949  23613687.7784   23613694.4534
  21208611.793    -6098123.79749  -4626006.24749  21208613.4554   21208619.1924
  21529329.875   -21244399.11349 -16301456.42049  21529331.7524   21529338.2834
 96  4 20 18 29 30.0020000  0  6 19  2 15 26 27  7
  23462861.389    14306524.32949  11148281.75549  23462863.3214   23462870.7474
  21744656.626   -10097091.71749  -7857572.95249  21744658.1694   21744663.8334
  24421038.460    -8957952.58849  -6971393.09949  24421039.6004   24421047.9544
  23607345.549   -13736635.34549 -10692425.76349  23607346.9504   23607353.4154
  21217235.663    -6052805.25949  -4590693.11649  21217237.4204   21217243.1974
  21520188.593   -21292439.45149 -16338890.43449  21520190.4504   21520197.1384
 96  4 20 18 30  0.0020000  0  6 19  2 15 26 27  7
  23479922.755    14396181.98149  11218144.80649  23479924.8754   23479932.0364
  21747106.772   -10084216.90249  -7847540.63549  21747108.4144   21747113.8664
  24419158.004    -8967829.24149  -6979089.20049  24419160.7154   24419168.7784
  23601100.630   -13769442.92849 -10717990.10249  23601103.7194   23601110.0664
  21225946.597    -6007028.98449  -4555023.30949  21225948.0254   21225953.8024
  21511132.695   -21340028.34349 -16375972.67149  21511134.5824   21511140.9854
 96  4 20 18 30 30.0020000  0  6 19  2 15 26 27  7
  23497029.650    14486078.95949  11288194.34249  23497032.2884   23497038.9884
  21749583.216   -10071199.94549  -7837397.55949  21749585.1274   21749590.7604
  24417379.499    -8977186.53549  -6986380.60149  24417380.6744   24417387.7244
  23594953.914   -13801740.93049 -10743157.36149  23594957.5544   23594964.1054
  21234744.263    -5960796.50249  -4518998.01049  21234745.8374   21234752.1874
  21502165.864   -21387152.95549 -16412693.12549  21502166.8594   21502173.2534
 96  4 20 18 31  0.0020000  0  6 19  2 15 26 27  7
  23514182.050    14576212.10649  11358427.90049  23514184.5204   23514190.3574
  21752093.806   -10058010.36049  -7827119.96849  21752095.1134   21752101.0514
  24415701.537    -8986011.79949  -6993257.43849  24415701.6094   24415708.2994
  23588906.764   -13833522.87249 -10767922.50149  23588909.4744   23588916.3344
  21243633.249    -5914085.54549  -4482599.88349  21243634.7974   21243640.9084
  21493287.431   -21433806.14349 -16449046.24149  21493289.1424   21493295.3694
 96  4 20 18 31 30.0020000  0  6 19  2 15 26 27  7
  23531376.057    14666566.81049  11428834.10649  23531377.9904   23531384.0694
  21754639.401   -10044632.32549  -7816695.53049  21754640.9204   21754646.7474
  24414123.153    -8994307.45049  -6999721.59349  24414123.6004   24414129.4854
  23582954.305   -13864813.30449 -10792304.65749  23582955.0124   23582961.4084
  21252613.566    -5866894.31049  -4445827.51249  21252614.9564   21252621.0604
  21484496.987   -21479997.76349 -16485039.70149  21484498.9764   21484505.3704
 96  4 20 18 32  0.0020000  0  6 19  2 15 26 27  7
  23548614.830    14757156.60149  11499423.49849  23548616.6804   23548623.7434
  21757219.995   -10031071.27949  -7806128.48849  21757221.3014   21757227.5934
  24412643.414    -9002077.50149  -7005776.19249  24412645.2004   24412651.1174
  23577091.757   -13895614.95949 -10816305.94449  23577093.5314   23577100.2174
  21261681.682    -5819238.85949  -4408693.41349  21261682.8974   21261689.3364
  21475795.294   -21525726.01049 -16520672.09149  21475797.2294   21475803.6264
 96  4 20 18 32 30.0020000  0  6 19  2 15 26 27  7
  23565901.924    14848004.72149  11570214.17249  23565903.9394   23565911.0734
  21759833.463   -10017337.31149  -7795426.70249  21759834.9434   21759840.9934
  24411264.984    -9009317.41649  -7011417.69249  24411267.0754   24411273.6384
  23571324.648   -13925917.14049 -10839918.01249  23571327.1944   23571333.8864
  21270837.040    -5771127.30649  -4371203.91149  21270838.6754   21270844.9404
  21467179.580   -21571001.27749 -16555951.51049  21467181.7124   21467187.9654
 96  4 20 18 33  0.0020000  0  6 19  2 15 26 27  7
  23583240.414    14939120.10049  11641213.11449  23583242.3644   23583249.6564
  21762480.274   -10003427.80949  -7784588.13649  21762481.6994   21762487.8374
  24409989.741    -9016018.37049  -7016639.21949  24409991.0264   24409998.1094
  23565655.595   -13955709.89949 -10863133.13049  23565657.7924   23565663.8324
  21280077.881    -5722568.33349  -4333365.76949  21280079.3704   21280085.5184
  21458650.466   -21615823.26949 -16590877.72149  21458652.2374   21458658.7694
 96  4 20 18 33 30.0020000  0  6 19  2 15 26 27  7
  23600631.452    15030509.17549  11712425.32849  23600632.9484   23600640.4154
  21765157.626    -9989358.09449  -7773624.72749  21765159.1564   21765165.3034
  24408816.049    -9022192.37849  -7021450.13349  24408816.5324   24408822.8834
  23560083.101   -13984994.67149 -10885952.42049  23560085.2324   23560091.9544
  21289397.948    -5673588.57549  -4295199.73849  21289399.9644   21289406.0384
  21450207.138   -21660191.79749 -16625450.59049  21450209.0844   21450215.9724
 96  4 20 18 34  0.0020000  0  6 19  2 15 26 27  7
  23618075.921    15122185.90249  11783861.68249  23618077.8784   23618086.2104
  21767866.640    -9975122.30549  -7762531.90549  21767868.0974   21767874.6384
  24407743.915    -9027826.14249  -7025840.07949  24407744.6154   24407750.2334
  23554612.017   -14013747.12449 -10908356.91649  23554614.0864   23554620.7524
  21298799.842    -5624183.27049  -4256702.11649  21298801.3874   21298807.5444
  21441852.568   -21704095.19649 -16659661.01949  21441854.5944   21441861.4394
 96  4 20 18 34 30.0020000  0  6 19  2 15 26 27  7
  23635571.731    15214124.27149  11855501.91849  23635574.6244   23635581.3944
  21770607.116    -9960718.92049  -7751308.49249  21770608.8754   21770615.2984
  24406775.370    -9032920.48749  -7029809.70349  24406775.1724   24406781.6694
  23549239.927   -14041983.91649 -10930359.61049  23549240.5674   23549246.9114
  21308283.875    -5574344.75749  -4217866.92649  21308285.5544   21308291.3504
  21433585.766   -21747539.87449 -16693514.00449  21433587.4104   21433594.2384
 96  4 20 18 35  0.0020000  0  6 19  2 15 26 27  7
  23653114.074    15306305.02149  11927331.02349  23653115.2304   23653123.0034
  21773381.586    -9946139.90249  -7739948.22849  21773383.1894   21773389.6894
  24405906.398    -9037477.27649  -7033360.44249  24405907.6394   24405915.1024
  23543960.608   -14069722.28649 -10951973.92949  23543962.4014   23543969.0984
  21317852.804    -5524060.59049  -4178684.47649  21317854.2214   21317860.5454
  21425408.306   -21790513.31449 -16726999.78849  21425409.9484   21425416.5824
 96  4 20 18 35 30.0020000  0  6 19  2 15 26 27  7
  23670701.702    15398729.47749  11999350.03049  23670703.7114   23670710.5654
  21776189.212    -9931386.73449  -7728452.25649  21776190.7304   21776197.2164
  24405141.786    -9041491.55449  -7036488.44349  24405144.0854   24405151.1894
  23538774.617   -14096976.27449 -10973210.80649  23538776.4294   23538782.5074
  21327509.582    -5473314.08649  -4139141.76449  21327511.1814   21327517.3054
  21417320.768   -21833014.34549 -16760117.46049  21417322.2894   21417328.5824
 96  4 20 18 36  0.0020000  0  6 19  2 15 26 27  7
  23688331.390    15491371.55349  12071538.62449  23688333.6124   23688340.2764
  21779025.830    -9916480.25449  -7716836.82349  21779027.4274   21779033.6414
  24404480.036    -9044973.64849  -7039201.76349  24404481.4034   24404488.3104
  23533678.380   -14123752.68349 -10994075.54149  23533680.8204   23533687.5174
  21337253.499    -5422108.30949  -4099241.18249  21337254.9774   21337261.2254
  21409317.633   -21875069.01849 -16792887.32449  21409319.6544   21409326.0244
 96  4 20 18 36 30.0020000  0  6 19  2 15 26 27  7
  23706003.474    15584241.25049  12143904.56849  23706005.6734   23706013.0704
  21781892.700    -9901416.42649  -7705098.77949  21781893.8674   21781900.0924
  24403919.443    -9047919.34949  -7041497.11249  24403920.7984   24403927.4294
  23528676.414   -14150040.48549 -11014559.53049  23528678.0064   23528684.5644
  21347087.464    -5370430.23949  -4058972.57349  21347088.9664   21347095.2014
  21401402.221   -21916665.62849 -16825300.25049  21401403.9584   21401410.5104
 96  4 20 18 37  0.0020000  0  6 19  2 15 26 27  7
  23723724.197    15677364.61349  12216468.17149  23723726.0104   23723733.4054
  21784790.245    -9886188.61649  -7693232.95949  21784791.7094   21784797.7834
  24403465.171    -9050311.28949  -7043360.96149  24403465.7524   24403472.2884
  23523773.561   -14175805.28249 -11034635.98249  23523775.5364   23523781.8174
  21357012.958    -5318271.24049  -4018329.22149  21357014.4604   21357020.9394
  21393578.488   -21957779.08749 -16857336.69749  21393580.2894   21393586.8114
 96  4 20 18 37 30.0020000  0  6 19  2 15 26 27  7
  23741488.425    15770717.32949  12289210.50049  23741490.5774   23741498.2684
  21787713.991    -9870824.61049  -7681261.01349  21787715.3464   21787721.6334
  24403111.284    -9052168.72949  -7044808.30349  24403112.2774   24403118.8064
  23518970.169   -14201047.54449 -11054305.27149  23518972.3364   23518978.2934
  21367023.898    -5265663.42249  -3977336.13749  21367025.6694   21367031.9954
  21385841.657   -21998436.15949 -16889017.51649  21385843.4594   21385849.8204
 96  4 20 18 38  0.0020000  0  6 19  2 15 26 27  7
  23759300.314    15864323.15949  12362150.03749  23759303.2124   23759310.4644
  21790670.950    -9855283.96149  -7669151.42349  21790672.4994   21790679.1004
  24402864.573    -9053462.36249  -7045816.32349  24402866.4364   24402872.7084
  23514276.210   -14225716.29749 -11073527.68049  23514277.6894   23514284.0304
  21377124.553    -5212586.05349  -3935977.17449  21377125.8794   21377131.8724
  21378197.911   -22038605.92649 -16920318.62249  21378199.3074   21378205.8004
 96  4 20 18 38 30.0020000  0  6 19  2 15 26 27  7
  23777157.375    15958161.21849  12435270.54649  23777160.0174   23777167.9444
  21793658.477    -9839586.13349  -7656919.35549  21793660.0824   21793666.2914
  24402721.200    -9054216.86149  -7046404.24849  24402721.8314   24402730.1364
  23509680.819   -14249856.84249 -11092338.49049  23509683.9844   23509690.2064
  21387309.053    -5159066.69649  -3894273.80549  21387310.5194   21387316.2104
  21370642.983   -22078304.60649 -16951252.64449  21370644.9794   21370651.3464
 96  4 20 18 39  0.0020000  0  6 19  2 15 26 27  7
  23795058.102    16052230.29349  12508571.05949  23795060.7874   23795068.6054
  21796676.909    -9823725.92649  -7644560.75949  21796678.2444   21796684.1254
  24402681.043    -9054426.06549  -7046567.25549  24402681.8274   24402690.2734
  23505187.004   -14273472.75849 -11110740.50949  23505189.9054   23505196.0354
  21397577.859    -5105102.16449  -3852223.55049  21397579.7764   21397585.5324
  21363176.428   -22117540.04649 -16981825.70649  21363178.7154   21363185.0834
 96  4 20 18 39 30.0020000  0  6 19  2 15 26 27  7
  23813007.162    16146549.85949  12582066.76649  23813009.9444   23813017.1894
  21799727.597    -9807692.18449  -7632066.93649  21799729.0374   21799735.2764
  24402747.975    -9054079.24049  -7046297.01549  24402748.1074   24402756.1004
  23500794.668   -14296563.84649 -11128733.55649  23500795.6674   23500802.1494
  21407935.008    -5050675.34449  -3809813.06749  21407936.8064   21407942.6874
  21355797.879   -22156315.85749 -17012040.61349  21355799.8984   21355806.3614
 96  4 20 18 40  0.0020000  0  6 19  2 15 26 27  7
  23831002.542    16241113.42749  12655752.59449  23831004.8564   23831012.7064
  21802808.394    -9791501.10749  -7619450.52149  21802810.1254   21802816.3624
  24402915.633    -9053193.18549  -7045606.59449  24402917.3244   24402923.7144
  23496492.725   -14319160.00849 -11146340.94849  23496495.4764   23496501.6214
  21418380.676    -4995787.03349  -3767042.98749  21418381.9104   21418387.8164
  21348504.003   -22194648.41749 -17041910.13349  21348505.5024   21348511.8354
 96  4 20 18 40 30.0020000  0  6 19  2 15 26 27  7
  23849049.149    16335951.85849  12729652.61349  23849051.0354   23849059.1934
  21805923.359    -9775135.64149  -7606698.21749  21805924.6554   21805930.6244
  24403192.554    -9051741.93649  -7044475.77049  24403192.8854   24403200.7474
  23492290.468   -14341247.70749 -11163552.14749  23492292.5564   23492298.7834
  21428917.730    -4940411.93849  -3723893.58449  21428919.2754   21428925.3814
  21341298.985   -22232509.04649 -17071411.90949  21341300.8624   21341307.2034
 96  4 20 18 41  0.0020000  0  6 19  2 15 26 27  7
  23867144.353    16431038.65549  12803746.14949  23867145.5564   23867153.0324
  21809067.660    -9758609.23749  -7593820.50749  21809069.2714   21809075.5594
  24403573.891    -9049737.24449  -7042913.68049  24403575.2564   24403581.3354
  23488183.991   -14362822.65849 -11180363.79949  23488186.9654   23488193.5234
  21439543.026    -4884571.40249  -3680381.50449  21439544.9504   21439551.4374
  21334180.985   -22269915.45749 -17100559.74749  21334182.6964   21334189.2574
 96  4 20 18 41 30.0020000  0  6 19  2 15 26 27  7
  23885283.205    16526359.60549  12878022.15449  23885284.6204   23885291.7504
  21812241.757    -9741929.84349  -7580823.58449  21812243.1364   21812249.3924
  24404058.885    -9047185.42349  -7040925.24849  24404060.7094   24404066.1604
  23484175.736   -14383890.35449 -11196780.17749  23484177.5894   23484183.9004
  21450254.423    -4828281.46349  -3636519.23249  21450256.6434   21450262.8974
  21327149.880   -22306860.50249 -17129348.07749  21327152.2294   21327158.6464
 96  4 20 18 42  0.0020000  0  6 19  2 15 26 27  7
  23903464.132    16621900.19749  12952469.29949  23903465.6784   23903472.3744
  21815443.911    -9725100.03249  -7567709.45449  21815445.6344   21815452.0544
  24404648.976    -9044083.44849  -7038508.11249  24404650.7074   24404657.6394
  23480265.500   -14404438.79349 -11212791.94649  23480267.5594   23480273.6174
  21461049.289    -4771558.87049  -3592319.83449  21461050.8784   21461057.0694
  21320210.181   -22343331.87549 -17157767.31649  21320211.8864   21320218.4044
 96  4 20 18 42 30.0020000  0  6 19  2 15 26 27  7
  23921688.794    16717673.68249  13027097.91249  23921691.3514   23921698.3994
  21818677.505    -9708108.34749  -7554469.18549  21818679.2814   21818685.5124
  24405347.145    -9040415.48649  -7035649.95749  24405347.5884   24405355.2654
  23476458.774   -14424442.23049 -11228379.03349  23476461.0834   23476467.2044
  21471925.719    -4714402.85549  -3547782.69549  21471927.1924   21471933.3594
  21313363.166   -22379311.94349 -17185803.72049  21313364.9404   21313371.3894
 96  4 20 18 43  0.0020000  0  6 19  2 15 26 27  7
  23939952.399    16813648.70349  13101883.57249  23939954.6924   23939962.0864
  21821938.165    -9690974.22849  -7541117.93549  21821939.6944   21821945.9844
  24406147.963    -9036205.68349  -7032369.60349  24406149.8224   24406156.4324
  23472751.386   -14443929.81149 -11243564.15949  23472752.8854   23472759.1044
  21482879.890    -4656833.51449  -3502923.48949  21482882.1034   21482888.3894
  21306604.787   -22414825.43549 -17213476.56049  21306606.8624   21306613.3594
 96  4 20 18 43 30.0020000  0  6 19  2 15 26 27  7
  23958262.293    16909865.40349  13176857.56049  23958263.6124   23958271.9414
  21825229.858    -9673677.34849  -7527639.84949  21825231.5084   21825237.4634
  24407057.958    -9031430.26349  -7028648.51349  24407058.9444   24407063.8894
  23469144.080   -14462882.54949 -11258332.51649  23469146.4614   23469152.6204
  21493920.951    -4598814.04449  -3457713.53349  21493922.6754   21493929.0344
  21299941.979   -22449840.00349 -17240760.62649  21299943.8544   21299950.3364
 96  4 20 18 44  0.0020000  0  6 19  2 15 26 27  7
  23976616.164    17006316.62949  13252014.29149  23976618.3224   23976626.1384
  21828550.486    -9656227.28949  -7514042.40949  21828552.1994   21828558.1064
  24408069.831    -9026111.24549  -7024503.83349  24408070.2274   24408076.3684
  23465635.133   -14481321.39449 -11272700.44249  23465637.7864   23465643.6424
  21505044.291    -4540360.19049  -3412165.09749  21505046.1714   21505052.8304
  21293368.713   -22484385.52549 -17267679.19949  21293370.1104   21293376.6894
 96  4 20 18 44 30.0020000  0  6 19  2 15 26 27  7
  23995016.467    17103011.89749  13327361.18049  23995019.0974   23995025.8584
  21831905.144    -9638599.11449  -7500306.17949  21831906.6534   21831912.7984
  24409186.474    -9020243.45349  -7019931.52949  24409187.4444   24409193.8254
  23462223.227   -14499256.20349 -11286675.61049  23462224.6984   23462230.3904
  21516253.286    -4481456.16249  -3366265.87149  21516255.1824   21516261.6734
  21286884.020   -22518459.42049 -17294230.27749  21286886.0824   21286892.5994
 96  4 20 18 45  0.0020000  0  6 19  2 15 26 27  7
  24013462.917    17199946.73849  13402894.75549  24013465.0194   24013472.1874
  21835293.220    -9620794.98649  -7486432.84249  21835294.9524   21835300.4934
  24410410.063    -9013816.15249  -7014923.26149  24410411.5354   24410416.3284
  23458908.308   -14516670.61549 -11300245.27349  23458910.6504   23458916.4554
  21527551.345    -4422087.23349  -3320004.39049  21527552.8424   21527559.2724
  21280492.033   -22552051.45949 -17320405.87949  21280494.0234   21280500.2314
 96  4 20 18 45 30.0020000  0  6 19  2 15 26 27  7
  24031953.444    17297111.55249  13478607.53749  24031954.9174   24031962.8444
  21838710.754    -9602837.46749  -7472439.98049  21838711.9924   21838717.7164
  24411736.586    -9006839.76249  -7009487.12849  24411738.5864   24411745.1944
  23455696.009   -14533555.44349 -11313402.27749  23455697.6884   23455703.6994
  21538934.016    -4362268.37149  -3273392.31149  21538935.8914   21538942.3214
  21274188.239   -22585177.11449 -17346218.06349  21274190.1184   21274196.4694
 96  4 20 18 46  0.0020000  0  6 19  2 15 26 27  7
  24050486.650    17394507.82149  13554500.66349  24050487.9824   24050495.7694
  21842158.636    -9584714.85149  -7458318.47249  21842160.4604   21842165.9724
  24413171.891    -8999299.68949  -7003611.74549  24413174.0464   24413179.3504
  23452583.995   -14549903.03549 -11326140.65549  23452586.8644   23452593.0754
  21550403.556    -4301994.45849  -3226425.64949  21550405.7014   21550412.3054
  21267975.543   -22617824.72049 -17371657.74449  21267977.6724   21267983.9844
 96  4 20 18 46 30.0020000  0  6 19  2 15 26 27  7
  24069061.496    17492123.15549  13630564.49349  24069063.8884   24069072.0214
  21845632.898    -9566457.20049  -7444091.74049  21845634.7394   21845640.3174
  24414715.145    -8991193.36249  -6997295.12449  24414716.3544   24414722.0374
  23449574.859   -14565711.40549 -11338458.86049  23449578.5994   23449585.3884
  21561960.664    -4241261.04949  -3179100.94049  21561962.8374   21561969.4384
  21261854.391   -22649993.02249 -17396723.94149  21261856.0894   21261862.5104
 96  4 20 18 47  0.0020000  0  6 19  2 15 26 27  7
  24087678.994    17589958.50149  13706799.75749  24087681.7934   24087689.1714
  21849130.124    -9548082.31749  -7429773.65149  21849131.4404   21849137.3514
  24416363.893    -8982524.81149  -6990540.39749  24416365.0854   24416371.8774
  23446669.453   -14580985.95949 -11350361.10349  23446671.5404   23446678.4544
  21573605.275    -4180072.29949  -3131421.41449  21573606.9234   21573613.0524
  21255823.080   -22681686.10249 -17421419.83249  21255824.8834   21255831.3274
 96  4 20 18 47 30.0020000  0  6 19  2 15 26 27  7
  24106341.327    17688021.58349  13783212.48849  24106342.6014   24106350.1754
  21852652.055    -9529572.98149  -7415350.79949  21852653.7074   21852659.5994
  24418117.644    -8973303.29449  -6983354.81149  24418119.3124   24418125.5974
  23443857.876   -14595753.62649 -11361868.37349  23443861.0294   23443868.2714
  21585333.061    -4118445.82549  -3083400.81449  21585334.1144   21585340.1794
  21249881.706   -22712909.24449 -17445749.54649  21249883.5914   21249889.5914
 96  4 20 18 48  0.0020000  0  6 19  2 15 26 27  7
  24125045.625    17786314.74949  13859804.48749  24125047.2764   24125054.3634
  21856203.889    -9510906.70849  -7400805.66249  21856205.3964   21856211.8374
  24419980.696    -8963519.06649  -6975730.74249  24419981.3024   24419988.3394
  23441143.363   -14610026.44649 -11372990.05449  23441145.0524   23441151.7484
  21597143.169    -4056381.12449  -3035038.73549  21597144.8074   21597150.5714
  21244032.174   -22743649.84849 -17469703.25549  21244033.8364   21244040.1794
 96  4 20 18 48 30.0020000  0  6 19  2 15 26 27  7
  24143793.485    17884837.85449  13936575.66949  24143795.7184   24143802.8934
  21859789.010    -9492066.46249  -7386124.96049  21859790.9154   21859796.7984
  24421950.075    -8953169.36749  -6967666.04649  24421951.5784   24421957.3554
  23438523.243   -14623792.56649 -11383716.89849  23438525.9544   23438532.7724
  21609036.270    -3993880.20949  -2986336.74949  21609038.5244   21609044.2024
  21238273.929   -22773908.45449 -17493281.37949  21238275.8874   21238282.3504
 96  4 20 18 49  0.0020000  0  6 19  2 15 26 27  7
  24162582.177    17983571.27649  14013510.72749  24162583.8334   24162591.7014
  21863411.528    -9473030.39649  -7371291.66849  21863413.1634   21863419.2354
  24424024.488    -8942264.60149  -6959168.83849  24424026.5984   24424033.2614
  23436002.760   -14637043.47949 -11394042.28849  23436004.4924   23436010.9854
  21621010.221    -3930957.69249  -2937306.24049  21621012.0804   21621017.9194
  21232606.416   -22803690.82349 -17516488.41049  21232608.4844   21232614.9624
 96  4 20 18 49 30.0020000  0  6 19  2 15 26 27  7
  24181405.719    18082493.91749  14090593.22749  24181408.1994   24181416.6234
  21867069.758    -9453804.92149  -7356310.78649  21867071.4074   21867077.3944
  24426204.644    -8930810.48149  -6950243.56249  24426206.2614   24426212.4954
  23433580.973   -14649771.75349 -11403960.42449  23433582.8114   23433589.4834
  21633061.071    -3867628.08949  -2887958.51849  21633063.2904   21633069.2974
  21227027.199   -22833012.53649 -17539336.49249  21227028.9464   21227035.1674
 96  4 20 18 50  0.0020000  0  6 19  2 15 26 27  7
  24200265.457    18181600.98549  14167819.44049  24200267.8224   24200275.7614
  21870762.380    -9434401.90149  -7341191.55549  21870763.9924   21870769.8524
  24428489.807    -8918800.03549  -6940884.79349  24428492.0674   24428498.3964
  23431261.873   -14661955.02649 -11413453.87849  23431264.2174   23431270.6564
  21645191.555    -3803882.54749  -2838286.69249  21645193.5404   21645199.6934
  21221533.676   -22861880.62649 -17561831.10249  21221535.6074   21221541.7474
 96  4 20 18 50 30.0020000  0  6 19  2 15 26 27  7
  24219162.094    18280902.63949  14245197.27549  24219164.6254   24219173.2154
  21874487.735    -9414824.57349  -7325936.49549  21874489.3134   21874495.7724
  24430882.786    -8906225.32449  -6931086.33349  24430884.2994   24430891.4714
  23429051.419   -14673572.89149 -11422506.75449  23429053.8504   23429059.9224
  21657405.817    -3739697.31049  -2788272.24549  21657407.6024   21657413.8654
  21216127.499   -22890286.81049 -17583965.78349  21216129.8684   21216136.0354
 96  4 20 18 51  0.0020000  0  6 19  2 15 26 27  7
  24238095.726    18380400.81649  14322728.25349  24238097.9554   24238105.9344
  21878242.539    -9395094.75949  -7310562.62249  21878244.1494   21878250.3534
  24433384.255    -8893085.22749  -6920847.31549  24433385.1704   24433392.7884
  23426946.161   -14684634.60049 -11431126.27149  23426948.6464   23426954.8304
  21669704.734    -3675064.46349  -2737909.01349  21669707.0104   21669713.3944
  21210811.709   -22918221.33749 -17605732.93749  21210813.9274   21210820.4814
 96  4 20 18 51 30.0020000  0  6 19  2 15 26 27  7
  24257068.171    18480098.09749  14400414.37749  24257070.3304   24257077.8664
  21882021.560    -9375234.50649  -7295087.10649  21882023.1664   21882029.5974
  24435989.809    -8879384.51949  -6910171.47449  24435991.6604   24435999.7554
  23424941.289   -14695164.23449 -11439331.17749  23424944.5234   23424950.5304
  21682088.172    -3609990.67149  -2687202.18549  21682090.0344   21682096.6374
  21205586.751   -22945679.00649 -17627128.51249  21205589.0854   21205595.4304
 96  4 20 18 52  0.0020000  0  6 19  2 15 26 27  7
  24276076.755    18579995.15849  14478256.16849  24276079.7134   24276087.4044
  21885825.886    -9355243.73649  -7279509.88649  21885827.3634   21885833.8934
  24438704.403    -8865123.69649  -6899059.17549  24438705.7974   24438712.5694
  23423038.287   -14705169.23949 -11447127.27949  23423040.5464   23423046.4174
  21694558.647    -3544455.54849  -2636135.88049  21694560.8764   21694567.3934
  21200455.960   -22972641.96149 -17648138.59749  21200458.0004   21200464.7514
 96  4 20 18 52 30.0020000  0  6 19  2 15 26 27  7
  24295123.220    18680081.38749  14556245.35049  24295125.5134   24295133.2094
  21889653.233    -9335127.52349  -7263834.91649  21889655.0624   21889661.9094
  24441524.597    -8850309.70149  -6887515.82849  24441524.7144   24441532.0484
  23421231.954   -14714665.03949 -11454526.61149  23421233.9624   23421239.4754
  21707117.380    -3478459.08449  -2584710.08949  21707119.4934   21707126.1114
  21195419.984   -22999104.93849 -17668759.08849  21195422.1654   21195428.9114
 96  4 20 18 53  0.0020000  0  6 19  2 15 26 27  7
  24314208.883    18780371.61849  14634393.50349  24314211.0064   24314218.0764
  21893508.052    -9314871.52749  -7248051.02749  21893509.9264   21893516.4304
  24444449.864    -8834930.53049  -6875532.07649  24444451.5864   24444458.5104
  23419522.636   -14723642.28949 -11461521.88549  23419525.5654   23419531.4834
  21719763.358    -3412005.09649  -2532927.78649  21719765.3734   21719771.7444
  21190480.545   -23025065.06349 -17688987.75049  21190482.0164   21190488.7764
 96  4 20 18 53 30.0020000  0  6 19  2 15 26 27  7
  24333329.760    18880853.21849  14712690.77049  24333332.4194   24333339.6094
  21897389.342    -9294477.07449  -7232159.24749  21897390.9204   21897397.2514
  24447482.443    -8818996.94749  -6863116.32749  24447483.9494   24447490.9894
  23417910.758   -14732116.66649 -11468125.30249  23417912.7904   23417918.6364
  21732494.891    -3345102.03649  -2480795.56249  21732496.3684   21732503.0954
  21185628.550   -23050558.65349 -17708852.87549  21185630.9004   21185637.4354
 96  4 20 18 54  0.0020000  0  6 19  2 15 26 27  7
  24352486.627    18981525.97249  14791136.99449  24352489.2864   24352496.2814
  21901295.678    -9273947.31649  -7216162.03949  21901297.6344   21901304.1984
  24450619.329    -8802512.75049  -6850271.51949  24450620.9154   24450627.7874
  23416394.242   -14740087.32949 -11474336.21549  23416396.7144   23416401.9964
  21745310.457    -3277753.69049  -2428316.36449  21745312.6654   21745319.1784
  21180862.299   -23075606.60449 -17728370.75149  21180864.3634   21180870.5644
 96  4 20 18 54 30.0020000  0  6 19  2 15 26 27  7
  24371682.226    19082395.68349  14869736.68849  24371684.2034   24371691.4404
  21905229.557    -9253276.60349  -7200054.99649  21905231.0184   21905237.7054
  24453861.115    -8785474.16749  -6836994.71449  24453862.4224   24453868.9604
  23414973.897   -14747553.87849 -11480154.31049  23414975.5814   23414981.7324
  21758207.873    -3209978.87049  -2375504.85049  21758209.9554   21758216.6694
  21176178.643   -23100221.81049 -17747551.41849  21176180.4194   21176186.4054
 96  4 20 18 55  0.0020000  0  6 19  2 15 26 27  7
  24390914.421    19183460.75249  14948488.59749  24390916.5124   24390923.7074
  21909189.725    -9232463.94249  -7183837.34449  21909191.6784   21909198.0274
  24457208.803    -8767883.48749  -6823287.70449  24457209.9254   24457216.4604
  23413647.140   -14754521.89649 -11485583.94649  23413649.7644   23413655.3744
  21771182.855    -3141794.65749  -2322374.33049  21771185.0654   21771191.7784
  21171575.388   -23124411.72449 -17766400.69249  21171577.2974   21171583.4594
 96  4 20 18 55 30.0020000  0  6 19  2 15 26 27  7
  24410186.270    19284737.18249  15027405.20249  24410188.7144   24410195.1224
  21913180.048    -9211495.05649  -7167497.95849  21913181.7894   21913188.0774
  24460664.313    -8749725.88049  -6809138.93549  24460665.1264   24460671.6764
  23412421.063   -14760969.19349 -11490607.82949  23412423.1214   23412428.8284
  21784240.469    -3073177.03849  -2268906.09649  21784242.5914   21784249.3064
  21167059.259   -23148139.26849 -17784889.68149  21167061.7804   21167068.1834
 96  4 20 18 56  0.0020000  0  6 19  2 15 26 27  7
  24429497.445    19386214.43249  15106478.29749  24429498.8174   24429507.0284
  21917197.736    -9190382.21749  -7151046.40049  21917199.4654   21917205.9304
  24464223.390    -8731016.73949  -6794560.39749  24464226.3364   24464232.1834
  23411292.804   -14766898.61649 -11495228.16049  23411294.5974   23411300.2974
  21797375.685    -3004151.61049  -2215120.07849  21797377.5604   21797383.9874
  21162634.458   -23171394.77749 -17803010.84849  21162636.4404   21162643.2044
 96  4 20 18 56 30.0020000  0  6 19  2 15 26 27  7
  24448849.181    19487906.61149  15185718.87249  24448850.7914   24448858.4544
  21921245.866    -9169109.19149  -7134470.02749  21921247.6694   21921254.3294
  24467891.803    -8711743.45949  -6779542.26449  24467893.5724   24467899.7664
  23410263.653   -14772305.08049 -11499441.00849  23410265.7784   23410271.9034
  21810590.582    -2934707.00249  -2161007.43149  21810592.8204   21810599.3864
  21158300.927   -23194166.93749 -17820755.38549  21158303.1074   21158309.7654
 96  4 20 18 57  0.0020000  0  6 19  2 15 26 27  7
  24468237.289    19589791.89649  15265109.91449  24468238.8434   24468246.5794
  21925320.260    -9147697.41749  -7117785.53349  21925322.0684   21925328.4594
  24471661.475    -8691928.91249  -6764102.37849  24471663.8024   24471670.9884
  23409330.655   -14777200.29349 -11503255.46349  23409333.7104   23409340.3604
  21823882.949    -2864856.26749  -2106578.31749  21823884.8774   21823891.4504
  21154056.640   -23216467.99349 -17838132.82549  21154059.1624   21154065.8904
 96  4 20 18 57 30.0020000  0  6 19  2 15 26 27  7
  24487663.025    19691875.92949  15344655.81549  24487665.1184   24487672.8604
  21929421.849    -9126143.49049  -7100990.27349  21929423.6484   21929430.0404
  24475537.650    -8671566.77149  -6748235.78949  24475538.5704   24475545.8594
  23408499.853   -14781568.39749 -11506659.18149  23408502.4584   23408508.3854
  21837253.914    -2794589.60249  -2051825.10049  21837256.1774   21837262.4814
  21149903.532   -23238295.01049 -17855140.88049  21149905.7194   21149912.3544
 96  4 20 18 58  0.0020000  0  6 19  2 15 26 27  7
  24507125.736    19794158.89449  15424356.72749  24507128.6804   24507136.3114
  21933554.160    -9104426.62749  -7084068.05249  21933556.1584   21933562.4014
  24479518.334    -8650641.87649  -6731930.69449  24479520.3914   24479527.9164
  23407770.903   -14785396.63349 -11509642.23549  23407773.5384   23407780.1094
  21850705.369    -2723901.12749  -1996743.20149  21850707.5204   21850713.9834
  21145839.745   -23259651.90049 -17871782.60849  21145841.7154   21145848.3074
 96  4 20 18 58 30.0020000  0  6 19  2 15 26 27  7
  24526626.801    19896634.02049  15504207.37649  24526628.7244   24526636.2454
  21937720.219    -9082536.23449  -7067010.61549  21937721.9704   21937728.2454
  24483608.370    -8629145.17249  -6715180.02549  24483611.1744   24483618.7004
  23407146.992   -14788679.26049 -11512200.12449  23407149.2364   23407155.3754
  21864238.549    -2652783.12449  -1941326.60349  21864240.5694   21864247.1714
  21141866.526   -23280529.71949 -17888051.03249  21141868.7664   21141875.4494
 96  4 20 18 59  0.0020000  0  6 19  2 15 26 27  7
  24546155.528    19999259.31449  15584175.03449  24546157.8354   24546165.8524
  21941910.362    -9060516.48049  -7049852.37349  21941912.3314   21941918.0524
  24487803.566    -8607106.43249  -6698006.99949  24487804.5714   24487812.5574
  23406621.746   -14791436.08749 -11514348.30349  23406624.9924   23406630.4634
  21877848.518    -2581261.74649  -1885595.69049  21877850.8104   21877857.3404
  21137982.737   -23300940.60949 -17903955.61749  21137984.4724   21137991.1874
 96  4 20 18 59 30.0020000  0  6 19  2 15 26 27  7
  24565713.227    20102039.30649  15664263.23949  24565715.8564   24565724.1274
  21946127.954    -9038353.16249  -7032582.26449  21946129.6344   21946135.7654
  24492102.913    -8584509.37949  -6680398.91249  24492104.7764   24492111.7334
  23406198.847   -14793659.96849 -11516081.19249  23406201.5464   23406207.4974
  21891538.804    -2509320.03849  -1829537.24249  21891541.0964   21891547.2544
  21134190.954   -23320865.84249 -17919481.77149  21134193.1354   21134199.4154
 96  4 20 19  0  0.0020000  0  6 19  2 15 26 27  7
  24585301.808    20204975.50949  15744473.17049  24585303.4904   24585312.0844
  21950374.083    -9016038.43149  -7015194.16849  21950375.7944   21950381.6034
  24496509.467    -8561352.46149  -6662354.57449  24496511.9654   24496519.3384
  23405874.869   -14795365.44849 -11517410.13649  23405877.0874   23405883.6124
  21905310.324    -2436954.32049  -1773148.39849  21905312.0244   21905318.4244
  21130493.519   -23340296.88849 -17934622.83649  21130495.5614   21130501.5564
 96  4 20 19  0 30.0020000  0  6 19  2 15 26 27  7
  24604921.232    20308075.34649  15824810.59949  24604922.9374   24604931.7064
  21954646.493    -8993585.49149  -6997698.38349  21954648.4254   21954654.5604
  24501022.741    -8537640.59149  -6643877.79749  24501023.6664   24501031.9534
  23405647.548   -14796561.94949 -11518342.47849  23405649.7954   23405655.9754
  21919160.471    -2364170.77749  -1716433.98549  21919162.2214   21919168.6174
  21126889.809   -23359232.80449 -17949378.09349  21126892.0484   21126897.9654
 96  4 20 19  1  0.0020000  0  6 19  2 15 26 27  7
  24624573.339    20411353.14849  15905286.69849  24624577.4164   24624585.1354
  21958946.988    -8970989.82649  -6980091.37549  21958948.6064   21958954.2314
  24505641.834    -8513365.84449  -6624962.42749  24505643.5544   24505651.3984
  23405518.659   -14797236.94049 -11518868.44849  23405521.3224   23405527.2554
  21933090.219    -2290967.34149  -1659392.37949  21933092.3144   21933099.0274
  21123379.156   -23377682.54549 -17963754.50449  21123381.0264   21123387.4074
 96  4 20 19  1 30.0020000  0  6 19  2 15 26 27  7
  24644261.379    20514805.24249  15985898.61149  24644263.4104   24644271.1454
  21963277.146    -8948235.17349  -6962360.48049  21963278.5524   21963284.8404
  24510367.644    -8488531.63349  -6605611.08849  24510369.9374   24510377.8134
  23405488.065   -14797400.29549 -11518995.74549  23405490.0584   23405495.7944
  21947095.525    -2217366.36049  -1602040.99949  21947097.9854   21947104.3724
  21119957.971   -23395661.56049 -17977764.11949  21119959.8184   21119966.3604
 96  4 20 19  2  0.0020000  0  6 19  2 15 26 27  7
  24663980.902    20618433.47449  16066647.76249  24663982.7414   24663991.5164
  21967634.703    -8925333.60449  -6944515.11249  21967636.1804   21967642.9644
  24515197.325    -8463148.55349  -6585832.08549  24515199.3574   24515206.5414
  23405554.799   -14797049.73649 -11518722.59149  23405557.1544   23405562.3784
  21961175.047    -2143380.92549  -1544390.04649  21961177.0804   21961183.3784
  21116623.543   -23413184.33349 -17991418.22049  21116625.2884   21116631.6174
 96  4 20 19  2 30.0020000  0  6 19  2 15 26 27  7
  24683736.573    20722246.37049  16147540.80749  24683738.6284   24683746.7904
  21972021.095    -8902282.03049  -6926552.85449  21972022.6624   21972029.6004
  24520135.693    -8437200.98749  -6565613.19649  24520137.0404   24520144.3914
  23405725.059   -14796152.66849 -11518023.58949  23405727.6484   23405733.0574
  21975331.705    -2068988.90049  -1486422.26849  21975333.3594   21975339.8034
  21113378.324   -23430236.37449 -18004705.51749  21113380.6044   21113386.9424
 96  4 20 19  3  0.0020000  0  6 19  2 15 26 27  7
  24703522.942    20826222.62649  16228561.14849  24703524.9114   24703533.0494
  21976434.854    -8879088.62149  -6908480.07849  21976436.4874   21976442.8434
  24525179.473    -8410696.41249  -6544960.28749  24525180.0234   24525189.1764
  23405997.535   -14794720.99949 -11516908.01049  23405999.9204   23406006.0734
  21989566.460    -1994183.49049  -1428132.37649  21989568.6674   21989574.6794
  21110221.615   -23446825.48849 -18017632.09349  21110223.7374   21110230.4864
 96  4 20 19  3 30.0020000  0  6 19  2 15 26 27  7
  24723339.865    20930369.38049  16309714.34649  24723342.9064   24723351.9374
  21980876.272    -8855750.05649  -6890294.19149  21980877.9334   21980884.3714
  24530328.868    -8383632.29649  -6523871.36549  24530330.8104   24530339.1484
  23406369.913   -14792759.31249 -11515379.43449  23406372.9504   23406380.0374
  22003884.881    -1918942.18149  -1369502.82549  22003886.4444   22003892.9054
  21107154.775   -23462940.08049 -18030188.91549  21107157.0724   21107163.7284
 96  4 20 19  4  0.0020000  0  6 19  2 15 26 27  7
  24743190.530    21034680.77049  16390995.83349  24743192.0654   24743200.9194
  21985340.507    -8832289.18249  -6872012.99949  21985342.3894   21985348.8264
  24535583.820    -8356017.23049  -6502353.13449  24535585.7954   24535594.2064
  23406841.741   -14790281.92449 -11513449.00949  23406844.4444   23406851.4864
  22018288.217    -1843251.69649  -1310523.26249  22018290.1754   22018296.3294
  21104175.406   -23478598.26249 -18042390.08749  21104177.2664   21104183.7954
 96  4 20 19  4 30.0020000  0  6 19  2 15 26 27  7
  24763069.578    21139145.23549  16472396.60049  24763071.1094   24763080.7834
  21989829.745    -8808698.88349  -6853630.95549  21989831.5474   21989838.1294
  24540945.283    -8327845.72949  -6480401.31649  24540947.4424   24540954.5664
  23407408.988   -14787298.19049 -11511124.02749  23407412.1154   23407418.8294
  22032776.500    -1767113.91649  -1251195.15049  22032778.6154   22032785.0024
  21101281.338   -23493805.87849 -18054240.17049  21101283.3574   21101290.2184
 96  4 20 19  5  0.0020000  0  6 19  2 15 26 27  7
  24782977.538    21243760.38349  16553914.79249  24782978.9294   24782988.0044
  21994345.443    -8784968.88349  -6835140.06049  21994347.2514   21994353.3704
  24546410.491    -8299122.35649  -6458019.45949  24546412.2084   24546420.1784
  23408071.707   -14783821.72149 -11508415.10149  23408073.8384   23408080.1204
  22047345.985    -1690547.01549  -1191532.66049  22047348.4544   22047355.2474
  21098470.980   -23508572.84349 -18065746.89349  21098473.4564   21098480.0914
 96  4 20 19  5 30.0020000  0  7 19  2  4 15 26 27  7
  24802919.008    21348551.04949  16635569.75649  24802920.5984   24802928.7784
  21998893.001    -8761067.97449  -6816515.98249  21998895.2474   21998901.4004
  25416766.634    -4927815.38959  -3820070.39359  25416769.5884   25416778.0484
  24551983.243    -8269837.04749  -6435199.74349  24551985.5564   24551993.6144
  23408829.489   -14779837.13049 -11505310.23449  23408832.3524   23408838.6184
  22061996.313    -1613558.18049  -1131541.38649  22061999.1614   22062005.7674
  21095747.327   -23522889.14849 -18076902.45349  21095749.2574   21095755.7534
 96  4 20 19  6  0.0020000  0  8 19  2  4  9 15 26 27  7
  24822889.819    21453506.22549  16717352.90949  24822893.3694   24822901.9854
  22003472.777    -8737003.44149  -6797764.40449  22003474.6734   22003480.9684
  25398692.097    -5022796.53849  -3894081.63049  25398695.6824   25398704.1554
  25475242.645    -4888415.24559  -3788343.11259  25475242.1314   25475251.2584
  24557661.945    -8239994.85449  -6411946.08549  24557663.9484   24557672.2774
  23409683.134   -14775353.60149 -11501816.58749  23409685.6154   23409691.8704
  22076723.149    -1536171.56549  -1071240.15449  22076725.0504   22076731.6854
  21093109.919   -23536747.32649 -18087701.03049  21093111.9524   21093118.4154
 96  4 20 19  6 30.0020000  0  8 19  2  4  9 15 26 27  7
  24842884.344    21558575.13949  16799224.68149  24842887.3144   24842895.3104
  22008074.136    -8712822.55349  -6778922.16049  22008076.1564   22008082.7774
  25380592.655    -5117910.78249  -3968196.56549  25380595.4714   25380604.5354
  25457585.934    -4981200.53149  -3860643.28849  25457587.6314   25457593.5354
  24563436.091    -8209651.84549  -6388302.17949  24563438.2994   24563444.2534
  23410621.847   -14770419.80349 -11497972.08749  23410624.0964   23410630.6204
  22091511.623    -1458455.89749  -1010682.52349  22091513.7444   22091520.0584
  21090552.467   -23550184.83249 -18098171.81249  21090554.9744   21090561.0164
 96  4 20 19  7  0.0020000  0  8 19  2  4  9 15 26 27  7
  24862913.417    21663825.65849  16881237.95549  24862916.0404   24862923.3454
  22012707.425    -8688475.15349  -6759950.17149  22012709.1224   22012715.5304
  25362479.776    -5213094.39149  -4042365.53849  25362482.3734   25362491.1824
  25439927.034    -5073996.91749  -3932952.13549  25439928.6874   25439935.9334
  24569315.993    -8178753.59249  -6364225.62649  24569317.5074   24569325.6484
  23411657.660   -14764976.78849 -11493730.77749  23411660.2034   23411666.0134
  22106374.780    -1380352.05249   -949822.42149  22106376.6564   22106383.1234
  21088088.682   -23563134.21249 -18108262.23149  21088090.9604   21088097.0694
 96  4 20 19  7 30.0020000  0  8 19  2  4  9 15 26 27  7
  24882975.384    21769247.76249  16963384.93249  24882976.9324   24882985.5234
  22017366.961    -8663988.02549  -6740869.29849  22017368.8724   22017375.2674
  25344350.646    -5308363.98449  -4116601.53149  25344352.7814   25344362.6944
  25422268.717    -5166792.77049  -4005260.57549  25422270.5034   25422277.1974
  24575299.468    -8147311.42549  -6339725.23649  24575300.9564   24575309.1544
  23412787.301   -14759036.05449 -11489101.63949  23412790.0384   23412796.1814
  22121309.773    -1301869.18949   -888666.97549  22121311.5954   22121318.1594
  21085715.087   -23575607.61649 -18117981.76049  21085717.3304   21085723.7284
 96  4 20 19  8  0.0020000  0  8 19  2  4  9 15 26 27  7
  24903067.883    21874835.30449  17045660.81349  24903069.9404   24903078.2154
  22022049.902    -8639379.86849  -6721694.12249  22022051.6294   22022058.0284
  25326207.399    -5403700.93649  -4190890.00249  25326211.0344   25326220.3384
  25404611.815    -5259578.66649  -4077561.23549  25404613.4974   25404620.8424
  24581387.556    -8115314.28749  -6314792.41349  24581390.2084   24581396.1134
  23414018.671   -14752572.09649 -11484064.79549  23414020.4884   23414026.7394
  22136318.272    -1222997.37349   -827208.45449  22136320.2214   22136326.9814
  21083432.887   -23587599.11549 -18127325.77849  21083435.4034   21083441.8984
 96  4 20 19  8 30.0020000  0  8 19  2  4  9 15 26 27  7
  24923190.991    21980585.77249  17128063.64649  24923192.9944   24923201.2544
  22026758.768    -8614636.50049  -6702413.58849  22026760.5334   22026766.6204
  25308053.676    -5499106.12549  -4265231.64549  25308055.2304   25308064.6944
  25386960.603    -5352337.87749  -4149841.10149  25386962.1164   25386969.5114
  24587583.944    -8082759.34749  -6289424.93149  24587586.2904   24587592.4404
  23415351.133   -14745567.23749 -11478606.46949  23415353.1164   23415359.6454
  22151403.593    -1143725.86349   -765438.48249  22151405.5434   22151411.5544
  21081240.011   -23599125.06749 -18136307.03449  21081242.1134   21081248.3674
 96  4 20 19  9  0.0020000  0  8 19  2  4  9 15 26 27  7
  24943343.143    22086484.27149  17210581.83049  24943345.2594   24943352.7524
  22031492.460    -8589763.43749  -6683031.99249  22031493.9464   22031499.4204
  25289881.394    -5594595.62849  -4339638.97749  25289884.5394   25289894.1474
  25369315.484    -5445063.76849  -4222095.01449  25369318.5164   25369324.7374
  24593883.294    -8049654.62149  -6263629.05149  24593884.4004   24593892.2234
  23416784.645   -14738030.80049 -11472733.92949  23416787.8924   23416793.5924
  22166563.193    -1064062.66949   -703363.29949  22166565.2094   22166571.0414
  21079133.081   -23610197.01849 -18144934.52349  21079135.1154   21079141.4164
 96  4 20 19  9 30.0020000  0  8 19  2  4  9 15 26 27  7
  24963521.086    22192521.49749  17293208.10449  24963523.6654   24963530.5594
  22036252.578    -8564746.95549  -6663538.63549  22036254.1764   22036259.9854
  25271694.507    -5690170.97949  -4414113.19649  25271697.9494   25271706.5994
  25351676.768    -5537755.67249  -4294322.44049  25351679.2494   25351684.9694
  24600286.437    -8016003.32749  -6237407.28149  24600289.5894   24600295.8334
  23418320.903   -14729962.00149 -11466446.56849  23418323.0294   23418329.0704
  22181796.682     -984009.30749   -640984.08849  22181798.7334   22181804.8874
  21077111.062   -23620821.87249 -18153213.62249  21077113.1544   21077119.5404
 96  4 20 19 10  0.0020000  0  8 19  2  4  9 15 26 27  7
  24983725.188    22298692.93149  17375938.96249  24983727.2254   24983734.9774
  22041044.314    -8539564.97349  -6643916.31749  22041045.8794   22041051.9744
  25253493.502    -5785819.10649  -4488644.13349  25253496.6444   25253505.2184
  25334044.113    -5630418.06449  -4366526.86549  25334046.0564   25334051.9984
  24606795.944    -7981797.33649  -6210753.27249  24606797.3894   24606804.6454
  23419958.231   -14721355.05049 -11459739.85249  23419960.4954   23419967.0144
  22197108.073     -903545.50849   -578285.05949  22197110.3744   22197116.8174
  21075177.748   -23630981.55649 -18161130.25449  21075180.0504   21075186.3064
 96  4 20 19 10 30.0020000  0  8 19  2  4  9 15 26 27  7
  25003951.359    22404979.39749  17458759.44749  25003954.0644   25003960.4934
  22045867.387    -8514218.22549  -6624165.61149  22045869.3024   22045875.1444
  25235275.553    -5881555.86749  -4563244.12349  25235278.2204   25235286.4244
  25316414.338    -5723067.01549  -4438720.82349  25316415.2604   25316422.7964
  24613405.545    -7947059.91549  -6183685.17349  24613407.9304   24613415.2154
  23421689.867   -14712255.56649 -11452649.35049  23421692.4054   23421698.6364
  22212494.441     -822689.01149   -515280.03749  22212496.4844   22212503.1704
  21073330.639   -23640687.91849 -18168693.65049  21073332.7664   21073339.2614
 96  4 20 19 11  0.0020000  0  8 19  2  4  9 15 26 27  7
  25024200.156    22511388.40049  17541675.42849  25024202.3464   25024211.2294
  22050721.563    -8488710.49949  -6604289.46649  22050723.1904   22050729.2314
  25217045.953    -5977354.54649  -4637892.37849  25217048.9584   25217056.9504
  25298786.087    -5815699.02649  -4510901.56449  25298787.5684   25298794.9064
  24620118.504    -7911780.22349  -6156194.51449  24620121.0854   24620129.8644
  23423516.627   -14702657.42749 -11445170.28049  23423519.1704   23423525.1974
  22227956.737     -741436.19649   -451966.18849  22227958.8684   22227965.3114
  21071572.771   -23649924.63049 -18175891.08049  21071575.0524   21071581.7784
 96  4 20 19 11 30.0020000  0  8 19  2  4  9 15 26 27  7
  25044472.663    22617925.67149  17624691.36149  25044475.8044   25044484.2974
  22055607.257    -8463034.07649  -6584281.87349  22055609.5334   22055615.4024
  25198809.395    -6073188.30549  -4712567.97049  25198811.9644   25198820.9664
  25281161.103    -5908317.24649  -4583071.57149  25281163.3614   25281170.2074
  24626938.504    -7875945.35149  -6128271.25149  24626940.0204   24626948.4184
  23425441.077   -14692539.18049 -11437285.94349  23425444.2864   23425450.5174
  22243497.620     -659766.84149   -388327.76249  22243500.2794   22243506.8504
  21069905.367   -23658687.03849 -18182718.92749  21069907.4484   21069914.0634
 96  4 20 19 12  0.0020000  0  8 19  2  4  9 15 26 27  7
  25064771.112    22724591.83549  17707807.72949  25064773.4134   25064783.1044
  22060522.298    -8437207.88249  -6564157.58149  22060523.8554   22060530.1234
  25180565.505    -6169061.56949  -4787274.35249  25180568.1294   25180575.4514
  25263536.934    -6000930.85149  -4655237.98249  25263539.8734   25263547.6154
  24633862.268    -7839559.42449  -6099918.60049  24633864.5864   24633872.5144
  23427464.339   -14681907.89649 -11429001.83849  23427467.0164   23427473.5674
  22259116.491     -577692.07049   -324373.42549  22259118.1554   22259125.0164
  21068328.375   -23666973.74149 -18189176.10049  21068330.4104   21068337.0694
 96  4 20 19 12 30.0020000  0  8 19  2  4  9 15 26 27  7
  25085098.613    22831412.95349  17791044.83949  25085100.5734   25085110.2064
  22065465.487    -8411229.75849  -6543914.89549  22065467.5184   22065473.5694
  25162315.361    -6264964.67449  -4862003.98149  25162317.9294   25162326.1354
  25245918.477    -6093516.72249  -4727382.78349  25245921.8174   25245927.8554
  24640893.089    -7802616.89949  -6071132.22449  24640894.5864   24640902.1974
  23429587.385   -14670751.93249 -11420308.89149  23429589.9454   23429596.7674
  22274807.727     -495227.51649   -260115.35849  22274810.2814   22274817.6804
  21066840.662   -23674789.17649 -18195266.05049  21066843.0504   21066849.4104
 96  4 20 19 13  0.0020000  0  8 19  2  4  9 15 26 27  7
  25105456.535    22938391.65349  17874404.74549  25105458.0964   25105467.0774
  22070435.314    -8385114.00849  -6523564.96849  22070437.2574   22070442.9754
  25144056.862    -6360916.57849  -4936771.63649  25144058.8574   25144066.3424
  25228307.065    -6186069.23749  -4799501.58949  25228308.5074   25228315.5084
  24648027.465    -7765123.86149  -6041916.88049  24648028.9624   24648036.6234
  23431810.436   -14659068.13349 -11411204.63949  23431813.5584   23431820.3224
  22290572.789     -412382.08149   -195560.50349  22290575.2094   22290582.6354
  21065442.029   -23682143.79749 -18200996.92149  21065443.9724   21065449.9734
 96  4 20 19 13 30.0020000  0  8 19  2  4  9 15 26 27  7
  25125845.967    23045540.71649  17957897.40549  25125848.9704   25125857.9794
  22075432.243    -8358855.90049  -6503104.11249  22075434.0584   22075439.5924
  25125784.240    -6456933.17549  -5011589.69949  25125787.2224   25125794.4004
  25210701.410    -6278582.37449  -4871589.70749  25210703.7454   25210712.1934
  24655264.517    -7727089.36549  -6012279.62449  24655267.2194   24655274.1324
  23434131.345   -14646872.88549 -11401701.85749  23434134.5414   23434141.1094
  22306410.372     -329158.52849   -130711.01949  22306412.4444   22306419.7064
  21064129.083   -23689045.20649 -18206374.64249  21064130.7274   21064136.8264
 96  4 20 19 14  0.0020000  0  8 19  2  4  9 15 26 27  7
  25146272.707    23152875.16049  18041534.49749  25146274.4564   25146282.9274
  22080456.858    -8332450.33649  -6482528.36049  22080458.8464   22080464.5924
  25107501.472    -6553014.61749  -5086458.28249  25107503.5224   25107510.1184
  25193110.921    -6371021.36549  -4943620.04249  25193113.6094   25193121.3694
  24662605.918    -7688511.56149  -5982219.01049  24662608.3434   24662614.9364
  23436549.407   -14634168.21149 -11391802.11849  23436552.0394   23436558.7804
  22322316.806     -245567.92149    -65575.52249  22322319.0924   22322326.5024
  21062903.714   -23695483.40849 -18211391.41949  21062905.4894   21062911.8884
 96  4 20 19 14 30.0020000  0  8 19  2  4  9 15 26 27  7
  25166728.429    23260372.57149  18125298.58149  25166730.4404   25166739.0094
  22085509.532    -8305897.92149  -6461838.17549  22085511.5094   22085517.2464
  25089202.687    -6649172.85049  -5161386.69449  25089205.8324   25089212.7924
  25175533.515    -6463387.62649  -5015593.70549  25175536.7954   25175544.6984
  24670049.361    -7649399.30949  -5951741.94049  24670050.3564   24670058.8084
  23439064.119   -14620955.12249 -11381506.21549  23439066.5114   23439073.4614
  22338292.124     -161618.98949      -160.80049  22338294.5944   22338301.5544
  21061762.801   -23701475.06949 -18216060.24349  21061765.3494   21061771.7984
 96  4 20 19 15  0.0020000  0  8 19  2  4  9 15 26 27  7
  25187214.086    23368024.99249  18209183.43849  25187216.6654   25187224.2424
  22090592.568    -8279187.83649  -6441025.13249  22090594.5064   22090600.1824
  25070891.927    -6745396.13749  -5236365.80049  25070894.4064   25070901.5604
  25157970.334    -6555684.45849  -5087513.25849  25157972.5884   25157980.8564
  24677594.848    -7609742.35649  -5920840.43549  24677597.4934   24677604.9644
  23441676.966   -14607222.75649 -11370805.68649  23441679.7834   23441686.3464
  22354342.997      -77270.18749     65565.50149  22354345.6264   22354352.7014
  21060712.059   -23707000.46049 -18220365.74449  21060714.2584   21060720.4824
 96  4 20 19 15 30.0020000  0  8 19  2  4  9 15 26 27  7
  25207723.964    23475809.34649  18293171.11549  25207726.7244   25207735.3854
  22095705.247    -8252320.96749  -6420089.91349  22095707.0204   22095712.5644
  25052570.980    -6841670.18549  -5311384.43849  25052574.3974   25052581.1944
  25140416.846    -6647930.64549  -5159393.36849  25140418.2774   25140426.9584
  24685244.713    -7569545.32149  -5889518.07649  24685247.1174   24685255.0294
  23444388.573   -14592972.69949 -11359701.75749  23444391.5244   23444398.2694
  22370470.524        7477.44549    131602.58549  22370472.4224   22370479.3034
  21059748.913   -23712063.25549 -18224310.77549  21059750.7414   21059756.9924
 96  4 20 19 16  0.0020000  0  8 19  2  4  9 15 26 27  7
  25228255.092    23583700.41849  18377241.94049  25228257.8374   25228266.9874
  22100846.987    -8225298.96549  -6399033.81549  22100849.2324   22100855.1134
  25034244.332    -6937987.50349  -5386436.80849  25034246.1414   25034253.2994
  25122870.525    -6740135.63249  -5231241.35649  25122872.9274   25122880.8384
  24692997.151    -7528808.48749  -5857775.09749  24692998.2984   24693006.1454
  23447199.614   -14578204.16849 -11348193.82349  23447202.1074   23447208.4624
  22386671.602       92614.91749    197943.43549  22386674.0194   22386680.3134
  21058875.094   -23716654.46049 -18227888.33549  21058877.2294   21058883.5904
 96  4 20 19 16 30.0020000  0  8 19  2  4  9 15 26 27  7
  25248802.446    23691675.42949  18461378.19849  25248804.7594   25248813.8224
  22106018.891    -8198122.12549  -6377857.06749  22106020.6674   22106026.7114
  25015908.755    -7034338.06149  -5461515.08749  25015911.1664   25015918.1944
  25105325.830    -6832334.84249  -5303084.85449  25105328.0404   25105336.2884
  24700850.546    -7487535.06249  -5825614.00849  24700853.1204   24700860.4514
  23450105.499   -14562932.60149 -11336293.91249  23450107.9764   23450114.5964
  22402946.748      178142.54149    264588.29149  22402949.2234   22402955.6984
  21058089.482   -23720781.53949 -18231104.24149  21058091.6254   21058098.0154
 96  4 20 19 17  0.0020000  0  8 19  2  4  9 15 26 27  7
  25269366.529    23799734.60649  18545580.01349  25269367.8624   25269378.3284
  22111217.217    -8170803.77249  -6356570.04849  22111219.2834   22111225.5314
  24997569.973    -7130707.76649  -5536608.28149  24997572.0534   24997580.3354
  25087779.850    -6924542.03649  -5374934.55449  25087780.7954   25087788.6874
  24708805.630    -7445729.84349  -5793038.52049  24708807.7164   24708815.4584
  23453101.156   -14547188.79149 -11324026.01449  23453103.9844   23453110.5254
  22419294.591      264048.52849    331527.97649  22419296.5314   22419303.0154
  21057391.361   -23724448.91849 -18233961.93849  21057393.7534   21057400.1404
 96  4 20 19 17 30.0020000  0  8 19  2  4  9 15 26 27  7
  25289947.630    23907897.33049  18629862.52349  25289949.7954   25289960.1914
  22116444.319    -8143336.41949  -6335166.92949  22116446.1134   22116452.0504
  24979229.681    -7227081.46849  -5611704.59049  24979232.4154   24979238.6564
  25070234.970    -7016738.28149  -5446775.73849  25070237.2804   25070244.7844
  24716864.470    -7403384.68949  -5760042.31749  24716865.8214   24716873.6674
  23456187.745   -14530970.68449 -11311388.53649  23456190.3504   23456196.5634
  22435708.855      350305.87849    398741.45449  22435710.7494   22435716.9634
  21056781.457   -23727654.98849 -18236460.17249  21056783.6964   21056789.9834
 96  4 20 19 18  0.0020000  0  8 19  2  4  9 15 26 27  7
  25310551.808    24016175.77349  18714235.20249  25310554.8824   25310564.9194
  22121700.134    -8115716.17949  -6313644.68049  22121702.0734   22121708.0004
  24960890.981    -7323451.02549  -5686797.66749  24960894.7814   24960900.8974
  25052694.937    -7108912.95349  -5518600.12349  25052696.9804   25052704.6914
  24725026.060    -7360491.68749  -5726619.21249  24725028.2884   24725035.4334
  23459363.106   -14514284.37149 -11298386.22649  23459365.3454   23459371.3604
  22452192.016      436925.90549    466237.53549  22452194.1454   22452200.1404
  21056260.738   -23730391.87649 -18238592.81249  21056262.7224   21056268.9884
 96  4 20 19 18 30.0020000  0  8 19  2  4  9 15 26 27  7
  25331178.154    24124561.14449  18798691.20349  25331180.8614   25331190.0864
  22126981.012    -8087966.43549  -6292021.52249  22126983.0194   22126988.8084
  24942549.660    -7419833.83649  -5761901.07449  24942552.6334   24942560.2544
  25035156.402    -7201073.77749  -5590413.71349  25035160.1044   25035166.1154
  24733289.584    -7317068.73749  -5692783.17549  24733291.1364   24733298.9284
  23462625.071   -14497141.67249 -11285028.29849  23462627.7034   23462633.3244
  22468742.906      523902.30149    534011.30649  22468744.8944   22468751.2014
  21055824.517   -23732688.81949 -18240382.63349  21055825.7164   21055832.1034
 96  4 20 19 19  0.0020000  0  8 19  2  4  9 15 26 27  7
  25351828.439    24233080.17149  18883251.33349  25351830.6124   25351840.8654
  22132287.298    -8060079.24349  -6270291.25049  22132289.4784   22132295.6884
  24924206.196    -7516224.70849  -5837010.74549  24924210.0674   24924218.5344
  25017632.455    -7293167.56049  -5662175.07549  25017634.1124   25017641.3684
  24741655.860    -7273102.22449  -5658523.57249  24741657.3874   24741665.1674
  23465980.657   -14479509.12549 -11271288.66949  23465982.7054   23465989.1244
  22485366.122      611257.36449    602080.15249  22485368.1864   22485374.3844
  21055472.527   -23734533.63649 -18241820.14449  21055474.6274   21055480.6644
 96  4 20 19 19 30.0020000  0  8 19  2  4  9 15 26 27  7
  25372502.238    24341719.38649  18967905.09549  25372504.3024   25372512.8414
  22137619.071    -8032064.48449  -6248461.57649  22137620.5614   22137626.8654
  24905861.826    -7612631.66149  -5912132.94249  24905863.8414   24905872.6334
  25000121.930    -7385186.90049  -5733878.40649  25000124.6104   25000131.5574
  24750124.006    -7228601.98349  -5623848.07549  24750125.8994   24750132.9664
  23469431.502   -14461372.92549 -11257156.57249  23469434.0504   23469440.3614
  22502061.073      698990.10949    670443.29149  22502062.8884   22502069.7214
  21055206.325   -23735932.86649 -18242910.45049  21055208.1474   21055214.5434
 96  4 20 19 20  0.0020000  0  7  2  4  9 15 26 27  7
  22142973.894    -8003922.94149  -6226533.11449  22142975.7904   22142982.0434
  24887513.847    -7709057.35649  -5987269.76049  24887515.2944   24887522.8874
  24982627.255    -7477122.54149  -5805516.52949  24982628.7514   24982635.7374
  24758693.680    -7183570.18449  -5588758.37749  24758695.8344   24758702.5074
  23472978.740   -14442730.28249 -11242629.84849  23472981.4424   23472987.0984
  22518829.952      787111.48849    739109.26949  22518831.9994   22518839.0214
  21055023.912   -23736888.35049 -18243654.98149  21055026.2334   21055032.7354
 96  4 20 19 20 30.0020000  0  7  2  4  9 15 26 27  7
  22148354.460    -7975649.36849  -6204501.76649  22148355.7334   22148362.2764
  24869160.923    -7805504.60749  -6062423.37649  24869162.8484   24869170.4524
  24965152.120    -7568953.10649  -5877072.78049  24965154.4384   24965161.6354
  24767363.406    -7138009.20449  -5553256.33249  24767365.2834   24767372.9624
  23476625.715   -14423566.96749 -11227697.40249  23476628.1034   23476633.6684
  22535670.187      875610.91049    808069.81749  22535672.8534   22535680.2334
  21054925.637   -23737408.83849 -18244060.55649  21054927.2704   21054933.6544
 96  4 20 19 21  0.0020000  0  7  2  4  9 15 26 27  7
  22153762.429    -7947227.84349  -6182355.13949  22153764.3894   22153770.8364
  24850807.657    -7901949.66049  -6137575.28849  24850809.6374   24850817.5904
  24947699.626    -7660672.76649  -5948542.62449  24947700.3994   24947707.2104
  24776134.278    -7091913.91749  -5517337.94249  24776136.6234   24776144.0014
  23480371.393   -14403881.98749 -11212358.47749  23480374.1094   23480379.8294
  22552583.819      964489.22849    877325.60049  22552585.9474   22552593.3934
  21054911.967   -23737476.94649 -18244113.62849  21054914.4224   21054921.0924
 96  4 20 19 21 30.0020000  0  7  2  4  9 15 26 27  7
  22159205.245    -7918628.04149  -6160069.59249  22159206.9014   22159213.2254
  24832458.714    -7998368.41849  -6212706.71849  24832461.2044   24832469.2834
  24930262.886    -7752299.36949  -6019939.94249  24930264.4754   24930271.0514
  24785010.298    -7045276.89349  -5480997.41849  24785011.6944   24785018.7884
  23484216.179   -14383677.67549 -11196614.87549  23484218.6654   23484224.7914
  22569570.203     1053751.64849    946880.68649  22569571.9024   22569579.3874
  21054988.646   -23737077.44849 -18243802.32849  21054990.3324   21054997.1214
 96  4 20 19 22  0.0020000  0  7  2  4  9 15 26 27  7
  22164684.637    -7889833.57949  -6137632.36549  22164686.4144   22164692.6314
  24814114.628    -8094762.60349  -6287818.99149  24814117.6154   24814126.3474
  24912845.101    -7843832.35349  -6091264.33749  24912846.2074   24912852.7264
  24793987.726    -6998096.80249  -5444233.72649  24793989.8134   24793997.3374
  23488159.008   -14362960.65249 -11180471.75249  23488161.4074   23488166.7744
  22586629.064     1143397.87049   1016734.83849  22586631.0734   22586638.3974
  21055152.836   -23736214.17249 -18243129.64649  21055154.8394   21055161.3794
 96  4 20 19 22 30.0020000  0  7  2  4  9 15 26 27  7
  22170202.678    -7860836.99949  -6115037.64049  22170204.2274   22170210.2504
  24795776.979    -8191126.12549  -6362907.37449  24795779.9354   24795788.5114
  24895440.668    -7935289.39449  -6162529.53549  24895443.9394   24895448.8464
  24803069.960    -6950372.85349  -5407046.25349  24803071.5304   24803079.0394
  23492197.845   -14341736.22749 -11163933.26049  23492200.2384   23492205.6554
  22603759.504     1233417.20549   1086879.72749  22603761.4554   22603768.8434
  21055405.915   -23734883.77749 -18242092.97649  21055407.9894   21055414.2504
 96  4 20 19 23  0.0020000  0  7  2  4  9 15 26 27  7
  22175756.114    -7831653.02449  -6092296.89449  22175757.9314   22175763.8084
  24777444.627    -8287460.49349  -6437973.05449  24777447.8214   24777457.0764
  24878044.321    -8026704.14649  -6233761.76649  24878046.9274   24878052.4854
  24812253.197    -6902115.73949  -5369443.33449  24812254.3484   24812261.2274
  23496331.632   -14320013.21249 -11147006.26749  23496334.5234   23496339.5734
  22620958.486     1323796.40649   1157305.01849  22620960.4414   22620967.5394
  21055747.333   -23733092.41849 -18240697.11949  21055748.9964   21055755.0304
 96  4 20 19 23 30.0020000  0  7  2  4  9 15 26 27  7
  22181344.744    -7802283.66149  -6069411.68449  22181346.4944   22181352.5544
  24759114.962    -8383775.80949  -6513023.88949  24759119.4044   24759128.6894
  24860657.775    -8118070.97149  -6304956.66849  24860659.8164   24860666.7984
  24821537.759    -6853320.77649  -5331421.30349  24821540.3604   24821546.9914
  23500560.812   -14297789.26549 -11129688.92349  23500563.4874   23500569.3014
  22638225.866     1414535.01349   1228010.38049  22638227.3654   22638234.2934
  21056173.832   -23730849.19349 -18238949.14849  21056175.9734   21056182.1224
